     2.11           OBSERVATION DATA    G (GPS)             RINEX VERSION / TYPE
teqc 2010Oct21 OPUS Account 20111027 15:02:04UTC            PGM / RUN BY / DATE
S 1524                                                      MARKER NAME
1222                                                        MARKER NUMBER
CSMIDDLETON NGS                                             OBSERVER / AGENCY
4624K01615 TRIMBLE NETR5 4.41                               REC # / TYPE / VERS
12338145 TRM41249.00 NONE                                   ANT # / TYPE
  -761150.5535 -5534871.1518  3066569.4279                  APPROX POSITION XYZ
        2.0000        0.0000        0.0000                  ANTENNA: DELTA H/E/N
     1     1                                                WAVELENGTH FACT L1/2
     5    L1    L2    C1    P1    P2                        # / TYPES OF OBSERV
    15                                                      LEAP SECONDS
  2011     8    14     0     0    0.0000000     GPS         TIME OF FIRST OBS
                                                            END OF HEADER
 11  8 14  0  0  0.0000000  0  8G09G17G04G02G10G12G05G28
 118386428.811 7  92249243.96244  22528196.781                    22528206.520
 117496627.434 7  91555843.006 7  22358857.406                    22358864.875
 107877585.941 8  84060558.37546  20528401.680                    20528409.711
 109618510.670 8  85417146.85446  20859689.750                    20859695.473
 112384467.317 8  87572386.62145  21386036.633                    21386044.754
 119340745.831 7  92992869.072 7  22709789.672                    22709797.406
 124682076.923 7  97154936.217 6  23726203.297                    23726214.773
 124385973.499 6  96924152.08543  23669872.125                    23669882.207
 11  8 14  0  0 30.0000000  0  8G09G17G04G02G10G12G05G28
 118437121.958 7  92288745.07345  22537843.484                    22537853.512
 117538152.402 7  91588200.106 7  22366759.852                    22366767.418
 107932531.841 8  84103373.36146  20538857.422                    20538865.332
 109588016.470 8  85393385.17846  20853887.133                    20853893.113
 112331006.505 7  87530728.91345  21375862.891                    21375871.148
 119252790.763 7  92924332.678 7  22693052.086                    22693059.973
 124576682.374 7  97072810.874 6  23706146.922                    23706158.387
 124480432.590 6  96997756.49643  23687847.523                    23687857.145
 11  8 14  0  1  0.0000000  0  8G09G17G04G02G10G12G05G28
 118488272.273 7  92328602.40844  22547576.438                    22547586.633
 117579780.559 7  91620637.610 7  22374681.281                    22374689.086
 107987823.059 8  84146457.42146  20549379.180                    20549386.855
 109557886.391 8  85369907.23146  20848153.203                    20848159.109
 112278038.853 8  87489455.46445  21365783.445                    21365791.746
 119165041.457 7  92855956.622 7  22676354.141                    22676361.449
 124471323.766 7  96990713.530 6  23686097.695                    23686109.281
 124575146.999 6  97071559.87743  23705870.609                    23705880.504
 11  8 14  0  1 30.0000000  0  8G09G17G04G02G10G12G05G28
 118539876.960 7  92368813.79644  22557396.859                    22557406.672
 117621512.784 7  91653156.219 7  22382622.367                    22382630.031
 108043457.143 8  84189808.65446  20559965.695                    20559973.535
 109528120.028 8  85346712.70946  20842489.063                    20842495.199
 112225566.761 8  87448568.17745  21355798.406                    21355806.633
 119077499.978 7  92787742.491 6  22659695.680                    22659702.793
 124366004.365 7  96908646.755 6  23666055.516                    23666067.816
 124670114.857 6  97145560.69143  23723943.898                    23723952.418
 11  8 14  0  2  0.0000000  0  8G09G17G04G02G10G12G05G28
 118591933.453 7  92409377.24044  22567302.203                    22567312.617
 117663350.016 7  91685756.633 7  22390584.023                    22390591.469
 108099431.942 8  84233425.38446  20570617.328                    20570625.023
 109498716.955 8  85323801.26546  20836893.797                    20836899.277
 112173593.351 8  87408069.46845  21345908.266                    21345916.344
 118990169.091 7  92719692.451 7  22643076.914                    22643084.563
 124260726.975 7  96826612.706 6  23646021.352                    23646033.430
 124765334.377 6  97219757.65843  23742063.242                    23742072.613
 11  8 14  0  2 30.0000000  0  8G09G17G04G02G10G12G05G28
 118644438.380 7  92450290.11444  22577294.148                    22577304.102
 117705292.274 7  91718438.898 7  22398565.438                    22398572.738
 108155744.465 8  84277305.25946  20581333.508                    20581340.973
 109469676.424 8  85301172.32646  20831367.430                    20831373.227
 112122120.199 8  87367960.56545  21336112.859                    21336120.934
 118903051.133 7  92651808.337 7  22626498.695                    22626506.727
 124155494.018 6  96744613.283 6  23625996.375                    23626008.180
 124860803.756 7  97294149.29343  23760231.188                    23760239.602
 11  8 14  0  3  0.0000000  0  8G09G17G04G02G10G12G05G28
 118697389.288 7  92491550.49744  22587370.219                    22587380.465
 117747340.573 7  91751203.774 7  22406566.531                    22406574.461
 108212393.025 8  84321446.99746  20592113.148                    20592121.172
 109440998.785 8  85278826.14946  20825910.234                    20825916.086
 112071150.656 8  87328244.08946  21326414.273                    21326422.063
 118816149.297 7  92584092.629 7  22609962.016                    22609969.629
 124050308.889 7  96662651.133 6  23605979.781                    23605991.996
 124956521.740 6  97368734.66043  23778444.898                    23778455.066
 11  8 14  0  3 30.0000000  0  8G09G17G04G02G10G12G05G28
 118750783.448 7  92533156.25644  22597531.383                    22597540.617
 117789495.629 7  91784051.848 7  22414588.813                    22414596.219
 108269375.463 8  84365848.89546  20602956.547                    20602964.254
 109412683.393 8  85256762.24446  20820522.148                    20820527.879
 112020687.300 8  87288922.05545  21316810.680                    21316819.375
 118729465.884 7  92516547.120 7  22593466.531                    22593474.695
 123945174.447 7  96580728.484 6  23585973.750                    23585985.285
 125052486.337 6  97443512.22543  23796706.992                    23796715.891
 11  8 14  0  4  0.0000000  0  8G09G17G04G02G10G12G05G28
 118804617.390 7  92575104.71144  22607775.625                    22607785.367
 117831757.482 7  91816983.143 7  22422630.680                    22422638.703
 108326688.781 8  84410508.61546  20613863.234                    20613870.730
 109384729.587 8  85234980.10246  20815202.547                    20815208.465
 111970732.231 7  87249996.05345  21307304.734                    21307312.590
 118643002.905 7  92449173.392 7  22577013.453                    22577020.965
 123840093.338 7  96498847.375 6  23565976.867                    23565988.563
 125148695.605 6  97518480.39043  23815014.422                    23815023.773
 11  8 14  0  4 30.0000000  0  8G09G17G04G02G10G12G05G28
 118858887.832 7  92617393.28645  22618103.289                    22618112.594
 117874126.644 7  91849998.044 7  22430693.406                    22430701.043
 108384330.248 8  84455424.04546  20624831.742                    20624839.672
 109357136.615 8  85213479.12846  20809951.750                    20809957.289
 111921287.374 8  87211467.64245  21297895.734                    21297904.039
 118556762.837 7  92381973.352 7  22560602.328                    22560610.223
 123735068.105 7  96417009.804 6  23545991.445                    23546002.730
 125245147.159 6  97593637.35343  23833368.117                    23833378.426
 11  8 14  0  5  0.0000000  0  8G09G17G04G02G10G12G05G28
 118913591.973 7  92660019.80644  22628512.789                    22628522.551
 117916603.749 7  91883097.066 7  22438776.641                    22438784.238
 108442298.173 8  84500593.86546  20635862.766                    20635870.348
 109329904.391 8  85192259.24946  20804769.367                    20804774.789
 111872355.800 8  87173339.20145  21288583.680                    21288592.594
 118470749.022 7  92314949.641 7  22544234.977                    22544242.285
 123630101.708 7  96335218.091 6  23526016.766                    23526028.559
 125341839.531 6  97668981.96643  23851768.336                    23851777.691
 11  8 14  0  5 30.0000000  0  8G09G17G04G02G10G12G05G28
 118968727.236 7  92702982.26644  22639004.797                    22639014.516
 117959189.651 7  91916280.856 7  22446880.594                    22446888.453
 108500590.125 8  84546016.16246  20646955.266                    20646963.359
 109303032.590 8  85171320.23346  20799656.180                    20799661.465
 111823940.136 8  87135612.73846  21279371.219                    21279378.930
 118384963.559 7  92248103.855 7  22527909.883                    22527917.563
 123525197.464 7  96253474.777 6  23506054.000                    23506065.129
 125438771.000 6  97744512.87343  23870214.906                    23870223.816
 11  8 14  0  6  0.0000000  0  8G09G17G04G02G10G12G05G28
 119024290.217 7  92746278.01844  22649578.063                    22649587.898
 118001884.467 7  91949549.519 7  22455005.320                    22455012.941
 108559203.269 8  84591688.74346  20658109.281                    20658116.688
 109276520.039 8  85150661.14646  20794610.563                    20794616.535
 111776042.077 8  87098289.61745  21270256.656                    21270264.359
 118299408.648 7  92181437.729 7  22511629.516                    22511637.223
 123420357.777 7  96171781.776 6  23486103.195                    23486114.645
 125535939.602 6  97820228.57443  23888705.008                    23888714.625
 11  8 14  0  6 30.0000000  0  8G09G17G04G02G10G12G05G28
 119080277.854 6  92789904.67544  22660232.219                    22660242.191
 118044689.021 7  91982903.712 7  22463150.578                    22463158.164
 108618135.644 8  84637610.08246  20669323.820                    20669330.883
 109250367.124 8  85130282.28246  20789634.250                    20789639.656
 111728664.557 7  87061372.12845  21261240.430                    21261248.840
 118214087.568 7  92114953.812 7  22495393.367                    22495401.063
 123315586.027 7  96090141.712 7  23466165.383                    23466177.359
 125633343.668 6  97896127.78443  23907239.813                    23907250.230
 11  8 14  0  7  0.0000000  0  8G09G17G04G02G10G12G05G28
 119136687.002 7  92833859.76644  22670966.859                    22670976.480
 118087603.661 7  92016343.671 7  22471316.492                    22471324.309
 108677384.585 8  84683778.09046  20680598.391                    20680606.219
 109224572.791 8  85110182.84246  20784725.570                    20784731.293
 111681809.664 8  87024861.86045  21252324.398                    21252332.750
 118129002.450 7  92048653.776 7  22479202.164                    22479210.402
 123210884.817 7  96008556.606 6  23446241.617                    23446252.723
 125730981.028 6  97972208.75643  23925819.930                    23925829.793
 11  8 14  0  7 30.0000000  0  8G09G17G04G02G10G12G05G28
 119193515.124 6  92878141.34644  22681781.180                    22681790.410
 118130629.059 7  92049869.948 7  22479504.578                    22479512.211
 108736947.794 8  84730190.98946  20691932.609                    20691940.348
 109199136.698 8  85090362.54246  20779885.125                    20779890.785
 111635479.927 8  86988760.79946  21243508.281                    21243516.227
 118044155.692 7  91982539.457 7  22463056.164                    22463063.836
 123106257.124 7  95927028.783 6  23426331.039                    23426342.199
 125828850.076 6  98048470.25743  23944443.477                    23944454.168
 11  8 14  0  8  0.0000000  0  8G09G17G04G02G10G12G05G28
 119250759.009 7  92922746.89544  22692673.836                    22692683.891
 118173765.867 7  92083483.033 7  22487712.961                    22487720.680
 108796823.188 8  84776847.13346  20703326.594                    20703334.477
 109174058.410 8  85070821.05646  20775112.805                    20775118.684
 111589677.751 8  86953070.84545  21234792.141                    21234800.316
 117959550.080 7  91916613.049 7  22446956.492                    22446964.539
 123001706.125 7  95845560.684 6  23406435.680                    23406446.109
 125926948.797 6  98124910.79343  23963110.906                    23963121.199
 11  8 14  0  8 30.0000000  0  8G09G17G04G02G10G12G05G28
 119308415.770 7  92967674.16944  22703645.109                    22703655.520
 118217014.949 7  92117183.597 7  22495943.094                    22495950.898
 108857008.468 8  84823744.75546  20714779.383                    20714787.414
 109149337.783 8  85051558.26646  20770408.727                    20770414.418
 111544405.596 8  86917793.88245  21226177.391                    21226185.105
 117875188.498 7  91850876.797 7  22430902.773                    22430910.785
 122897234.695 7  95764154.596 6  23386555.398                    23386566.531
 126025275.332 6  98201528.80943  23981822.352                    23981832.129
 11  8 14  0  9  0.0000000  0  8G09G17G04G02G10G12G05G28
 119366481.751 7  93012920.31444  22714695.023                    22714705.160
 118260376.452 7  92150971.764 7  22504194.688                    22504202.504
 108917500.581 8  84870881.45846  20726290.773                    20726298.238
 109124973.290 8  85032572.97146  20765772.172                    20765777.707
 111499664.842 8  86882930.99946  21217663.094                    21217671.582
 117791072.916 7  91785332.230 7  22414896.266                    22414904.066
 122792844.963 7  95682812.192 6  23366690.508                    23366700.793
 126123827.139 6  98278322.32643  24000576.023                    24000586.285
 11  8 14  0  9 30.0000000  0  8G09G17G04G02G10G12G05G28
 119424954.207 7  93058483.19844  22725822.078                    22725831.887
 118303851.007 7  92184848.033 7  22512467.703                    22512475.703
 108978297.447 8  84918255.64046  20737859.891                    20737867.785
 109100964.640 8  85013864.96546  20761203.648                    20761209.102
 111455458.501 8  86848484.54446  21209250.813                    21209259.527
 117707206.188 7  91719981.576 7  22398936.750                    22398944.613
 122688540.111 7  95601535.877 6  23346841.758                    23346852.117
 126222603.203 6  98355290.64943  24019372.055                    24019383.777
 11  8 14  0 10  0.0000000  0  8G09G17G04G02G10G12G05G28
 119483830.027 7  93104360.39444  22737026.336                    22737035.746
 118347439.130 7  92218812.786 7  22520761.914                    22520770.160
 109039396.771 8  84965865.49246  20749486.875                    20749494.605
 109077311.770 8  84995434.18146  20756702.414                    20756707.965
 111411788.469 8  86814455.98046  21200940.469                    21200948.840
 117623590.732 7  91654826.714 7  22383025.727                    22383033.164
 122584323.770 7  95520328.549 6  23327009.508                    23327020.203
 126321601.466 6  98432432.01343  24038211.133                    24038222.395
 11  8 14  0 10 30.0000000  0  8G09G17G04G02G10G12G05G28
 119543106.125 7  93150549.49844  22748306.023                    22748315.652
 118391141.640 7  92252866.691 7  22529078.523                    22529086.258
 109100796.449 8  85013709.39046  20761170.945                    20761178.859
 109054013.906 8  84977280.01646  20752268.953                    20752274.566
 111368657.261 8  86780847.29446  21192733.133                    21192740.945
 117540229.561 7  91589869.989 7  22367161.984                    22367169.215
 122480198.662 7  95439192.326 6  23307195.102                    23307206.113
 126420819.729 6  98509744.87443  24057091.945                    24057102.246
 11  8 14  0 11  0.0000000  0  8G09G17G04G02G10G12G05G28
 119602779.357 7  93197048.05044  22759661.789                    22759671.766
 118434959.121 7  92287010.169 7  22537416.578                    22537424.371
 109162493.784 8  85061785.22146  20772911.242                    20772919.504
 109031070.659 8  84959402.18346  20747903.227                    20747908.609
 111326066.847 8  86747660.01046  21184628.313                    21184636.477
 117457125.192 7  91525113.379 7  22351347.563                    22351355.418
 122376167.456 7  95358129.270 6  23287398.516                    23287408.809
 126520255.945 6  98587227.53343  24076014.141                    24076024.629
 11  8 14  0 11 30.0000000  0  8G09G17G04G02G10G12G05G28
 119662846.574 7  93243853.60344  22771092.227                    22771101.832
 118478892.255 7  92321243.758 7  22545776.906                    22545784.824
 109224486.598 8  85110091.29646  20784708.188                    20784716.121
 109008481.223 8  84941800.04246  20743604.406                    20743609.633
 111284019.673 8  86714896.01346  21176627.070                    21176635.438
 117374280.100 7  91460558.814 7  22335583.273                    22335590.602
 122272233.315 7  95277141.844 6  23267620.680                    23267631.238
 126619908.497 6  98664878.76843  24094977.672                    24094988.070
 11  8 14  0 12  0.0000000  0  8G09G17G04G02G10G12G05G28
 119723304.404 7  93290963.53444  22782596.492                    22782606.848
 118522941.195 7  92355567.590 7  22554158.570                    22554166.590
 109286771.943 8  85158625.32546  20796561.008                    20796568.758
 108986244.504 8  84924472.75046  20739373.430                    20739379.090
 111242517.173 8  86682556.44346  21168729.539                    21168737.918
 117291696.434 7  91396207.959 7  22319867.844                    22319875.594
 122168398.752 7  95196232.022 6  23247861.578                    23247871.723
 126719774.796 6  98742696.56043  24113981.719                    24113992.465
 11  8 14  0 12 30.0000000  0  8G09G17G04G02G10G12G05G28
 119784150.233 7  93338375.79544  22794174.906                    22794185.488
 118567106.728 7  92389982.272 7  22562563.109                    22562571.223
 109349348.110 8  85207385.95946  20808468.508                    20808476.742
 108964360.386 8  84907420.20146  20735208.547                    20735214.172
 111201562.376 8  86650643.65446  21160936.344                    21160944.301
 117209377.167 7  91332063.122 7  22304202.766                    22304210.285
 122064667.183 7  95115402.417 6  23228121.438                    23228132.344
 126819853.619 6  98820679.93743  24133025.703                    24133037.352
 11  8 14  0 13  0.0000000  0  8G09G17G04G02G10G12G05G28
 119845380.581 7  93386087.70444  22805827.336                    22805837.199
 118611389.518 7  92424488.303 7  22570989.984                    22570997.715
 109412212.456 8  85256371.15146  20820431.445                    20820439.332
 108942828.344 8  84890642.00346  20731111.406                    20731116.844
 111161157.097 8  86619159.06146  21153247.422                    21153255.820
 117127325.000 7  91268126.418 7  22288588.914                    22288596.098
 121961041.288 7  95034655.179 6  23208402.148                    23208412.438
 126920142.893 6  98898827.32443  24152110.422                    24152121.230
 11  8 14  0 13 30.0000000  0  8G09G17G04G02G10G12G05G28
 119906992.954 7  93434097.26744  22817551.625                    22817561.629
 118655790.646 7  92459086.543 7  22579439.148                    22579446.750
 109475363.358 8  85305579.63446  20832448.430                    20832456.469
 108921648.269 8  84874138.07346  20727080.469                    20727085.773
 111121303.875 8  86588104.63546  21145663.250                    21145671.457
 117045542.800 7  91204400.083 7  22273026.398                    22273034.020
 121857524.857 7  94953993.217 6  23188703.773                    23188713.934
 127020641.054 6  98977137.42343  24171234.547                    24171245.648
 11  8 14  0 14  0.0000000  0  8G09G17G04G02G10G12G05G28
 119968983.177 7  93482401.26344  22829348.227                    22829358.191
 118700310.455 7  92493777.271 7  22587911.320                    22587918.410
 109538797.638 8  85355008.92646  20844519.328                    20844527.691
 108900818.798 8  84857907.33746  20723117.164                    20723122.559
 111082004.176 8  86557481.52646  21138184.789                    21138192.844
 116964032.934 7  91140885.969 7  22257515.625                    22257523.086
 121754119.935 7  94873418.143 6  23169025.742                    23169035.996
 127121345.431 6  99055608.26243  24190398.781                    24190408.984
 11  8 14  0 14 30.0000000  0  8G09G17G04G02G10G12G05G28
 120031348.229 7  93530997.34844  22841216.125                    22841226.051
 118744949.231 7  92528560.693 7  22596405.820                    22596413.438
 109602512.959 8  85404657.21546  20856644.281                    20856652.191
 108880339.300 8  84841949.31046  20719219.742                    20719225.258
 111043259.824 8  86527291.15046  21130812.008                    21130819.910
 116882797.396 7  91077585.609 7  22242057.078                    22242063.945
 121650829.475 7  94792932.261 6  23149370.133                    23149380.516
 127222254.117 6  99134238.31043  24209600.547                    24209611.402
 11  8 14  0 15  0.0000000  0  8G09G17G04G02G10G12G05G28
 120094085.608 7  93579883.55644  22853154.828                    22853164.406
 118789708.104 7  92563437.700 7  22604923.047                    22604930.688
 109666507.944 8  85454523.42646  20868822.148                    20868830.281
 108860209.699 8  84826263.93146  20715389.578                    20715395.004
 111005073.642 8  86497535.71546  21123545.531                    21123553.398
 116801839.942 7  91014501.933 7  22226651.148                    22226658.227
 121547657.293 7  94712538.550 7  23129737.422                    23129747.480
 127323365.860 5  99213026.57342  24228842.242                    24228852.688
 11  8 14  0 15 30.0000000  0  9G09G17G04G02G30G10G12G05G28
 120157190.998 7  93629056.50744  22865163.289                    22865173.699
 118834586.694 7  92598407.986 7  22613463.820                    22613471.148
 109730778.723 8  85504604.54346  20881052.250                    20881060.113
 108840428.212 8  84810849.81446  20711625.086                    20711630.633
 128054861.63315                  24368039.633
 110967446.390 8  86468215.80046  21116385.031                    21116393.184
 116721162.232 7  90951636.228 7  22211298.359                    22211305.949
 121444605.209 7  94632238.416 7  23110126.938                    23110137.395
 127424677.380 5  99291970.49742  24248120.648                    24248131.289
 11  8 14  0 16  0.0000000  0  9G09G17G04G02G30G10G12G05G28
 120220661.498 6  93678513.96844  22877240.586                    22877251.313
 118879585.983 7  92633472.328 7  22622026.438                    22622034.332
 109795323.477 8  85554899.13746  20893335.219                    20893343.191
 108820994.611 8  84795706.77446  20707926.781                    20707932.512
 127948354.585 5                  24347771.953
 110930380.699 8  86439333.48246  21109331.859                    21109339.965
 116640766.577 7  90888990.311 7  22195999.922                    22196007.180
 121341676.575 7  94552034.484 7  23090539.531                    23090550.285
 127526187.253 5  99371068.95042  24267437.852                    24267449.246
 11  8 14  0 16 30.0000000  0  9G09G17G04G02G30G10G12G05G28
 120284494.484 7  93728253.88544  22889387.773                    22889398.527
 118924706.687 7  92668631.263 7  22630612.781                    22630620.781
 109860140.220 8  85605405.67446  20905669.297                    20905676.980
 108801908.853 8  84780834.78246  20704295.156                    20704300.789
 127841993.668 5  99617214.65452  24327532.852                    24327541.723
 110893878.985 8  86410890.60346  21102385.602                    21102393.332
 116560656.091 7  90826566.606 7  22180755.258                    22180762.816
 121238874.656 7  94471929.275 6  23070977.664                    23070987.656
 127627893.869 6  99450320.71342  24286791.711                    24286802.707
 11  8 14  0 17  0.0000000  0  9G09G17G04G02G30G10G12G05G28
 120348685.958 7  93778273.13044  22901603.016                    22901613.605
 118969949.231 7  92703885.157 7  22639221.859                    22639230.227
 109925225.986 8  85656121.83346  20918054.656                    20918062.660
 108783169.233 8  84766232.50946  20700729.359                    20700734.820
 127735781.071 6  99534451.57943  24307322.188                    24307331.098
 110857942.544 8  86382888.21046  21095547.117                    21095554.969
 116480833.083 7  90764366.901 7  22165565.250                    22165572.789
 121136201.871 7  94391924.687 7  23051439.016                    23051449.008
 127729794.641 6  99529723.82942  24306182.711                    24306194.145
 11  8 14  0 17 30.0000000  0  9G09G17G04G02G30G10G12G05G28
 120413233.497 7  93828569.84344  22913886.953                    22913896.602
 119015315.205 7  92739235.229 7  22647855.281                    22647862.980
 109990579.371 8  85707046.53746  20930491.141                    20930498.891
 108764775.874 8  84751900.04946  20697228.594                    20697234.648
 127629720.197 6  99451806.78543  24287138.492                    24287148.941
 110822574.042 8  86355328.37246  21088817.000                    21088824.648
 116401301.066 7  90702393.929 7  22150430.836                    22150438.035
 121033661.948 7  94312023.620 7  23031926.672                    23031936.637
 127831887.844 6  99609276.92843  24325610.945                    24325621.422
 11  8 14  0 18  0.0000000  0  8G09G17G04G02G30G10G12G05
 120478133.337 7  93879141.06844  22926236.641                    22926246.828
 119060804.637 7  92774681.523 7  22656511.383                    22656519.207
 110056197.478 8  85758177.52346  20942977.523                    20942985.719
 108746727.755 8  84737836.60346  20693794.086                    20693799.680
 127523813.411 6  99369282.02443  24266985.273                    24266995.680
 110787774.842 8  86328212.13045  21082194.172                    21082202.398
 116322061.756 7  90640649.044 7  22135352.031                    22135359.938
 120931257.630 7  94232228.209 7  23012439.633                    23012449.570
 11  8 14  0 18 30.0000000  0  8G09G17G04G02G30G10G12G05
 120543382.403 7  93929984.41544  22938653.258                    22938663.305
 119106417.601 7  92810224.039 7  22665191.258                    22665199.414
 110122077.787 8  85809512.81046  20955514.281                    20955522.215
 108729024.049 8  84724041.55146  20690425.258                    20690431.313
 127418063.097 6  99286879.16143  24246862.398                    24246872.172
 110753546.649 8  86301540.84646  21075681.273                    21075689.109
 116243118.010 7  90579134.459 7  22120329.680                    22120337.336
 120828991.437 7  94152540.423 7  22992978.391                    22992988.816
 11  8 14  0 19  0.0000000  0  8G09G17G04G02G30G10G12G05
 120608977.231 7  93981097.18844  22951135.719                    22951145.941
 119152155.031 7  92845863.571 7  22673894.281                    22673902.801
 110188218.177 8  85861050.76646  20968100.258                    20968107.949
 108711664.040 8  84710514.30046  20687121.766                    20687127.371
 127312472.504 6  99204600.81843  24226768.664                    24226778.852
 110719891.318 8  86275315.93846  21069276.969                    21069284.363
 116164472.255 7  90517852.075 7  22105363.742                    22105371.309
 120726866.591 7  94072962.771 7  22973545.305                    22973554.777
 11  8 14  0 19 30.0000000  0  8G09G17G04G02G30G10G12G05
 120674914.549 7  94032476.83544  22963683.617                    22963693.391
 119198017.520 7  92881600.538 7  22682622.055                    22682630.145
 110254616.281 8  85912789.54346  20980735.570                    20980743.395
 108694647.004 8  84697254.30646  20683883.344                    20683889.047
 127207043.842 6  99122448.66143  24206706.031                    24206716.098
 110686810.608 8  86249538.79446  21062981.547                    21062989.484
 116086127.048 7  90456803.883 7  22090455.102                    22090462.645
 120624885.852 7  93993497.426 7  22954138.375                    22954148.762
 11  8 14  0 20  0.0000000  0  8G09G17G04G02G30G10G12G05
 120741191.156 7  94084120.86844  22976294.984                    22976305.496
 119244005.542 7  92917435.348 7  22691373.234                    22691381.016
 110321269.738 8  85964727.29046  20993419.117                    20993427.297
 108677972.552 8  84684261.26246  20680710.688                    20680716.527
 127101780.323 6  99040425.21043  24186675.047                    24186685.145
 110654306.412 7  86224210.87746  21056796.023                    21056804.375
 116008085.109 7  90395991.997 7  22075604.172                    22075611.313
 120523053.036 7  93914147.342 7  22934760.094                    22934770.066
 11  8 14  0 20 30.0000000  0  8G09G17G04G02G30G10G12G05
 120807803.261 7  94136026.32344  22988971.188                    22988981.234
 119290119.859 7  92953368.572 7  22700148.852                    22700156.063
 110388176.214 8  86016862.20446  21006151.039                    21006159.230
 108661639.179 8  84671533.98546  20677602.383                    20677607.922
 126996684.116 6  98958532.14943  24166676.141                    24166685.879
 110622380.041 7  86199333.22646  21050720.508                    21050728.641
 115930349.040 7  90335418.453 7  22060811.453                    22060819.109
 120421369.968 7  93834913.948 7  22915410.680                    22915420.449
 11  8 14  0 21  0.0000000  0  8G09G17G04G02G30G10G12G05
 120874747.741 7  94188190.77844  23001710.617                    23001720.227
 119336360.782 7  92989400.433 7  22708948.320                    22708956.156
 110455333.069 8  86069192.20546  21018930.727                    21018938.465
 108645646.089 8  84659071.87246  20674559.195                    20674564.504
 126891758.102 6  98876771.74543  24146708.852                    24146718.793
 110591033.442 8  86174907.32446  21044755.672                    21044763.750
 115852921.043 7  90275084.966 7  22046077.328                    22046085.305
 120319840.020 7  93755799.880 7  22896089.820                    22896099.883
 11  8 14  0 21 30.0000000  0  8G09G17G04G02G30G10G12G05
 120942021.167 7  94240611.55044  23014512.055                    23014522.922
 119382728.860 7  93025531.375 7  22717771.258                    22717779.664
 110522737.937 8  86121715.46846  21031757.344                    21031765.160
 108629992.336 8  84646874.17646  20671579.898                    20671585.512
 126787004.809 6  98795145.97443  24126774.773                    24126784.926
 110560267.833 8  86150934.14546  21038901.328                    21038909.219
 115775803.631 7  90214993.497 7  22031402.164                    22031409.918
 120218466.140 7  93676807.412 7  22876798.750                    22876808.652
 11  8 14  0 22  0.0000000  0  8G09G17G04G02G30G10G12G05
 121009620.368 7  94293286.15544  23027375.734                    23027386.422
 119429224.852 7  93061761.994 7  22726619.930                    22726627.688
 110590388.327 8  86174430.05946  21044630.711                    21044638.766
 108614677.201 8  84634940.33146  20668665.648                    20668671.227
 126682426.725 6  98713656.74343  24106874.070                    24106884.152
 110530085.033 8  86127415.10546  21033157.656                    21033165.586
 115698999.391 7  90155146.051 7  22016787.156                    22016794.965
 120117250.960 7  93597938.601 7  22857538.094                    22857547.945
 11  8 14  0 22 30.0000000  0  8G09G17G04G02G30G10G12G05
 121077542.665 7  94346212.53744  23040300.602                    23040311.465
 119475849.754 7  93098093.071 7  22735491.867                    22735499.855
 110658283.042 8  86227335.02846  21057550.727                    21057558.348
 108599700.811 8  84623270.44146  20665815.852                    20665821.320
 126578027.703 6  98632307.04243  24087008.328                    24087017.441
 110500487.573 8  86104352.17746  21027525.445                    21027533.246
 115622511.562 7  90095545.167 7  22002231.742                    22002239.227
 120016198.289 7  93519196.420 7  22838308.344                    22838318.605
 11  8 14  0 23  0.0000000  0  8G09G17G04G02G30G10G12G05
 121145784.389 7  94399387.81444  23053287.227                    23053297.676
 119522603.743 7  93134524.713 6  22744389.586                    22744396.598
 110726418.995 8  86280427.96546  21070516.820                    21070524.621
 108585061.989 8  84611863.58146  20663029.891                    20663035.785
 126473809.959 6  98551098.53543  24067175.469                    24067185.539
 110471476.394 8  86081746.11645  21022004.750                    21022012.992
 115546342.599 7  90036192.747 7  21987738.023                    21987745.066
 119915310.826 7  93440582.977 7  22819110.023                    22819119.891
 11  8 14  0 23 30.0000000  0  8G09G17G04G02G30G10G12G05
 121214341.698 7  94452809.02044  23066332.859                    23066343.320
 119569487.294 7  93171057.315 7  22753310.539                    22753318.227
 110794793.684 8  86333706.93446  21083527.602                    21083536.156
 108570759.081 8  84600718.47646  20660308.328                    20660314.035
 126369775.847 6  98470033.09743  24047378.352                    24047388.031
 110443053.169 8  86059598.18346  21016596.000                    21016603.891
 115470494.703 7  89977090.503 7  21973303.992                    21973311.559
 119814591.219 7  93362100.327 7  22799943.172                    22799953.387
 11  8 14  0 24  0.0000000  0  8G09G17G04G02G30G10G12G05
 121283211.649 7  94506473.83544  23079438.734                    23079449.262
 119616501.457 7  93207691.686 7  22762257.641                    22762265.082
 110863405.388 8  86387170.58646  21096584.422                    21096592.406
 108556791.862 8  84589834.95046  20657650.281                    20657655.527
 126265928.534 6  98389113.24143  24027616.664                    24027626.582
 110415219.615 8  86037909.73946  21011299.648                    21011307.168
 115394970.446 7  89918240.462 7  21958932.758                    21958940.020
 119714042.665 7  93283750.951 7  22780809.234                    22780818.875
 11  8 14  0 24 30.0000000  0  8G09G17G04G02G30G10G12G05
 121352391.182 7  94560379.90244  23092603.102                    23092613.648
 119663647.037 7  93244428.503 7  22771229.125                    22771236.371
 110932251.803 8  86440817.13146  21109685.617                    21109693.281
 108543160.178 8  84579212.87846  20655056.383                    20655061.895
 126162271.122 6  98308341.35243  24007891.234                    24007901.129
 110387977.687 8  86016682.29846  21006115.250                    21006122.992
 115319772.887 7  89859644.985 7  21944622.430                    21944629.922
 119613668.692 7  93205537.605 7  22761709.063                    22761718.688
 11  8 14  0 25  0.0000000  0  8G09G17G04G02G30G10G12G05
 121421876.526 7  94614524.25244  23105825.977                    23105836.441
 119710924.444 7  93281267.989 7  22780225.445                    22780233.387
 111001330.449 8  86494644.64346  21122830.531                    21122838.344
 108529862.626 8  84568851.15846  20652525.766                    20652531.543
 126058806.001 6  98227719.27543  23988201.883                    23988212.648
 110361328.202 8  85995916.50946  21001043.391                    21001051.645
 115244904.409 8  89801305.942 7  21930375.531                    21930382.863
 119513471.762 7  93127462.225 7  22742642.578                    22742651.590
 11  8 14  0 25 30.0000000  0  8G09G17G04G02G30G10G12G05
 121491663.711 7  94668903.81944  23119105.789                    23119116.168
 119758333.651 7  93318210.213 7  22789247.047                    22789255.223
 111070638.344 8  86548650.78646  21136019.453                    21136027.352
 108516897.284 8  84558748.30446  20650058.891                    20650063.836
 125955535.160 6  98147248.58343  23968550.953                    23968561.012
 110335272.064 8  85975613.05446  20996085.734                    20996093.500
 115170366.862 7  89743224.755 7  21916191.656                    21916199.496
 119413454.600 7  93049526.914 7  22723609.391                    22723618.496
 11  8 14  0 26  0.0000000  0  8G09G17G04G02G30G10G12G05
 121561750.244 7  94723516.63244  23132442.781                    23132453.109
 119805875.828 7  93355256.026 7  22798293.484                    22798302.324
 111140174.085 8  86602834.47546  21149251.438                    21149258.883
 108504264.519 8  84548904.59646  20647654.719                    20647660.180
 125852462.300 6  98066932.18643  23948936.617                    23948946.848
 110309811.887 8  85955773.98446  20991240.813                    20991248.859
 115096163.857 7  89685404.257 7  21902071.602                    21902078.586
 119313620.706 7  92971734.406 7  22704611.852                    22704620.535
 11  8 14  0 26 30.0000000  0  8G09G17G04G02G30G10G12G05
 121632133.102 7  94778360.35344  23145836.539                    23145846.805
 119853551.938 7  93392406.191 7  22807366.344                    22807374.305
 111209935.669 8  86657194.13946  21162527.086                    21162534.609
 108491963.807 8  84539319.64646  20645314.055                    20645319.516
 125749590.607 6  97986772.46943  23929360.453                    23929370.551
 110284949.512 8  85936400.71846  20986510.008                    20986517.648
 115022297.835 7  89627846.349 7  21888014.539                    21888022.480
 119213973.031 7  92894087.008 7  22685649.047                    22685658.527
 11  8 14  0 27  0.0000000  0  8G09G17G04G02G30G10G12G05
 121702808.870 7  94833432.31444  23159285.516                    23159295.766
 119901362.427 7  93429661.078 7  22816464.750                    22816472.809
 111279920.496 8  86711727.77046  21175844.664                    21175852.242
 108479994.153 8  84529992.64546  20643036.094                    20643041.500
 125646922.558 6  97906771.42343  23909823.688                    23909833.293
 110260685.819 8  85917493.98846  20981892.445                    20981899.926
 114948771.287 7  89570552.957 7  21874023.352                    21874030.797
 119114514.560 7  92816587.052 7  22666722.578                    22666732.098
 11  8 14  0 27 30.0000000  0  8G09G17G04G02G30G10G12G05
 121773773.467 7  94888729.35844  23172789.258                    23172800.039
 119949307.186 7  93467020.583 7  22825588.047                    22825596.602
 111350125.827 8  86766433.22346  21189204.289                    21189211.777
 108468353.665 8  84520922.13646  20640821.141                    20640826.195
 125544460.390 6  97826930.82643  23890325.750                    23890335.180
 110237021.615 8  85899054.37846  20977389.383                    20977397.180
 114875586.465 7  89513525.844 7  21860097.094                    21860104.113
 119015248.001 7  92739236.630 7  22647832.797                    22647842.066
 11  8 14  0 28  0.0000000  0  8G09G17G04G02G30G10G12G05
 121845023.903 7  94944249.12244  23186348.211                    23186359.078
 119997387.179 7  93504485.453 7  22834737.703                    22834745.977
 111420549.779 8  86821309.03245  21202605.414                    21202612.973
 108457041.790 8  84512107.68146  20638668.234                    20638673.746
 125442207.142 7  97747253.02043  23870867.438                    23870877.594
 110213958.446 8  85881083.10346  20973000.625                    20973008.594
 114802745.731 7  89456766.849 7  21846235.180                    21846242.793
 118916176.425 7  92662038.135 7  22628980.172                    22628989.043
 11  8 14  0 28 30.0000000  0  8G09G17G04G02G30G10G12G05
 121916556.367 7  94999988.64044  23199960.563                    23199970.746
 120045603.302 7  93542056.399 7  22843912.828                    22843921.262
 111491189.657 8  86876353.08546  21216047.758                    21216055.664
 108446057.518 8  84503548.50646  20636578.180                    20636583.711
 125340165.526 6  97667740.11343  23851449.156                    23851459.277
 110191497.606 7  85863581.19346  20968726.156                    20968734.195
 114730251.318 7  89400277.722 7  21832440.375                    21832447.906
 118817302.873 7  92584993.962 7  22610164.609                    22610174.363
 11  8 14  0 29  0.0000000  0  8G09G17G04G02G30G10G12G05
 121988367.948 7  95055945.64444  23213625.703                    23213636.363
 120093956.137 7  93579733.883 7  22853114.484                    22853122.516
 111562043.861 8  86931564.16345  21229530.547                    21229538.656
 108435400.754 8  84495244.52746  20634550.023                    20634555.715
 125238338.814 6  97588394.69743  23832072.398                    23832082.582
 110169640.736 7  85846549.88446  20964567.234                    20964575.113
 114658106.935 7  89344061.339 7  21818711.742                    21818719.070
 118718630.658 7  92508106.666 7  22591388.203                    22591397.273
 11  8 14  0 29 30.0000000  0  8G09G17G04G02G30G10G12G05
 122060454.943 7  95112117.26344  23227343.609                    23227353.996
 120142446.208 7  93617518.299 6  22862341.500                    22862349.523
 111633110.172 8  86986940.50646  21243054.375                    21243061.699
 108425070.010 8  84487194.60146  20632584.328                    20632589.965
 125136729.670 6  97509218.78244  23812736.859                    23812746.090
 110148389.168 8  85829990.24446  20960522.945                    20960531.000
 114586314.842 7  89288119.466 7  21805050.117                    21805057.734
 118620162.281 7  92431378.204 7  22572650.234                    22572659.203
 11  8 14  0 30  0.0000000  0  8G09G17G04G02G30G10G12G05
 122132814.331 7  95168501.13944  23241113.555                    23241124.039
 120191074.229 7  93655410.233 7  22871594.969                    22871602.684
 111704386.134 8  87042480.22746  21256617.484                    21256625.551
 108415064.691 8  84479398.24246  20630680.734                    20630686.238
 125035340.936 6  97430214.63443  23793443.742                    23793452.879
 110127744.212 8  85813903.27746  20956594.547                    20956602.691
 114514877.276 7  89232453.847 7  21791456.172                    21791463.250
 118521901.250 7  92354811.307 7  22553951.688                    22553960.652
 11  8 14  0 30 30.0000000  0  8G09G17G04G02G30G10G12G05
 122205442.728 7  95225094.63044  23254934.453                    23254944.992
 120239840.664 7  93693409.992 7  22880874.625                    22880883.031
 111775869.578 8  87098181.61445  21270220.648                    21270228.184
 108405383.790 8  84471854.68546  20628838.297                    20628843.891
 124934175.242 6  97351384.29443  23774191.563                    23774201.539
 110107706.678 8  85798289.63646  20952781.602                    20952789.375
 114443796.831 7  89177066.499 7  21777929.781                    21777936.910
 118423849.965 7  92278407.845 7  22535292.945                    22535301.719
 11  8 14  0 31  0.0000000  0  9G09G17G04G02G30G25G10G12G05
 122278336.160 7  95281894.63844  23268805.070                    23268815.695
 120288745.676 7  93731517.748 7  22890181.516                    22890189.723
 111847557.547 8  87154042.36245  21283862.172                    21283870.348
 108396025.483 8  84464562.50346  20627057.414                    20627063.188
 124833234.871 6  97272729.55443  23754983.203                    23754993.254
 129599238.17616 100986459.77016  24661919.242                    24661931.168
 110088277.325 8  85783149.89546  20949084.219                    20949092.172
 114373075.368 8  89121958.889 7  21764472.234                    21764479.383
 118326011.076 7  92202169.876 7  22516674.008                    22516683.625
 11  8 14  0 31 30.0000000  0  9G09G17G04G02G30G25G10G12G05
 122351491.057 7  95338898.38444  23282726.289                    23282736.922
 120337789.700 7  93769733.823 6  22899513.852                    22899522.367
 111919447.817 8  87210060.74545  21297542.461                    21297550.578
 108386988.942 8  84457521.04546  20625338.234                    20625343.109
 124732522.589 6  97194252.52443  23735817.977                    23735828.336
 129495935.886 6 100905964.637 6  24642261.234                    24642273.113
 110069457.152 8  85768484.85046  20945502.789                    20945510.750
 114302715.435 7  89067132.984 7  21751082.906                    21751090.023
 118228387.761 7  92126099.891 7  22498097.273                    22498106.070
 11  8 14  0 32  0.0000000  0  9G09G17G04G02G30G25G10G12G05
 122424904.459 7  95396103.54644  23296696.773                    23296707.430
 120386973.665 7  93808058.927 7  22908873.750                    22908882.047
 111991538.696 8  87266235.44846  21311260.813                    21311268.605
 108378273.991 8  84450730.18746  20623679.445                    20623685.168
 124632041.848 6  97115955.90143  23716697.648                    23716707.461
 129392738.136 6 100825550.934 6  24622622.313                    24622635.719
 110051248.121 8  85754296.01746  20942037.617                    20942045.465
 114232720.098 7  89012591.198 7  21737763.188                    21737770.645
 118130983.476 7  92050200.563 7  22479561.961                    22479570.445
 11  8 14  0 32 30.0000000  0  9G09G17G04G02G30G25G10G12G05
 122498572.936 7  95453507.47844  23310715.250                    23310726.098
 120436298.545 7  93846493.854 7  22918259.984                    22918268.082
 112063828.236 8  87322564.94446  21325017.234                    21325025.508
 108369879.229 8  84444188.81746  20622081.969                    20622087.535
 124531795.563 6  97037841.97143  23697621.492                    23697630.684
 129289647.456 6 100745220.669 6  24603005.641                    24603017.230
 110033651.057 8  85740584.03346  20938689.352                    20938697.063
 114163092.147 7  88958335.684 7  21724513.469                    21724520.926
 118033801.068 7  91974474.114 7  22461068.023                    22461077.742
 11  8 14  0 33  0.0000000  0  9G09G17G04G02G30G25G10G12G05
 122572493.285 7  95511107.67844  23324781.617                    23324792.930
 120485765.087 7  93885039.185 6  22927673.422                    22927681.410
 112136314.241 8  87379047.53245  21338811.219                    21338819.250
 108361804.268 8  84437896.65446  20620545.648                    20620550.727
 124431786.630 6  96959912.97143  23678590.109                    23678599.355
 129186666.389 6 100664975.858 6  24583408.086                    24583420.578
 110016667.289 8  85727349.95946  20935456.758                    20935464.711
 114093834.350 7  88904368.604 7  21711333.883                    21711341.066
 117936843.600 7  91898922.952 7  22442617.922                    22442627.125
 11  8 14  0 33 30.0000000  0  9G09G17G04G02G30G25G10G12G05
 122646662.266 6  95568901.61344  23338895.469                    23338906.078
 120535373.850 7  93923695.306 7  22937113.328                    22937121.598
 112208994.466 8  87435681.45645  21352641.547                    21352649.383
 108354048.182 8  84431852.97446  20619069.539                    20619075.113
 124332017.872 6  96882171.12343  23659604.813                    23659614.422
 129083797.457 6 100584818.387 7  24563833.016                    24563845.254
 110000298.131 8  85714594.77846  20932342.367                    20932349.742
 114024948.796 7  88850691.587 7  21698225.750                    21698232.805
 117840114.402 7  91823549.661 7  22424211.117                    22424219.793
 11  8 14  0 34  0.0000000  0  9G09G17G04G02G30G25G10G12G05
 122721076.511 7  95626886.63544  23353055.930                    23353066.938
 120585125.479 7  93962462.795 7  22946580.359                    22946589.473
 112281866.940 8  87492465.18645  21366508.609                    21366516.797
 108346609.718 8  84426056.79346  20617653.773                    20617659.434
 124232492.246 6  96804618.74243  23640665.594                    23640674.648
 128981042.893 6 100504750.009 6  24544279.508                    24544292.012
 109984544.641 8  85702319.34446  20929344.602                    20929352.109
 113956438.286 7  88797306.835 7  21685188.063                    21685195.563
 117743616.208 7  91748356.373 7  22405847.570                    22405856.617
 11  8 14  0 34 30.0000000  0  9G09G17G04G02G30G25G10G12G05
 122795732.203 7  95685059.79644  23367262.922                    23367273.773
 120635020.296 7  94001341.847 7  22956075.930                    22956083.883
 112354928.893 8  87549396.54745  21380412.117                    21380420.121
 108339487.527 8  84420507.05246  20616298.633                    20616303.973
 124133212.093 6  96727257.68143  23621773.773                    23621781.898
 128878405.010 7 100424772.538 7  24524748.805                    24524760.508
 109969407.206 8  85690523.95846  20926463.883                    20926471.746
 113888304.583 7  88744215.699 7  21672222.930                    21672230.523
 117647351.710 7  91673345.174 7  22387529.664                    22387538.039
 11  8 14  0 35  0.0000000  0  9G09G17G04G02G30G25G10G12G05
 122870626.148 7  95743418.60344  23381514.695                    23381525.785
 120685059.025 7  94040333.025 7  22965597.977                    22965605.855
 112428178.411 7  87606474.05545  21394350.859                    21394359.168
 108332680.886 8  84415203.21446  20615003.438                    20615008.641
 124034180.451 6  96650090.21243  23602928.258                    23602936.828
 128775886.327 7 100344887.958 6  24505239.359                    24505251.715
 109954886.725 8  85679209.32946  20923700.938                    20923708.223
 113820550.419 7  88691420.311 7  21659330.180                    21659336.848
 117551323.810 7  91598518.347 7  22369255.695                    22369264.363
 11  8 14  0 35 30.0000000  0  9G09G17G04G02G30G25G10G12G05
 122945755.023 6  95801960.46844  23395811.156                    23395822.191
 120735242.324 7  94079436.866 7  22975147.336                    22975155.641
 112501613.686 7  87663696.31145  21408324.672                    21408332.961
 108326189.232 8  84410144.80946  20613768.273                    20613773.270
 123935400.430 6  96573118.85343  23584131.359                    23584140.148
 128673489.702 7 100265098.457 6  24485754.086                    24485765.852
 109940985.022 8  85668376.86346  20921055.313                    20921063.094
 113753178.899 7  88638923.078 7  21646509.305                    21646516.449
 117455536.158 7  91523878.734 7  22351027.906                    22351036.875
 11  8 14  0 36  0.0000000  0  9G09G17G04G02G30G25G10G12G05
 123021115.479 7  95860682.78044  23410151.813                    23410163.297
 120785570.814 7  94118653.859 7  22984724.242                    22984733.309
 112575232.439 8  87721061.54545  21422334.383                    21422342.348
 108320011.614 8  84405331.10946  20612592.781                    20612597.828
 123836874.918 6  96496345.77943  23565382.320                    23565390.965
 128571217.637 6 100185406.007 6  24466292.086                    24466304.277
 109927702.606 8  85658026.95246  20918527.219                    20918535.320
 113686192.189 7  88586725.704 7  21633761.758                    21633769.273
 117359991.729 7  91449428.631 7  22332846.117                    22332855.320
 11  8 14  0 36 30.0000000  0  9G09G17G04G02G30G25G10G12G05
 123096703.998 7  95919582.78644  23424536.516                    23424547.477
 120836044.795 7  94157984.190 7  22994329.914                    22994337.805
 112649032.219 8  87778567.82545  21436378.273                    21436386.012
 108314146.422 8  84400760.85446  20611476.422                    20611481.594
 123738606.375 6  96419772.96943  23546682.102                    23546691.426
 128469072.327 7 100105812.307 6  24446854.555                    24446866.813
 109915039.854 8  85648159.88146  20916118.023                    20916125.914
 113619592.605 8  88534829.987 7  21621088.281                    21621095.766
 117264692.865 7  91375169.897 7  22314711.359                    22314720.203
 11  8 14  0 37  0.0000000  0  9G09G17G04G02G30G25G10G12G05
 123172517.059 6  95978657.75444  23438963.141                    23438973.898
 120886664.957 7  94197428.456 7  23003962.797                    23003970.480
 112723011.035 8  87836213.60745  21450455.820                    21450464.289
 108308592.894 8  84396433.46446  20610419.688                    20610425.168
 123640597.879 6  96343402.80943  23528031.594                    23528041.270
 128367056.465 6 100026319.483 6  24427441.852                    24427453.727
 109902997.847 8  85638776.52346  20913826.375                    20913834.270
 113553382.543 8  88483237.791 7  21608489.516                    21608496.160
 117169642.824 7  91301105.030 7  22296623.617                    22296633.027
 11  8 14  0 37 30.0000000  0  9G09G17G04G02G30G25G10G12G05
 123248551.225 6  96037905.04444  23453431.656                    23453443.047
 120937432.015 7  94236987.188 6  23013622.609                    23013630.707
 112797166.745 8  87893997.23845  21464566.969                    21464575.121
 108303349.877 8  84392348.02046  20609421.656                    20609427.043
 123542852.166 6  96267237.42444  23509431.070                    23509441.004
 128265172.608 6  99946929.502 6  24408053.734                    24408066.125
 109891577.323 8  85629877.41946  20911653.289                    20911660.645
 113487564.583 8  88431951.123 7  21595964.273                    21595971.449
 117074844.156 7  91227236.039 7  22278583.984                    22278592.859
 11  8 14  0 38  0.0000000  0  9G09G17G04G02G30G25G10G12G05
 123324803.106 7  96097321.95843  23467942.000                    23467953.375
 120988346.293 7  94276660.644 6  23023311.422                    23023319.543
 112871497.193 8  87951917.01345  21478712.102                    21478719.785
 108298416.240 8  84388503.64946  20608482.969                    20608488.543
 123445371.927 6  96191278.91644  23490880.727                    23490890.754
 128163423.057 6  99867644.167 6  24388691.219                    24388703.492
 109880778.945 8  85621463.11946  20909598.305                    20909605.980
 113422141.312 8  88380972.003 7  21583514.477                    21583521.484
 116980300.167 7  91153565.513 7  22260593.047                    22260601.594
 11  8 14  0 38 30.0000000  0  9G09G17G04G02G30G25G10G12G05
 123401269.016 7  96156905.66644  23482493.305                    23482504.559
 121039408.602 7  94316449.447 6  23033028.633                    23033036.082
 112946000.048 8  88009971.14545  21492888.961                    21492897.234
 108293790.883 8  84384899.50546  20607602.781                    20607608.043
 123348159.878 6  96115529.39444  23472382.344                    23472391.652
 128061810.344 6  99788465.449 6  24369355.094                    24369367.090
 109870603.852 8  85613534.48946  20907662.164                    20907670.121
 113357114.732 8  88330301.983 7  21571140.539                    21571147.355
 116886013.801 7  91080095.735 7  22242650.938                    22242659.805
 11  8 14  0 39  0.0000000  0  9G09G17G04G02G30G25G10G12G05
 123477945.639 6  96216653.56544  23497084.414                    23497095.391
 121090619.417 7  94356353.965 6  23042773.359                    23042781.531
 113020673.135 8  88068157.92645  21507098.953                    21507107.223
 108289472.791 8  84381534.78046  20606780.688                    20606786.297
 123251218.917 6  96039991.09144  23453935.688                    23453944.313
 127960337.041 6  99709395.366 6  24350045.719                    24350056.816
 109861052.279 8  85606091.72246  20905844.422                    20905852.539
 113292487.303 8  88279942.975 7  21558842.008                    21558849.473
 116791987.417 7  91006828.525 7  22224758.477                    22224767.051
 11  8 14  0 39 30.0000000  0  9G09G17G04G02G30G25G10G12G05
 123554829.748 7  96276563.11243  23511715.148                    23511726.324
 121141979.493 7  94396374.765 6  23052546.922                    23052554.625
 113095514.644 8  88126475.93645  21521341.227                    21521348.938
 108285461.449 8  84378409.07146  20606017.336                    20606022.770
 123154552.315 6  95964666.58044  23435540.133                    23435548.832
 127859005.937 6  99630436.067 6  24330762.227                    24330774.113
 109852125.453 8  85599135.76946  20904145.391                    20904153.523
 113228261.741 8  88229897.104 7  21546620.195                    21546627.648
 116698224.626 7  90933766.716 7  22206915.813                    22206924.059
 11  8 14  0 40  0.0000000  0  9G09G17G04G02G30G25G10G12G05
 123631918.255 6  96336631.95344  23526384.719                    23526396.230
 121193489.187 7  94436512.154 6  23062348.844                    23062356.395
 113170522.686 8  88184923.72145  21535614.617                    21535622.961
 108281755.898 8  84375521.64746  20605312.719                    20605318.297
 123058162.873 6  95889558.02644  23417197.781                    23417206.879
 127757819.712 6  99551589.697 6  24311507.781                    24311519.055
 109843824.078 8  85592667.18346  20902565.984                    20902574.141
 113164440.636 8  88180166.400 7  21534475.570                    21534482.691
 116604728.519 7  90860912.719 7  22189124.094                    22189132.527
 11  8 14  0 40 30.0000000  0  9G09G17G04G02G30G25G10G12G05
 123709207.274 7  96396857.02744  23541092.578                    23541103.527
 121245148.921 7  94476766.463 6  23072180.102                    23072187.355
 113245694.692 8  88243499.25645  21549919.313                    21549927.680
 108278354.208 8  84372871.00046  20604665.039                    20604670.535
 122962052.989 6  95814667.32744  23398908.125                    23398918.137
 127656780.432 6  99472857.855 6  24292279.977                    24292292.480
 109836148.326 8  85586686.09246  20901105.125                    20901113.023
 113101026.039 8  88130752.432 7  21522408.305                    21522415.551
 116511501.689 7  90788268.544 7  22171383.555                    22171391.762
 11  8 14  0 41  0.0000000  0  9G09G17G04G02G30G25G10G12G05
 123786693.446 7  96457235.75644  23555837.469                    23555848.418
 121296959.384 7  94517138.196 6  23082038.523                    23082046.313
 113321028.737 8  88302201.07445  21564255.383                    21564263.078
 108275255.613 8  84370456.51546  20604075.492                    20604081.105
 122866225.835 6  95739996.94343  23380672.273                    23380682.383
 127555890.797 6  99394242.626 6  24273081.133                    24273093.863
 109829099.022 7  85581193.14146  20899763.883                    20899771.191
 113038020.392 7  88081657.135 7  21510418.484                    21510425.691
 116418547.038 7  90715836.440 7  22153694.758                    22153703.039
 11  8 14  0 41 30.0000000  0  9G09G17G04G02G30G25G10G12G05
 123864373.446 7  96517765.50544  23570619.648                    23570631.125
 121348921.186 7  94557627.880 6  23091926.531                    23091934.301
 113396522.825 8  88361027.60345  21578620.836                    21578629.082
 108272459.226 8  84368277.52946  20603543.539                    20603548.527
 122770683.989 6  95665548.82544  23362491.898                    23362501.055
 127455153.393 6  99315746.039 6  24253911.539                    24253924.016
 109822676.430 8  85576188.54146  20898541.719                    20898549.316
 112975426.106 7  88032882.368 7  21498507.375                    21498514.695
 116325867.605 7  90643618.811 7  22136058.063                    22136066.832
 11  8 14  0 42  0.0000000  0  9G09G17G04G02G30G25G10G12G05
 123942243.855 7  96578443.64643  23585438.375                    23585448.977
 121401034.986 7  94598235.984 6  23101843.266                    23101850.980
 113472174.722 8  88419977.10445  21593017.609                    21593025.691
 108269964.079 8  84366333.26646  20603068.859                    20603073.820
 122675430.511 6  95591325.40944  23344365.945                    23344375.211
 127354570.989 6  99237370.219 6  24234771.117                    24234783.453
 109816881.592 7  85571673.09446  20897439.188                    20897446.133
 112913245.524 8  87984429.954 7  21486675.008                    21486681.992
 116233466.219 7  90571617.833 7  22118474.648                    22118483.547
 11  8 14  0 42 30.0000000  0  9G09G17G04G02G30G25G10G12G05
 124020301.035 7  96639267.30844  23600291.867                    23600303.262
 121453301.375 6  94638962.978 6  23111789.203                    23111797.285
 113547982.508 8  88479048.08445  21607442.852                    21607451.020
 108267768.759 8  84364622.64046  20602650.547                    20602655.980
 122580468.107 6  95517328.82444  23326295.195                    23326304.211
 127254145.898 7  99159116.973 6  24215661.242                    24215672.988
 109811714.689 7  85567646.96346  20896455.461                    20896463.301
 112851481.405 8  87936302.056 7  21474921.695                    21474928.711
 116141345.981 7  90499835.940 7  22100944.461                    22100952.926
 11  8 14  0 43  0.0000000  0  9G09G17G04G02G30G25G10G12G05
 124098541.883 7  96700234.08943  23615180.961                    23615192.207
 121505720.841 7  94679809.227 6  23121764.422                    23121772.477
 113623944.334 8  88538239.10845  21621897.891                    21621906.309
 108265872.691 8  84363145.18146  20602289.625                    20602295.262
 122485799.940 6  95443561.49543  23308279.609                    23308289.344
 127153881.026 7  99080988.573 6  24196581.492                    24196593.059
 109807176.554 7  85564110.76246  20895592.008                    20895599.699
 112790135.911 7  87888500.363 7  21463248.031                    21463254.973
 116049509.630 7  90428275.238 7  22083468.781                    22083476.992
 11  8 14  0 43 30.0000000  0  9G09G17G04G02G30G25G10G12G05
 124176962.689 6  96761341.10544  23630103.547                    23630115.332
 121558293.899 7  94720775.184 6  23131769.070                    23131777.215
 113700057.840 7  88597548.32245  21636381.953                    21636389.715
 108264274.267 8  84361899.66546  20601985.742                    20601991.145
 122391428.491 6  95370025.38643  23290321.930                    23290329.523
 127053778.583 7  99002986.749 6  24177533.070                    24177544.414
 109803267.286 8  85561064.59246  20894848.141                    20894856.027
 112729210.981 7  87841026.388 7  21451654.242                    21451661.684
 115957960.023 7  90356937.987 7  22066047.109                    22066055.469
 11  8 14  0 44  0.0000000  0  9G09G17G04G02G30G25G10G12G05
 124255560.046 7  96822585.68844  23645060.578                    23645071.770
 121611021.122 7  94761861.287 6  23141802.500                    23141810.965
 113776321.130 8  88656974.25045  21650894.672                    21650902.441
 108262972.602 8  84360885.38946  20601738.055                    20601743.457
 122297356.790 6  95296722.80744  23272420.781                    23272429.250
 126953841.365 7  98925113.709 6  24158515.695                    24158527.465
 109799987.448 8  85558508.90746  20894223.695                    20894231.523
 112668709.438 7  87793882.318 7  21440141.578                    21440148.227
 115866700.164 7  90285826.512 7  22048680.633                    22048689.492
 11  8 14  0 44 30.0000000  0  9G09G17G04G02G30G25G10G12G05
 124334330.765 6  96883965.34244  23660049.883                    23660061.484
 121663902.986 7  94803067.874 6  23151865.297                    23151874.672
 113852731.998 7  88716515.16245  21665435.375                    21665443.301
 108261966.615 8  84360101.50346  20601546.680                    20601552.063
 122203587.613 6  95223655.98644  23254576.672                    23254585.828
 126854071.945 6  98847371.414 6  24139529.500                    24139541.566
 109797337.630 7  85556444.12646  20893719.570                    20893727.797
 112608633.431 7  87747069.828 7  21428709.352                    21428716.223
 115775732.779 7  90214942.934 7  22031370.281                    22031378.531
 11  8 14  0 45  0.0000000  0  9G09G17G04G02G30G25G10G12G05
 124413270.701 6  96945476.86644  23675072.352                    23675083.379
 121716939.586 7  94844395.050 6  23161958.289                    23161966.109
 113929287.837 7  88776169.06145  21680003.070                    21680011.297
 108261254.288 8  84359546.44546  20601410.961                    20601416.340
 122110123.057 6  95150826.55743  23236790.922                    23236799.422
 126754472.164 7  98769761.308 6  24120575.789                    24120587.641
 109795317.382 7  85554869.92046  20893335.438                    20893343.203
 112548984.638 7  87700590.251 7  21417358.594                    21417365.363
 115685060.409 7  90144289.224 7  22014116.023                    22014124.125
 11  8 14  0 45 30.0000000  0  9G09G17G04G02G30G25G10G12G05
 124492377.370 7  97007118.31844  23690125.125                    23690136.988
 121770131.994 7  94885843.637 6  23172080.289                    23172088.582
 114005987.354 8  88835934.90645  21694598.734                    21694606.805
 108260835.483 8  84359220.10246  20601331.664                    20601336.781
 122016966.806 6  95078237.35643  23219063.164                    23219072.805
 126655045.458 7  98692286.035 6  24101655.367                    24101667.242
 109793927.577 7  85553786.97346  20893070.750                    20893078.285
 112489766.124 7  87654445.959 7  21406089.578                    21406096.965
 115594686.640 7  90073868.198 7  21996918.328                    21996926.891
 11  8 14  0 46  0.0000000  0  9G09G17G04G02G30G25G10G12G05
 124571647.246 7  97068886.93844  23705210.125                    23705221.895
 121823480.984 7  94927414.228 6  23182232.391                    23182241.258
 114082828.568 8  88895811.17845  21709220.727                    21709229.105
 108260709.284 8  84359121.77646  20601307.289                    20601312.629
 121924121.704 6  95005890.62743  23201396.016                    23201404.641
 126555794.403 6  98614947.656 6  24082768.602                    24082780.523
 109793168.689 8  85553195.65046  20892926.539                    20892934.629
 112430980.322 7  87608638.853 7  21394902.891                    21394910.180
 115504614.204 7  90003681.981 7  21979778.406                    21979786.449
 11  8 14  0 46 30.0000000  0  9G09G17G04G02G30G25G10G12G05
 124651076.997 6  97130780.15144  23720325.047                    23720337.434
 121876987.030 7  94969107.174 6  23192415.586                    23192422.941
 114159809.629 8  88955796.43545  21723870.313                    21723877.949
 108260874.368 8  84359250.41446  20601338.789                    20601343.906
 121831590.515 6  94933788.48143  23183787.758                    23183796.336
 126456721.547 6  98537748.169 6  24063915.844                    24063927.270
 109793041.081 7  85553096.25746  20892902.266                    20892909.773
 112372629.510 7  87563170.701 7  21383798.859                    21383806.168
 115414846.106 7  89933732.898 7  21962695.609                    21962704.117
 11  8 14  0 47  0.0000000  0  9G09G17G04G02G30G25G10G12G05
 124730663.010 7  97192795.11144  23735470.508                    23735481.770
 121930650.641 7  95010922.962 7  23202626.953                    23202634.574
 114236928.447 8  89015889.02045  21738545.484                    21738553.387
 108261329.760 8  84359605.28246  20601425.719                    20601431.105
 121739376.105 6  94861933.17243  23166239.797                    23166248.398
 126357829.454 6  98460689.518 7  24045096.734                    24045108.848
 109793545.012 8  85553488.93246  20892997.641                    20893005.922
 112314716.009 7  87518043.313 7  21372778.578                    21372785.410
 115325385.298 7  89864023.269 7  21945672.164                    21945680.281
 11  8 14  0 47 30.0000000  0  9G09G17G04G02G30G25G10G12G05
 124810402.054 7  97254929.33544  23750644.242                    23750655.605
 121984472.234 7  95052861.835 6  23212868.844                    23212876.871
 114314182.831 8  89076087.25045  21753246.375                    21753254.004
 108262074.304 8  84360185.45846  20601567.047                    20601572.195
 121647481.366 6  94790326.96444  23148752.695                    23148761.617
 126259120.933 7  98383773.875 6  24026313.406                    24026325.305
 109794680.396 7  85554373.67346  20893214.266                    20893222.004
 112257242.040 7  87473258.420 7  21361841.352                    21361848.555
 115236234.470 7  89794555.184 7  21928706.719                    21928715.520
 11  8 14  0 48  0.0000000  0  9G09G17G04G02G30G25G10G12G05
 124890290.646 6  97317180.07044  23765846.453                    23765858.133
 122038452.471 7  95094924.331 6  23223140.742                    23223148.867
 114391570.997 8  89136389.71045  21767972.781                    21767980.836
 108263106.719 8  84360989.95646  20601763.453                    20601769.043
 121555908.979 6  94718971.91644  23131327.734                    23131335.766
 126160598.453 6  98307003.213 6  24007564.828                    24007576.840
 109796447.725 7  85555750.82446  20893550.234                    20893558.188
 112200209.804 7  87428817.730 7  21350988.695                    21350995.879
 115147396.228 7  89725330.672 7  21911801.461                    21911809.859
 11  8 14  0 48 30.0000000  0  9G09G17G04G02G30G25G10G12G05
 124970325.389 7  97379544.70643  23781076.688                    23781088.270
 122092591.684 7  95137110.739 6  23233442.945                    23233451.262
 114469090.913 8  89196794.84645  21782724.227                    21782732.152
 108264425.806 8  84362017.84046  20602014.484                    20602019.730
 121464661.796 6  94647870.28144  23113963.297                    23113972.266
 126062264.698 7  98230379.579 6  23988852.570                    23988864.344
 109798847.145 8  85557620.52746  20894006.508                    20894014.500
 112143621.427 7  87384722.913 7  21340220.148                    21340227.492
 115058873.598 7  89656352.078 7  21894956.063                    21894964.465
 11  8 14  0 49  0.0000000  0  9G09G17G04G02G30G25G10G12G05
 125050502.843 6  97442020.53444  23796334.008                    23796345.746
 122146890.501 7  95179421.492 6  23243775.500                    23243783.984
 114546740.593 8  89257301.08245  21797500.633                    21797508.418
 108266030.659 8  84363268.38846  20602319.852                    20602324.945
 121373742.655 6  94577024.25644  23096661.602                    23096670.785
 125964122.246 7  98153905.030 6  23970176.625                    23970188.160
 109801878.826 8  85559982.90546  20894583.914                    20894591.695
 112087479.184 7  87340975.726 7  21329536.359                    21329544.293
 114970669.764 7  89587621.916 7  21878171.609                    21878179.895
 11  8 14  0 49 30.0000000  0  9G09G17G04G02G30G25G10G12G05
 125130819.403 6  97504604.79444  23811617.797                    23811629.797
 122201349.662 7  95221857.206 6  23254138.664                    23254147.695
 114624517.938 7  89317906.79345  21812300.875                    21812308.566
 108267919.818 8  84364740.48446  20602679.609                    20602684.801
 121283154.124 6  94506435.83044  23079423.648                    23079431.984
 125866173.487 7  98077581.399 6  23951537.703                    23951549.680
 109805542.173 8  85562837.47846  20895280.781                    20895288.422
 112031785.188 7  87297577.830 7  21318938.172                    21318945.957
 114882786.852 7  89519141.816 7  21861447.477                    21861456.039
 11  8 14  0 50  0.0000000  0  9G09G17G04G02G30G25G10G12G05
 125211272.262 7  97567295.21844  23826928.117                    23826939.746
 122255969.202 7  95264417.887 6  23264533.023                    23264541.332
 114702421.371 8  89378610.76445  21827125.492                    21827133.098
 108270092.608 8  84366433.58746  20603092.859                    20603097.855
 121192899.470 7  94436107.55844  23062248.961                    23062257.160
 125768421.568 7  98001411.167 6  23932936.469                    23932947.813
 109809837.891 8  85566184.82846  20896098.148                    20896106.047
 111976542.015 7  87254531.217 7  21308425.734                    21308433.082
 114795228.300 7  89450914.462 7  21844785.477                    21844794.020
 11  8 14  0 50 30.0000000  0  9G09G17G04G02G30G25G10G12G05
 125291857.598 7  97630088.90344  23842262.031                    23842274.293
 122310749.871 7  95307104.135 6  23274957.180                    23274965.348
 114780448.651 8  89439411.24245  21841973.648                    21841981.594
 108272547.309 8  84368346.35346  20603560.234                    20603565.234
 121102981.158 6  94366041.35844  23045137.844                    23045146.309
 125670868.689 7  97925396.043 6  23914371.977                    23914384.223
 109814765.651 7  85570024.65846  20897035.594                    20897043.824
 111921752.011 8  87211837.729 7  21297999.570                    21298006.676
 114707996.814 7  89382941.949 7  21828186.422                    21828194.211
 11  8 14  0 51  0.0000000  0  9G09G17G04G02G30G25G10G12G05
 125372572.245 6  97692983.30644  23857622.156                    23857633.973
 122365692.268 7  95349916.362 6  23285412.055                    23285420.715
 114858598.017 7  89500306.84345  21856844.938                    21856852.672
 108275283.150 8  84370478.19246  20604080.492                    20604085.629
 121013402.235 6  94296239.63544  23028091.320                    23028100.141
 125573517.799 7  97849538.294 6  23895846.758                    23895858.223
 109820325.938 8  85574357.37646  20898094.188                    20898101.840
 111867416.903 8  87169498.704 7  21287660.102                    21287667.324
 114621095.138 7  89315226.440 7  21811649.375                    21811657.813
 11  8 14  0 51 30.0000000  0  9G09G17G04G02G30G25G10G12G05
 125453412.720 7  97755975.77244  23873005.711                    23873017.164
 122420796.804 7  95392854.927 6  23295898.266                    23295906.770
 114936867.614 8  89561296.11845  21871739.398                    21871747.250
 108278298.912 7  84372828.15246  20604654.211                    20604659.574
 120924165.465 6  94226704.52944  23011109.930                    23011118.469
 125476371.421 7  97773839.947 6  23877360.258                    23877371.805
 109826518.592 7  85579182.84346  20899272.523                    20899280.063
 111813538.980 8  87127515.914 7  21277407.500                    21277415.035
 114534526.146 7  89247770.165 7  21795175.594                    21795183.789
 11  8 14  0 52  0.0000000  0  9G09G17G04G02G30G25G10G12G05
 125534375.607 6  97819063.63743  23888411.844                    23888423.840
 122476063.957 7  95435920.260 6  23306415.953                    23306423.621
 115015255.315 8  89622377.42845  21886655.781                    21886663.867
 108281593.225 8  84375395.16946  20605281.336                    20605286.570
 120835273.628 7  94157438.20044  22994194.867                    22994203.340
 125379432.165 7  97698302.965 6  23858913.703                    23858924.953
 109833343.537 8  85584501.00846  20900571.422                    20900578.754
 111760120.420 8  87085891.071 7  21267242.273                    21267249.449
 114448292.566 7  89180575.230 7  21778766.336                    21778773.809
 11  8 14  0 52 30.0000000  0  9G09G17G04G02G30G25G10G12G05
 125615457.695 6  97882244.37143  23903841.773                    23903853.629
 122531494.431 7  95479112.837 6  23316963.539                    23316971.496
 115093759.535 7  89683549.52145  21901594.852                    21901602.832
 108285165.423 8  84378178.70446  20605961.164                    20605966.512
 120746729.581 7  94088442.87944  22977345.039                    22977353.891
 125282702.727 7  97622929.490 6  23840506.883                    23840517.820
 109840800.574 8  85590311.70646  20901990.102                    20901997.980
 111707163.536 8  87044625.983 7  21257165.297                    21257172.152
 114362397.112 7  89113643.786 7  21762420.633                    21762428.859
 11  8 14  0 53  0.0000000  0  9G09G17G04G02G30G25G10G12G05
 125696655.661 7  97945515.40043  23919293.547                    23919305.430
 122587088.527 7  95522432.887 6  23327541.625                    23327550.781
 115172378.395 8  89744810.94045  21916555.398                    21916563.543
 108289014.464 7  84381177.97346  20606693.594                    20606698.848
 120658536.174 6  94019720.79644  22960562.477                    22960571.082
 125186185.900 7  97547721.691 6  23822139.672                    23822150.988
 109848889.900 8  85596615.10746  20903529.531                    20903537.199
 111654670.624 8  87003722.425 7  21247175.609                    21247183.309
 114276842.875 7  89046978.213 7  21746139.828                    21746148.160
 11  8 14  0 53 30.0000000  0  9G09G17G04G02G30G25G10G12G05
 125777966.073 7  98008874.04843  23934766.289                    23934778.375
 122642846.913 7  95565880.935 6  23338153.609                    23338161.152
 115251109.794 7  89806160.06745  21931537.742                    21931545.637
 108293138.725 8  84384391.70046  20607478.219                    20607484.086
 120570696.058 7  93951273.99444  22943846.945                    22943855.711
 125089884.105 7  97472681.431 6  23803813.938                    23803825.676
 109857611.014 8  85603410.81046  20905189.297                    20905196.668
 111602643.726 8  86963181.998 7  21237275.180                    21237282.590
 114191632.447 8  88980580.542 7  21729924.875                    21729933.309
 11  8 14  0 54  0.0000000  0  9G09G17G04G02G30G25G10G12G05
 125859385.529 6  98072317.64744  23950260.133                    23950272.211
 122698769.836 7  95609457.234 6  23348795.438                    23348802.719
 115329951.957 7  89867595.48845  21946540.711                    21946549.012
 108297536.944 8  84387818.89846  20608315.297                    20608320.543
 120483211.918 7  93883104.59244  22927198.969                    22927208.145
 124993799.934 7  97397810.743 6  23785530.156                    23785541.320
 109866963.707 8  85610698.64546  20906968.906                    20906976.297
 111551084.589 8  86923006.060 7  21227464.195                    21227470.852
 114106768.640 7  88914452.971 7  21713775.844                    21713784.156
 11  8 14  0 54 30.0000000  0  9G09G17G04G02G30G25G10G12G05
 125940910.596 7  98135843.55043  23965773.523                    23965785.949
 122754858.018 7  95653162.293 6  23359468.617                    23359476.203
 115408902.974 7  89929115.74145  21961564.664                    21961572.727
 108302208.162 8  84391458.82846  20609204.008                    20609209.445
 120396086.758 6  93815214.92044  22910619.305                    22910628.137
 124897936.199 7  97323111.795 6  23767287.625                    23767299.008
 109876948.085 8  85618478.69646  20908869.070                    20908876.383
 111499995.642 8  86883196.505 7  21217742.211                    21217749.391
 114022254.094 7  88848597.557 7  21697693.492                    21697701.590
 11  8 14  0 55  0.0000000  0  9G09G17G04G02G30G25G10G12G05
 126022538.069 6  98199449.28343  23981307.141                    23981319.098
 122811111.798 7  95696996.383 6  23370173.359                    23370181.281
 115487960.934 7  89990719.32945  21976608.961                    21976616.875
 108307151.357 8  84395310.67946  20610144.703                    20610149.773
 120309323.308 7  93747607.10044  22894109.086                    22894117.770
 124802295.611 7  97248586.731 6  23749087.719                    23749099.094
 109887564.050 8  85626750.90146  20910888.914                    20910896.465
 111449378.987 8  86843754.957 7  21208110.367                    21208117.063
 113938091.686 8  88783016.524 7  21681677.539                    21681685.637
 11  8 14  0 55 30.0000000  0  9G09G17G04G02G30G25G10G12G05
 126104264.848 6  98263132.35543  23996858.883                    23996870.918
 122867531.444 7  95740959.743 6  23380909.469                    23380917.355
 115567124.325 7  90052405.05245  21991672.805                    21991681.336
 108312365.271 8  84399373.48546  20611136.734                    20611142.051
 120222924.448 6  93680283.38344  22877667.836                    22877676.258
 124706880.910 7  97174237.672 7  23730930.930                    23730942.668
 109898811.071 8  85635514.84446  20913028.844                    20913036.422
 111399236.921 8  86804683.225 7  21198568.305                    21198575.445
 113854284.327 7  88717712.160 7  21665729.742                    21665737.965
 11  8 14  0 56  0.0000000  0  9G09G17G04G02G30G25G10G12G05
 126186087.171 6  98326889.95743  24012429.281                    24012441.063
 122924117.689 7  95785052.909 6  23391677.914                    23391685.418
 115646390.885 7  90114171.17645  22006756.563                    22006765.379
 108317848.476 8  84403646.13246  20612180.555                    20612185.902
 120136892.549 7  93613245.60744  22861296.766                    22861305.355
 124611694.324 7  97100066.354 7  23712817.031                    23712828.824
 109910688.693 8  85644770.15446  20915289.289                    20915296.445
 111349570.842 8  86765982.393 7  21189117.578                    21189124.332
 113770834.363 7  88652686.286 7  21649849.617                    21649857.609
 11  8 14  0 56 30.0000000  0  9G09G17G04G02G30G25G10G12G05
 126268001.816 6  98390719.48243  24028017.617                    24028029.184
 122980871.076 7  95829276.312 6  23402477.625                    23402485.418
 115725759.003 7  90176016.44845  22021860.070                    22021868.113
 108323600.093 8  84408127.93146  20613274.508                    20613279.879
 120051230.679 7  93546496.16344  22844995.742                    22845004.109
 124516738.815 7  97026075.103 6  23694748.094                    23694759.125
 109923196.818 8  85654516.76946  20917669.742                    20917676.879
 111300383.147 8  86727654.326 7  21179757.250                    21179764.289
 113687744.807 7  88587941.246 7  21634038.328                    21634045.930
 11  8 14  0 57  0.0000000  0  9G09G17G04G02G30G25G10G12G05
 126350005.533 6  98454618.42343  24043622.164                    24043634.184
 123037792.089 7  95873630.350 6  23413309.016                    23413317.340
 115805226.845 7  90237939.41845  22036982.641                    22036990.828
 108329618.926 8  84412817.94846  20614420.438                    20614425.266
 119965941.520 7  93480037.18044  22828764.828                    22828774.238
 124422017.047 7  96952265.992 6  23676723.047                    23676734.070
 109936335.262 7  85664754.53846  20920169.453                    20920177.117
 111251676.098 7  86689700.791 7  21170488.477                    21170495.770
 113605018.399 7  88523479.176 7  21618295.648                    21618303.441
 11  8 14  0 57 30.0000000  0  9G09G17G04G02G30G25G10G12G05
 126432095.020 6  98518584.17843  24059243.406                    24059256.008
 123094880.782 7  95918115.045 7  23424172.305                    23424180.645
 115884792.707 7  90299938.74445  22052123.352                    22052131.512
 108335903.447 8  84417714.99846  20615616.281                    20615621.211
 119881027.735 7  93413870.67344  22812606.672                    22812615.617
 124327531.667 7  96878641.061 6  23658743.039                    23658754.238
 109950103.078 8  85675482.70746  20922789.219                    20922797.203
 111203451.465 8  86652123.171 7  21161311.875                    21161318.641
 113522657.771 7  88459302.126 7  21602622.703                    21602630.797
 11  8 14  0 58  0.0000000  0  9G09G17G04G02G30G25G10G12G05
 126514266.977 6  98582614.19343  24074880.266                    24074892.977
 123152138.054 7  95962731.080 6  23435067.977                    23435076.773
 115964454.707 7  90362013.02445  22067282.539                    22067291.129
 108342452.845 8  84422818.45246  20616862.133                    20616867.797
 119796492.207 7  93347998.92644  22796520.609                    22796529.129
 124233285.378 7  96805202.439 6  23640808.734                    23640819.750
 109964500.372 8  85686701.40146  20925529.250                    20925536.738
 111155711.377 8  86614923.125 7  21152226.859                    21152233.887
 113440665.418 7  88395412.058 7  21587020.148                    21587028.516
 11  8 14  0 58 30.0000000  0  9G09G17G04G02G30G25G10G12G05
 126596517.986 6  98646705.80643  24090532.484                    24090544.254
 123209564.036 6  96007478.615 6  23445995.367                    23446004.871
 116044211.062 7  90424160.81445  22082459.539                    22082467.867
 108349265.708 8  84428127.19446  20618158.742                    20618163.949
 119712337.585 7  93282423.96744  22780506.102                    22780514.598
 124139280.829 7  96731952.191 6  23622919.734                    23622931.344
 109979526.709 8  85698410.24146  20928388.406                    20928396.344
 111108457.608 8  86578102.026 7  21143234.789                    21143241.809
 113359043.954 8  88331810.977 7  21571488.227                    21571496.289
 11  8 14  0 59  0.0000000  0  9G09G17G04G02G30G25G10G12G05
 126678844.797 6  98710856.50843  24106198.359                    24106210.711
 123267159.146 6  96052357.930 6  23456955.250                    23456964.586
 116124060.048 7  90486380.79445  22097654.258                    22097662.805
 108356340.751 8  84433640.23646  20619505.211                    20619510.590
 119628566.610 7  93217147.95644  22764564.617                    22764573.449
 124045520.649 7  96658892.356 6  23605077.852                    23605088.805
 109995181.588 8  85710608.87246  20931367.805                    20931374.777
 111061692.108 8  86541661.410 7  21134335.797                    21134343.230
 113277796.369 8  88268501.240 7  21556027.258                    21556035.133
 11  8 14  0 59 30.0000000  0  9G09G17G04G02G30G25G10G12G05
 126761244.215 6  98775063.77643  24121878.898                    24121891.313
 123324923.949 7  96097369.445 6  23467948.273                    23467956.805
 116203999.960 7  90548671.61745  22112866.688                    22112875.051
 108363677.115 8  84439356.90546  20620901.141                    20620905.891
 119545181.989 7  93152172.99944  22748697.680                    22748706.031
 123952007.582 7  96586025.085 6  23587282.984                    23587293.848
 110011464.279 7  85723296.71846  20934466.172                    20934473.438
 111015417.243 8  86505603.103 7  21125529.984                    21125536.820
 113196925.254 8  88205484.854 7  21540637.836                    21540646.207
 11  8 14  1  0  0.0000000  0  9G09G17G04G02G30G25G10G12G05
 126843712.770 6  98839324.85743  24137572.828                    24137584.242
 123382859.056 6  96142513.712 6  23478972.078                    23478981.699
 116284028.772 7  90611031.73045  22128095.523                    22128103.730
 108371273.451 8  84445276.14446  20622346.609                    20622351.738
 119462186.504 7  93087501.27144  22732904.016                    22732912.281
 123858744.409 7  96513352.538 6  23569535.461                    23569546.445
 110028374.346 8  85736473.39846  20937683.813                    20937691.336
 110969634.838 8  86469928.541 7  21116817.852                    21116824.523
 113116433.532 8  88142764.094 7  21525320.906                    21525328.793
 11  8 14  1  0 30.0000000  0  9G09G17G04G02G30G25G10G12G05
 126926247.418 6  98903637.47143  24153276.828                    24153290.523
 123440964.786 7  96187790.894 6  23490029.883                    23490038.980
 116364145.079 7  90673459.99145  22143341.008                    22143350.082
 108379128.988 8  84451397.35846  20623841.164                    20623846.789
 119379583.060 7  93023135.00744  22717184.578                    22717192.930
 123765733.787 7  96440876.788 6  23551836.156                    23551847.035
 110045911.201 8  85750138.50746  20941020.992                    20941028.582
 110924346.878 8  86434639.267 7  21108199.711                    21108206.547
 113036323.651 7  88080340.878 7  21510076.109                    21510084.367
 11  8 14  1  1  0.0000000  0  9G09G17G04G02G30G25G10G12G05
 127008844.785 6  98967998.96943  24168995.656                    24169008.180
 123499241.433 6  96233201.288 6  23501119.547                    23501128.656
 116444347.209 7  90735955.16045  22158603.141                    22158611.734
 108387242.046 8  84457719.23946  20625385.125                    20625390.316
 119297374.094 7  92959076.13044  22701540.938                    22701549.313
 123672978.221 7  96368599.787 6  23534185.281                    23534196.496
 110064074.553 8  85764291.78546  20944477.430                    20944484.863
 110879555.215 8  86399736.710 7  21099676.063                    21099683.113
 112956598.222 7  88018217.228 7  21494904.852                    21494912.902
 11  8 14  1  1 30.0000000  0  9G09G17G04G02G30G25G10G12G05
 127091501.701 6  99032406.77143  24184724.328                    24184737.723
 123557689.470 6  96278745.208 6  23512241.211                    23512251.305
 116524633.159 7  90798515.63745  22173881.617                    22173889.430
 108395611.531 8  84464240.93146  20626978.078                    20626983.051
 119215562.377 6  92895326.79344  22685972.125                    22685981.203
 123580480.499 7  96296523.716 6  23516583.422                    23516594.559
 110082863.426 8  85778932.48246  20948052.930                    20948060.184
 110835261.693 8  86365222.322 7  21091247.188                    21091254.125
 112877259.800 7  87956395.144 7  21479807.602                    21479815.391
 11  8 14  1  2  0.0000000  0  9G09G17G04G02G30G25G10G12G05
 127174214.630 6  99096858.26743  24200464.617                    24200477.164
 123616309.335 7  96324423.010 6  23523396.188                    23523404.770
 116605001.229 7  90861140.09745  22189175.094                    22189182.715
 108404236.145 8  84470961.42846  20628619.070                    20628624.621
 119134150.529 7  92831889.04544  22670480.359                    22670488.883
 123488243.229 7  96224650.585 6  23499031.484                    23499042.480
 110102277.297 8  85794060.18646  20951747.297                    20951754.691
 110791468.237 8  86331097.592 7  21082913.688                    21082920.551
 112798311.049 8  87894876.713 7  21464783.805                    21464791.586
 11  8 14  1  2 30.0000000  0  9G09G17G04G02G30G25G10G12G05
 127256980.501 6  99161350.97643  24216214.844                    24216227.121
 123675101.532 7  96370235.117 6  23534584.766                    23534593.406
 116685449.793 7  90923827.27945  22204484.047                    22204491.832
 108413114.841 8  84477879.89646  20630308.570                    20630313.738
 119053141.343 7  92768765.06044  22655064.984                    22655073.727
 123396269.220 7  96152982.586 6  23481529.109                    23481540.094
 110122315.825 8  85809674.63946  20955560.625                    20955567.934
 110748176.752 8  86297364.007 7  21074675.828                    21074682.508
 112719754.706 8  87833664.038 7  21449834.828                    21449842.949
 11  8 14  1  3  0.0000000  0  9G09G17G04G02G30G25G10G12G05
 127339795.959 6  99225882.31743  24231974.609                    24231986.348
 123734066.316 7  96416181.681 6  23545805.258                    23545813.574
 116765977.384 7  90986576.04945  22219807.547                    22219815.480
 108422246.506 8  84484995.49746  20632046.313                    20632051.605
 118972537.539 7  92705956.96244  22639726.164                    22639734.703
 123304561.094 7  96081521.757 6  23464078.016                    23464088.484
 110142978.161 8  85825775.15846  20959492.500                    20959499.887
 110705389.097 8  86264023.020 7  21066533.203                    21066540.289
 112641593.281 8  87772759.097 7  21434961.281                    21434969.000
 11  8 14  1  3 30.0000000  0  9G09G17G04G02G30G25G10G12G05
 127422657.577 6  99290449.58743  24247742.555                    24247754.395
 123793204.217 7  96462263.164 6  23557059.797                    23557067.582
 116846582.110 7  91049384.91445  22235145.672                    22235154.566
 108431629.868 8  84492307.21246  20633831.891                    20633837.297
 118892341.628 7  92643466.66144  22624465.523                    22624473.828
 123213121.466 7  96010270.166 6  23446677.203                    23446688.332
 110164263.456 8  85842361.13446  20963542.641                    20963549.746
 110663106.787 8  86231075.797 7  21058487.289                    21058494.254
 112563829.303 8  87712163.856 7  21420163.336                    21420171.387
 11  8 14  1  4  0.0000000  0  9G09G17G04G02G30G25G10G12G05
 127505562.468 6  99355050.55643  24263518.656                    24263531.379
 123852515.616 7  96508479.822 6  23568345.570                    23568354.020
 116927262.320 7  91112252.59445  22250498.805                    22250507.605
 108441263.861 8  84499814.22146  20635665.281                    20635670.387
 118812556.458 7  92581296.45244  22609282.859                    22609291.203
 123121953.082 7  95939229.928 6  23429328.742                    23429339.332
 110186171.060 8  85859432.00546  20967711.617                    20967719.254
 110621331.952 8  86198524.003 7  21050537.586                    21050544.691
 112486465.268 8  87651880.257 7  21405441.391                    21405449.430
 11  8 14  1  4 30.0000000  0  9G09G17G04G02G30G25G10G12G05
 127588507.304 6  99419682.64243  24279302.313                    24279315.559
 123912000.872 7  96554831.957 6  23579665.445                    23579673.398
 117008016.298 7  91175177.78945  22265865.844                    22265874.250
 108451147.136 8  84507515.48146  20637545.906                    20637551.086
 118733184.463 7  92519448.19344  22594178.883                    22594187.270
 123031058.527 7  95868403.067 6  23412032.164                    23412042.676
 110208699.961 8  85876987.00846  20971998.656                    20972006.516
 110580066.432 8  86166369.088 7  21042685.320                    21042692.309
 112409503.957 8  87591910.461 7  21390796.008                    21390803.984
 11  8 14  1  5  0.0000000  0  9G09G17G04G02G30G25G10G12G05
 127671488.510 6  99484343.04144  24295094.055                    24295106.625
 123971660.333 7  96601319.823 6  23591018.227                    23591025.848
 117088842.145 7  91238158.95345  22281246.555                    22281255.188
 108461277.917 8  84515409.60246  20639473.820                    20639479.324
 118654228.050 7  92457923.76744  22579154.039                    22579162.148
 122940440.286 7  95797791.540 6  23394787.781                    23394797.992
 110231849.361 8  85895025.51445  20976403.602                    20976411.660
 110539311.693 8  86134612.173 7  21034929.648                    21034936.828
 112332947.666 8  87532256.276 7  21376227.656                    21376235.777
 11  8 14  1  5 30.0000000  0  9G09G17G04G02G30G25G10G12G05
 127754503.409 6  99549029.68644  24310891.375                    24310903.848
 124031494.294 7  96647943.672 6  23602404.148                    23602412.117
 117169738.776 7  91301195.28645  22296641.141                    22296649.383
 108471656.271 8  84523496.63546  20641448.820                    20641454.008
 118575690.765 7  92396725.92844  22564209.008                    22564217.113
 122850101.675 7  95727397.881 6  23377596.711                    23377607.129
 110255619.188 8  85913547.45746  20980927.195                    20980934.781
 110499070.147 8  86103255.137 7  21027271.789                    21027278.820
 112256799.385 8  87472920.009 7  21361737.453                    21361745.172
 11  8 14  1  6  0.0000000  0  9G09G17G04G02G30G25G10G12G05
 127837548.507 6  99613739.84044  24326694.992                    24326707.773
 124091503.348 7  96694703.954 6  23613823.320                    23613831.293
 117250704.505 7  91364285.45345  22312048.156                    22312056.047
 108482280.303 8  84531775.11046  20643470.445                    20643475.781
 118497574.736 7  92335856.33344  22549343.242                    22549351.902
 122760045.052 7  95657223.955 7  23360459.531                    23360470.285
 110280007.825 8  85932551.60146  20985567.992                    20985575.664
 110459343.238 8  86072299.114 7  21019711.984                    21019719.340
 112181061.422 8  87413903.475 7  21347325.070                    21347332.668
 11  8 14  1  6 30.0000000  0  9G09G17G04G02G30G25G10G12G05
 127920620.465 6  99678470.91243  24342502.805                    24342515.535
 124151687.852 7  96741600.955 6  23625276.180                    23625285.055
 117331737.498 7  91427428.03745  22327468.414                    22327476.504
 108493148.832 8  84540244.09546  20645538.859                    20645544.250
 118419882.437 7  92275316.90644  22534559.359                    22534567.902
 122670273.046 7  95587271.800 6  23343376.305                    23343387.063
 110305014.680 8  85952037.46845  20990326.461                    20990333.902
 110420132.423 8  86041745.242 7  21012250.453                    21012257.535
 112105736.265 8  87355208.611 7  21332991.047                    21332998.395
 11  8 14  1  7  0.0000000  0  9G09G17G04G02G30G25G10G12G05
 128003716.450 6  99743220.68343  24358316.195                    24358328.516
 124212047.935 6  96788634.773 6  23636762.555                    23636771.281
 117412836.186 7  91490621.80844  22342900.539                    22342908.809
 108504260.694 8  84548902.70246  20647653.148                    20647658.590
 118342616.500 7  92215109.73044  22519856.039                    22519864.488
 122580788.238 7  95517543.442 7  23326347.984                    23326358.777
 110330638.730 8  85972004.26646  20995203.016                    20995210.020
 110381439.360 8  86011594.810 7  21004887.297                    21004894.316
 112030826.186 8  87296837.175 7  21318735.930                    21318743.695
 11  8 14  1  7 30.0000000  0  9G09G17G04G02G30G25G10G12G05
 128086833.134 6  99807986.60743  24374132.883                    24374145.430
 124272584.265 7  96835805.933 6  23648281.719                    23648290.582
 117493998.858 7  91553865.43644  22358345.445                    22358353.875
 108515614.593 8  84557749.90146  20649813.867                    20649818.852
 118265779.535 7  92155236.81045  22505234.578                    22505243.359
 122491593.334 7  95448040.984 7  23309374.297                    23309384.988
 110356878.857 8  85992451.12346  21000196.109                    21000203.516
 110343266.255 8  85981849.527 7  20997623.352                    20997630.195
 111956333.842 8  87238791.241 7  21304560.477                    21304568.238
 11  8 14  1  8  0.0000000  0  9G09G17G04G02G30G25G10G12G05
 128169967.314 6  99872766.18743  24389952.242                    24389965.387
 124333296.847 7  96883114.444 6  23659835.992                    23659844.168
 117575224.106 7  91617157.83045  22373802.102                    22373810.152
 108527209.358 8  84566784.79346  20652020.070                    20652025.035
 118189374.225 7  92095700.23844  22490695.430                    22490703.336
 122402691.089 7  95378766.565 7  23292456.953                    23292467.711
 110383734.228 8  86013377.38546  21005306.594                    21005313.840
 110305614.844 8  85952510.763 7  20990458.734                    20990465.801
 111882261.663 8  87181072.716 7  21290464.820                    21290472.734
 11  8 14  1  8 30.0000000  0  9G09G17G04G02G30G25G10G12G05
 128253115.903 6  99937556.99843  24405776.539                    24405789.164
 124394186.146 6  96930560.634 6  23671422.492                    23671431.285
 117656510.244 7  91680497.66745  22389270.391                    22389278.324
 108539043.831 8  84576006.47346  20654272.250                    20654276.773
 118113403.009 7  92036501.92444  22476238.102                    22476246.578
 122314084.049 7  95309722.170 7  23275595.906                    23275606.316
 110411203.966 8  86034782.38546  21010533.875                    21010541.496
 110268486.227 8  85923579.367 7  20983393.547                    20983400.258
 111808612.226 8  87123683.597 7  21276449.805                    21276457.973
 11  8 14  1  9  0.0000000  0  9G09G17G04G02G30G25G10G12G05
 128336275.393 6 100002356.31343  24421600.852                    24421613.969
 124455252.483 6  96978144.774 6  23683042.258                    23683052.316
 117737855.573 7  91743883.62945  22404749.828                    22404758.426
 108551116.696 8  84585413.91846  20656569.313                    20656574.730
 118037868.292 7  91977643.73744  22461864.039                    22461872.973
 122225774.793 7  95240909.822 6  23258791.336                    23258801.695
 110439286.799 8  86056665.12745  21015877.523                    21015885.359
 110231882.059 8  85895056.638 7  20976427.938                    20976434.758
 111735387.815 8  87066625.659 7  21262516.008                    21262523.262
 11  8 14  1  9 30.0000000  0  9G09G17G04G02G30G25G10G12G05
 128419442.848 6 100067161.83543  24437426.781                    24437440.453
 124516496.250 6  97025867.180 6  23694697.242                    23694706.324
 117819258.587 7  91807314.54044  22420240.156                    22420248.414
 108563426.878 8  84595006.27746  20658912.359                    20658917.590
 117962772.987 7  91919127.94045  22447574.438                    22447582.703
 122137766.201 7  95172331.755 7  23242043.297                    23242053.742
 110467981.983 8  86079025.02846  21021338.070                    21021345.602
 110195804.217 8  85866944.029 7  20969562.734                    20969569.449
 111662591.018 8  87009900.936 7  21248662.859                    21248670.293
 11  8 14  1 10  0.0000000  0  9G09G17G04G02G30G25G10G12G05
 128502615.161 6 100131971.19443  24453254.234                    24453267.254
 124577917.766 6  97073728.079 6  23706385.258                    23706394.000
 117900717.997 7  91870789.40344  22435741.438                    22435749.809
 108575973.350 8  84604782.76946  20661299.805                    20661304.824
 117888119.570 7  91860956.46345  22433367.484                    22433377.207
 122050060.990 7  95103990.089 6  23225354.281                    23225363.500
 110497288.451 8  86101861.24446  21026915.211                    21026922.910
 110160254.274 8  85839242.768 7  20962797.594                    20962804.516
 111590224.036 8  86953511.119 7  21234891.953                    21234899.578
 11  8 14  1 10 30.0000000  0  9G09G17G04G02G30G25G10G12G05
 128585789.114 6 100196781.81042  24469082.000                    24469095.574
 124639517.414 6  97121727.771 6  23718107.578                    23718116.590
 117982232.234 7  91934306.99045  22451253.352                    22451261.039
 108588754.838 8  84614742.38646  20663731.758                    20663736.922
 117813910.598 7  91803131.30244  22419246.648                    22419255.035
 121962661.727 7  95035886.815 7  23208721.836                    23208732.207
 110527204.796 8  86125172.70046  21032608.133                    21032615.805
 110125234.002 8  85811954.244 7  20956133.586                    20956139.977
 111518289.485 8  86897458.280 7  21221203.164                    21221210.859
 11  8 14  1 11  0.0000000  0  9G09G17G04G02G30G25G10G12G05
 128668961.382 6 100261591.16743  24484910.203                    24484922.238
 124701295.546 6  97169866.556 6  23729863.477                    23729872.371
 118063799.444 7  91997865.87144  22466774.617                    22466783.063
 108601769.887 8  84624883.99746  20666208.469                    20666213.496
 117740148.395 7  91745654.27045  22405210.000                    22405218.633
 121875570.971 7  94968023.954 6  23192149.563                    23192159.492
 110557729.860 8  86148958.48046  21038417.016                    21038424.758
 110090744.570 8  85785079.374 7  20949570.156                    20949576.938
 111446789.626 8  86841744.152 7  21207597.258                    21207605.141
 11  8 14  1 11 30.0000000  0  9G09G17G04G02G30G25G10G12G05
 128752129.036 6 100326396.93942  24500736.406                    24500749.227
 124763252.155 6  97218144.434 6  23741652.820                    23741662.473
 118145418.280 7  92061464.96545  22482306.563                    22482314.633
 108615017.309 8  84635206.67546  20668729.398                    20668734.391
 117666835.483 7  91688527.32745  22391258.914                    22391267.707
 121788791.375 7  94900403.538 6  23175635.383                    23175645.977
 110588862.529 7  86173217.72646  21044341.359                    21044348.762
 110056787.829 8  85758619.588 7  20943108.656                    20943115.492
 111375727.022 8  86786370.743 7  21194074.383                    21194082.230
 11  8 14  1 12  0.0000000  0  9G09G17G04G02G30G25G10G12G05
 128835289.108 6 100391196.78543  24516560.984                    24516574.191
 124825387.941 7  97266561.928 6  23753477.445                    23753485.945
 118227087.054 7  92125102.97745  22497847.461                    22497855.598
 108628496.027 8  84645709.59346  20671294.398                    20671299.297
 117593974.450 7  91631752.49145  22377394.125                    22377402.961
 121702325.613 7  94833027.676 6  23159181.297                    23159192.328
 110620601.676 7  86197949.54746  21050381.078                    21050388.621
 110023365.085 8  85732575.911 7  20936748.125                    20936755.098
 111305103.848 8  86731339.748 7  21180635.203                    21180642.594
 11  8 14  1 12 30.0000000  0  9G09G17G04G02G30G25G10G12G05
 128918438.222 6 100455988.09343  24532384.484                    24532397.281
 124887702.736 6  97315118.906 6  23765335.313                    23765343.828
 118308804.738 7  92188779.11145  22513398.398                    22513406.141
 108642204.813 8  84656391.76346  20673903.172                    20673908.262
 117521567.759 7  91575331.67545  22363615.961                    22363623.875
 121616176.416 7  94765898.480 7  23142788.016                    23142798.430
 110652945.968 7  86223152.91846  21056535.727                    21056543.680
 109990478.085 8  85706949.697 7  20930489.914                    20930497.230
 111234922.791 8  86676653.255 7  21167280.133                    21167288.031
 11  8 14  1 13  0.0000000  0  9G09G17G04G02G30G25G10G12G05
 129001573.646 6 100520768.70943  24548203.875                    24548217.680
 124950197.002 6  97363815.747 6  23777227.617                    23777236.047
 118390569.534 7  92252491.95444  22528956.813                    22528965.668
 108656142.721 8  84667252.47946  20676555.234                    20676560.234
 117449618.033 7  91519266.95345  22349924.008                    22349932.563
 121530346.477 7  94699018.069 7  23126454.742                    23126465.641
 110685894.533 8  86248827.14946  21062805.719                    21062813.379
 109958128.222 8  85681742.035 7  20924334.188                    20924341.281
 111165185.668 8  86622312.685 7  21154009.406                    21154016.859
 11  8 14  1 13 30.0000000  0  9G09G17G04G02G30G25G10G12G05
 129084691.964 6 100585536.05943  24564020.875                    24564035.090
 125012871.325 6  97412652.856 6  23789154.477                    23789162.863
 118472379.940 7  92316240.33345  22544525.539                    22544534.172
 108670308.315 8  84678290.60646  20679250.805                    20679255.996
 117378127.627 7  91463560.13845  22336319.836                    22336328.352
 121444838.309 7  94632388.379 7  23110183.602                    23110193.707
 110719445.904 8  86274971.09846  21069190.414                    21069197.977
 109926316.929 8  85656954.040 7  20918280.633                    20918287.820
 111095894.985 8  86568319.989 7  21140823.719                    21140831.117
 11  8 14  1 14  0.0000000  0  9G09G17G04G02G30G25G10G12G05
 129167790.386 6 100650287.82943  24579833.891                    24579848.051
 125075725.829 6  97461630.394 6  23801114.672                    23801123.809
 118554234.715 7  92380023.30144  22560101.484                    22560110.121
 108684700.778 8  84689505.51546  20681989.703                    20681994.918
 117307099.163 7  91408213.28344  22322803.742                    22322811.844
 121359654.762 7  94566011.636 7  23093973.242                    23093983.738
 110753598.894 8  86301583.83146  21075689.359                    21075696.828
 109895046.001 8  85632587.109 7  20912329.734                    20912336.949
 111027053.364 8  86514677.217 7  21127723.648                    21127731.063
 11  8 14  1 14 30.0000000  0  9G09G17G04G02G30G25G10G12G05
 129250865.452 6 100715021.45143  24595643.570                    24595656.820
 125138760.568 6  97510748.389 6  23813110.055                    23813117.922
 118636132.194 7  92443839.52944  22575686.016                    22575694.879
 108699318.202 8  84700895.72346  20684771.203                    20684776.348
 117236534.861 7  91353228.11745  22309375.531                    22309383.559
 121274798.210 7  94499889.691 7  23077825.688                    23077836.277
 110788352.205 8  86328664.36646  21082302.930                    21082310.426
 109864316.426 8  85608642.008 7  20906482.313                    20906489.059
 110958662.666 8  86461385.811 7  21114709.430                    21114717.188
 11  8 14  1 15  0.0000000  0  9G09G17G04G02G30G25G10G12G05
 129333914.045 6 100779734.45643  24611447.016                    24611460.578
 125201975.976 6  97560007.167 6  23825139.359                    23825147.516
 118718070.832 7  92507687.83244  22591278.484                    22591286.449
 108714159.519 8  84712460.39346  20687595.281                    20687600.645
 117166437.056 7  91298606.47245  22296036.570                    22296045.176
 121190271.242 7  94434024.562 7  23061740.633                    23061751.363
 110823704.285 8  86356211.46446  21089029.781                    21089037.324
 109834129.435 8  85585119.707 7  20900737.844                    20900744.895
 110890725.168 8  86408447.546 7  21101781.578                    21101789.246
 11  8 14  1 15 30.0000000  0  9G09G17G04G02G30G25G10G12G05
 129416933.439 6 100844424.68043  24627245.766                    24627259.199
 125265372.562 6  97609407.094 6  23837203.023                    23837210.664
 118800049.615 7  92571567.39544  22606878.430                    22606886.566
 108729224.344 8  84724199.22046  20690462.164                    20690466.848
 117096808.669 7  91244350.61544  22282786.898                    22282795.137
 121106077.027 7  94368418.721 7  23045718.945                    23045729.430
 110859654.314 8  86384224.50446  21095870.742                    21095878.547
 109804486.883 8  85562021.647 7  20895096.906                    20895103.727
 110823243.871 7  86355864.764 7  21088940.125                    21088947.500
 11  8 14  1 16  0.0000000  0  9G09G17G04G02G30G25G10G12G05
 129499920.082 6 100909089.36443  24643037.289                    24643051.879
 125328950.284 6  97658948.178 6  23849302.297                    23849309.578
 118882066.754 7  92635476.84344  22622485.867                    22622493.832
 108744510.717 8  84736110.68046  20693371.203                    20693376.410
 117027651.598 7  91190462.01945  22269626.133                    22269634.543
 121022217.595 7  94303073.746 7  23029761.172                    23029771.754
 110896200.247 8  86412701.87446  21102825.539                    21102833.316
 109775389.766 8  85539348.595 7  20889560.047                    20889567.004
 110756220.103 8  86303638.495 7  21076186.016                    21076193.492
 11  8 14  1 16 30.0000000  0  9G09G17G04G02G30G25G10G12G05
 129582871.154 6 100973726.34543  24658821.906                    24658836.266
 125392709.767 6  97708630.894 6  23861434.336                    23861442.762
 118964120.830 7  92699415.07844  22638100.406                    22638108.223
 108760017.700 8  84748194.04946  20696322.313                    20696327.512
 116958968.351 7  91136942.66545  22256556.281                    22256564.738
 120938695.768 7  94237991.832 7  23013867.680                    23013877.801
 110933340.920 8  86441642.67246  21109893.188                    21109900.680
 109746839.833 8  85517101.911 7  20884127.148                    20884134.008
 110689656.494 7  86251770.794 7  21063519.047                    21063526.617
 11  8 14  1 17  0.0000000  0  9G09G17G04G02G30G25G10G12G05
 129665784.056 6 101038333.55444  24674600.445                    24674614.453
 125456650.829 6  97758455.078 6  23873601.688                    23873610.750
 119046210.743 7  92763381.24444  22653721.492                    22653729.301
 108775744.477 8  84760448.68246  20699314.766                    20699319.988
 116890761.669 7  91083794.64645  22243577.047                    22243585.094
 120855514.376 7  94173175.190 7  22998038.281                    22998048.707
 110971075.159 8  86471045.98546  21117073.539                    21117081.453
 109718838.458 8  85495282.681 7  20878798.945                    20878805.152
 110623555.376 8  86200263.478 7  21050940.367                    21050947.801
 11  8 14  1 17 30.0000000  0  9G09G17G04G02G30G25G10G12G05
 129748655.420 6 101102908.43643  24690370.859                    24690384.695
 125520773.777 6  97808420.988 6  23885804.906                    23885812.668
 119128334.912 7  92827374.09744  22669349.172                    22669357.586
 108791689.643 8  84772873.49946  20702348.781                    20702353.961
 116823033.513 7  91031019.50845  22230689.102                    22230696.949
 120772675.789 7  94108625.671 7  22982274.305                    22982284.934
 111009401.270 8  86500910.51546  21124366.961                    21124374.410
 109691386.456 8  85473891.521 7  20873574.523                    20873581.164
 110557918.649 7  86149118.026 7  21038450.195                    21038457.895
 11  8 14  1 18  0.0000000  0  9G09G17G04G02G30G25G10G12G05
 129831482.433 6 101167448.72643  24706131.602                    24706146.699
 125585078.743 6  97858528.742 6  23898040.750                    23898049.117
 119210491.961 7  92891392.58644  22684982.766                    22684991.766
 108807851.819 8  84785467.40246  20705424.453                    20705429.906
 116755786.248 7  90978619.12445  22217891.750                    22217900.246
 120690182.630 7  94044345.297 7  22966576.430                    22966587.340
 111048317.605 8  86531234.95145  21131772.336                    21131779.926
 109664485.251 8  85452929.555 7  20868455.453                    20868462.309
 110492748.603 8  86098336.218 7  21026048.734                    21026056.176
 11  8 14  1 18 30.0000000  0  9G09G17G04G02G30G25G10G12G05
 129914261.682 6 101231951.77643  24721884.742                    24721899.309
 125649566.123 6  97908778.638 6  23910312.703                    23910320.730
 119292680.471 7  92955435.56344  22700622.773                    22700631.957
 108824229.595 8  84798229.30946  20708541.219                    20708546.055
 116689022.253 7  90926595.29845  22205187.234                    22205195.207
 120608037.550 7  93980336.176 7  22950944.648                    22950955.527
 111087822.730 8  86562018.18446  21139289.977                    21139297.188
 109638136.226 8  85432397.866 7  20863441.609                    20863448.438
 110428047.193 8  86047919.577 7  21013736.594                    21013743.852
 11  8 14  1 19  0.0000000  0  9G09G17G04G02G30G25G10G12G05
 129996990.448 6 101296415.54843  24737627.164                    24737641.949
 125714236.152 6  97959170.857 6  23922618.789                    23922627.168
 119374899.090 7  93019502.01244  22716268.555                    22716277.609
 108840822.381 8  84811158.76046  20711698.680                    20711703.500
 116622744.002 7  90874949.96945  22192574.758                    22192582.832
 120526243.215 7  93916600.354 7  22935380.422                    22935390.844
 111127915.446 8  86593259.26846  21146919.234                    21146926.902
 109612340.817 8  85412297.557 7  20858532.914                    20858539.484
 110363817.093 8  85997870.196 7  21001513.672                    21001521.250
 11  8 14  1 19 30.0000000  0  9G09G17G04G02G30G25G10G12G05
 130079665.455 6 101360837.37743  24753360.617                    24753375.113
 125779088.869 6  98009705.415 6  23934960.461                    23934968.680
 119457146.747 7  93083591.08444  22731919.867                    22731928.473
 108857628.731 8  84824254.62646  20714896.539                    20714902.047
 116556953.696 7  90823684.87145  22180054.953                    22180063.250
 120444802.142 7  93853139.794 7  22919882.547                    22919892.574
 111168593.757 8  86624956.67346  21154660.117                    21154667.773
 109587099.942 8  85392629.348 7  20853729.641                    20853736.770
 110300060.249 8  85948189.571 7  20989381.211                    20989388.469
 11  8 14  1 20  0.0000000  0  9G09G17G04G02G30G25G10G12G05
 130162283.889 6 101425215.15143  24769082.313                    24769096.688
 125844124.617 6  98060382.602 6  23947337.172                    23947344.488
 119539421.783 7  93147701.49444  22747576.750                    22747584.359
 108874647.355 8  84837515.89746  20718135.742                    20718140.297
 116491653.433 7  90772801.61345  22167629.063                    22167637.172
 120363716.849 7  93789956.462 7  22904452.227                    22904462.617
 111209856.058 8  86657109.12646  21162511.922                    21162519.836
 109562414.744 8  85373394.141 7  20849032.250                    20849039.199
 110236778.326 8  85898879.028 8  20977338.930                    20977346.277
 11  8 14  1 20 30.0000000  0  9G09G17G04G02G30G25G10G12G05
 130244842.838 6 101489546.55743  24784793.320                    24784807.176
 125909343.669 6  98111202.626 6  23959746.969                    23959755.406
 119621723.085 7  93211832.32944  22763237.906                    22763246.148
 108891877.444 8  84850941.95846  20721413.914                    20721419.289
 116426845.824 7  90722302.24845  22155296.359                    22155304.563
 120282990.145 7  93727052.552 6  22889090.672                    22889101.332
 111251701.419 8  86689715.91945  21170475.320                    21170482.344
 109538286.608 8  85354593.002 7  20844440.695                    20844447.289
 110173974.063 7  85849940.685 7  20965387.828                    20965395.152
 11  8 14  1 21  0.0000000  0  9G09G17G04G02G30G25G10G12G05
 130327339.198 5 101553829.18342  24800491.133                    24800506.160
 125974746.030 6  98162165.500 6  23972192.938                    23972201.453
 119704049.298 7  93275982.59544  22778903.883                    22778912.102
 108909317.606 8  84864531.70846  20724732.891                    20724737.934
 116362532.923 7  90672188.36345  22143058.047                    22143066.707
 120202624.500 7  93664429.988 7  22873797.367                    22873807.895
 111294127.616 8  86722775.29846  21178548.352                    21178556.078
 109514716.635 8  85336226.799 7  20839955.469                    20839961.820
 110111649.264 8  85801375.950 7  20953527.734                    20953535.320
 11  8 14  1 21 30.0000000  0  9G09G17G04G02G30G25G10G12G05
 130409769.949 6 101618060.66442  24816177.516                    24816192.852
 126040331.807 7  98213271.285 6  23984673.578                    23984681.828
 119786398.824 7  93340151.04444  22794574.039                    22794582.582
 108926966.377 8  84878284.01846  20728091.352                    20728096.438
 116298716.919 7  90622461.66445  22130914.328                    22130922.488
 120122622.362 7  93602090.687 6  22858573.680                    22858584.211
 111337132.992 8  86756285.99246  21186731.828                    21186739.246
 109491705.688 8  85318296.198 7  20835576.813                    20835583.238
 110049805.871 8  85753186.333 7  20941759.047                    20941766.445
 11  8 14  1 22  0.0000000  0  9G09G17G04G02G30G25G10G12G05
 130492132.397 5 101682238.96842  24831850.508                    24831865.270
 126106101.220 6  98264520.197 6  23997188.906                    23997197.109
 119868770.574 7  93404336.79944  22810249.578                    22810257.762
 108944822.842 8  84892198.16446  20731489.672                    20731494.555
 116235400.049 7  90573123.90945  22118865.094                    22118873.813
 120042986.369 7  93540036.685 7  22843419.617                    22843429.609
 111380716.014 8  86790246.79745  21195025.258                    21195032.691
 109469255.033 8  85300802.178 7  20831304.344                    20831311.191
 109988445.829 8  85705373.346 7  20930082.797                    20930090.305
 11  8 14  1 22 30.0000000  0  9G09G17G04G02G30G25G10G12G05
 130574423.494 5 101746361.67242  24847510.477                    24847525.426
 126172054.597 6  98315912.394 6  24009739.477                    24009748.168
 119951163.298 7  93468538.91044  22825928.773                    22825936.715
 108962886.067 8  84906273.42246  20734926.586                    20734931.543
 116172584.596 7  90524176.86345  22106911.891                    22106920.461
 119963719.066 7  93478269.992 7  22828335.594                    22828345.879
 111424874.731 7  86824656.18946  21203428.797                    21203436.113
 109447365.704 8  85283745.562 7  20827138.961                    20827146.004
 109927571.341 8  85657938.723 7  20918498.797                    20918506.391
 11  8 14  1 23  0.0000000  0  9G09G17G04G02G30G25G10G12G05
 130656640.556 6 101810426.54642  24863156.250                    24863171.336
 126238192.525 6  98367448.403 6  24022325.203                    24022334.086
 120033575.888 7  93532756.48444  22841611.117                    22841619.102
 108981155.132 8  84920509.06446  20738402.953                    20738408.043
 116110273.007 7  90475622.44345  22095054.016                    22095062.449
 119884823.290 7  93416792.816 7  22813321.922                    22813332.605
 111469608.026 8  86859513.31845  21211941.383                    21211948.695
 109426039.299 8  85267127.586 7  20823080.875                    20823087.590
 109867184.488 8  85610884.081 7  20907007.328                    20907014.566
 11  8 14  1 23 30.0000000  0  8G17G04G02G30G25G10G12G05
 126304515.254 6  98419128.471 6  24034945.781                    24034954.840
 120116007.810 7  93596989.10544  22857297.484                    22857305.168
 108999629.252 8  84934904.49246  20741918.625                    20741923.719
 116048468.118 7  90427462.83145  22083292.984                    22083301.535
 119806302.298 7  93355607.672 7  22798380.109                    22798390.281
 111514914.894 7  86894817.37746  21220562.828                    21220570.195
 109405277.276 8  85250949.390 7  20819129.742                    20819136.629
 109807288.131 8  85564211.627 7  20895609.305                    20895616.680
 11  8 14  1 24  0.0000000  0  8G17G04G02G30G25G10G12G05
 126371022.204 6  98470952.064 6  24047601.461                    24047610.531
 120198456.554 7  93661234.84644  22872986.656                    22872995.141
 109018306.082 8  84949457.88246  20745472.805                    20745477.797
 115987170.920 7  90379698.83345  22071628.813                    22071636.848
 119728157.328 7  93294715.545 7  22783509.141                    22783519.789
 111560792.144 7  86930565.89645  21229292.539                    21229300.598
 109385079.532 8  85235210.892 7  20815286.320                    20815293.176
 109747882.851 8  85517921.830 7  20884304.922                    20884312.367
 11  8 14  1 24 30.0000000  0  8G17G04G02G30G25G10G12G05
 126437713.348 6  98522919.155 6  24060291.398                    24060301.586
 120280921.083 7  93725492.89344  22888678.930                    22888687.797
 109037184.696 8  84964168.51346  20749065.188                    20749070.023
 115926383.679 7  90332332.19245  22060061.750                    22060069.488
 119650391.089 7  93234118.542 7  22768710.977                    22768721.184
 111607238.201 8  86966757.63046  21238131.453                    21238138.871
 109365447.199 8  85219912.980 7  20811550.609                    20811556.746
 109688971.217 8  85472016.702 7  20873094.664                    20873101.902
 11  8 14  1 25  0.0000000  0  8G17G04G02G30G25G10G12G05
 126504588.827 6  98575029.932 6  24073018.430                    24073027.379
 120363400.077 7  93789762.19744  22904373.969                    22904382.672
 109056263.487 8  84979035.12346  20752695.359                    20752700.656
 115866108.498 7  90285364.55745  22048591.945                    22048599.352
 119573006.126 7  93173818.649 7  22753984.805                    22753995.293
 111654251.284 8  87003391.21446  21247077.547                    21247085.090
 109346381.051 8  85205056.241 7  20807922.203                    20807928.926
 109630554.722 8  85426497.390 8  20861978.547                    20861985.703
 11  8 14  1 25 30.0000000  0  8G17G04G02G30G25G10G12G05
 126571649.313 6  98627284.841 6  24085779.453                    24085788.430
 120445892.654 6  93854042.11044  22920071.773                    22920080.309
 109075542.547 8  84994057.78246  20756364.242                    20756369.340
 115806347.769 7  90238797.80045  22037219.289                    22037227.555
 119496005.216 7  93113818.023 7  22739331.875                    22739342.652
 111701829.917 8  87040465.48146  21256131.484                    21256139.051
 109327882.396 8  85190641.705 7  20804402.016                    20804409.000
 109572635.416 7  85381365.505 7  20850956.852                    20850963.887
 11  8 14  1 26  0.0000000  0  8G17G04G02G30G25G10G12G05
 126638894.447 6  98679683.657 6  24098576.430                    24098584.410
 120528397.458 7  93918331.53744  22935772.273                    22935780.934
 109095020.068 8  85009235.08546  20760070.438                    20760075.598
 115747103.236 7  90192633.27745  22025945.438                    22025953.500
 119419390.500 7  93054118.319 7  22724752.523                    22724763.281
 111749971.664 8  87077978.55045  21265292.672                    21265300.102
 109309951.932 8  85176669.928 7  20800989.750                    20800997.262
 109515214.981 7  85336622.346 8  20840029.758                    20840037.016
 11  8 14  1 26 30.0000000  0  8G17G04G02G30G25G10G12G05
 126706324.394 6  98732226.509 6  24111407.070                    24111415.910
 120610912.704 7  93982629.11944  22951474.758                    22951483.258
 109114694.479 8  85024565.80846  20763814.430                    20763819.680
 115688376.849 7  90146872.50145  22014770.375                    22014778.141
 119343164.344 7  92994721.392 7  22710247.016                    22710257.727
 111798674.625 8  87115928.91945  21274560.773                    21274567.984
 109292590.394 8  85163141.464 7  20797686.695                    20797693.234
 109458295.463 8  85292269.514 8  20829198.266                    20829205.711
 11  8 14  1 27  0.0000000  0  8G17G04G02G30G25G10G12G05
 126773939.185 6  98784913.340 6  24124273.867                    24124283.113
 120693437.913 7  94046934.48444  22967179.078                    22967186.805
 109134565.246 8  85040049.53546  20767595.734                    20767600.836
 115630171.292 7  90101517.54445  22003694.047                    22003701.363
 119267329.846 7  92935629.670 7  22695816.695                    22695826.996
 111847937.502 8  87154315.59546  21283934.984                    21283942.441
 109275798.941 8  85150057.219 7  20794490.930                    20794497.703
 109401879.118 8  85248308.769 7  20818462.555                    20818469.813
 11  8 14  1 27 30.0000000  0  8G17G04G02G30G25G10G12G05
 126841739.085 6  98837744.461 6  24137176.406                    24137184.859
 120775971.809 7  94111246.61144  22982884.938                    22982892.277
 109154631.284 8  85055685.41446  20771414.406                    20771419.680
 115572488.269 7  90056569.76845  21992717.531                    21992725.430
 119191889.174 7  92876844.794 7  22681460.445                    22681470.711
 111897758.081 8  87193136.84945  21293415.297                    21293422.594
 109259578.387 8  85137417.836 7  20791404.195                    20791410.824
 109345967.502 8  85204741.313 7  20807822.906                    20807830.246
 11  8 14  1 28  0.0000000  0  8G17G04G02G30G25G10G12G05
 126909724.236 6  98890719.853 6  24150112.859                    24150121.984
 120858513.019 7  94175564.42044  22998591.844                    22998599.121
 109174890.983 8  85071472.19146  20775269.641                    20775274.563
 115515329.679 7  90012030.64645  21981840.258                    21981847.570
 119116844.691 7  92818368.647 7  22667179.766                    22667190.289
 111948134.270 8  87232391.05245  21303001.484                    21303008.402
 109243929.551 8  85125223.947 7  20788426.289                    20788433.508
 109290561.802 8  85161568.076 8  20797279.047                    20797286.941
 11  8 14  1 28 30.0000000  0  8G17G04G02G30G25G10G12G05
 126977894.774 6  98943839.762 6  24163085.438                    24163093.762
 120941060.592 7  94239887.21244  23014299.781                    23014307.520
 109195343.621 8  85087409.32746  20779161.453                    20779166.449
 115458697.901 7  89967902.01545  21971063.547                    21971071.203
 119042199.219 7  92760203.402 7  22652975.016                    22652986.121
 111999064.661 8  87272077.08845  21312693.141                    21312700.723
 109228853.561 8  85113476.437 7  20785557.063                    20785564.621
 109235664.605 8  85118791.084 8  20786833.289                    20786840.102
 11  8 14  1 29  0.0000000  0  8G17G04G02G30G25G10G12G05
 127046250.506 6  98997103.927 6  24176093.586                    24176101.703
 121023613.302 7  94304213.99044  23030008.641                    23030017.281
 109215987.956 8  85103495.82046  20783090.250                    20783095.301
 115402594.609 7  89924185.20645  21960387.391                    21960395.727
 118967954.946 7  92702350.786 7  22638846.945                    22638857.609
 112050547.065 8  87312193.26346  21322490.305                    21322497.750
 109214350.645 8  85102175.472 7  20782797.664                    20782804.543
 109181277.497 8  85076411.553 8  20776483.289                    20776490.445
 11  8 14  1 29 30.0000000  0  8G17G04G02G30G25G10G12G05
 127114791.668 6  99050512.625 6  24189136.719                    24189144.215
 121106170.228 7  94368544.04944  23045718.805                    23045727.641
 109236823.204 8  85119731.09846  20787054.930                    20787059.738
 115347022.098 7  89880881.98745  21949812.273                    21949820.285
 118894114.620 8  92644812.936 7  22624795.719                    22624806.273
 112102579.607 8  87352738.12645  21332391.766                    21332398.891
 109200421.934 8  85091321.949 8  20780146.898                    20780154.004
 109127402.513 8  85034431.088 8  20766231.609                    20766238.719
 11  8 14  1 30  0.0000000  0  8G17G04G02G30G25G10G12G05
 127183518.205 6  99104065.728 6  24202214.961                    24202222.910
 121188729.879 7  94432876.23044  23061429.227                    23061438.461
 109257847.546 8  85136113.70746  20791055.727                    20791060.715
 115291981.912 7  89837993.56445  21939338.430                    21939346.238
 118820680.237 7  92587591.392 7  22610821.633                    22610831.246
 112155159.843 7  87393709.76145  21342397.242                    21342404.844
 109187067.799 8  85080916.142 7  20777605.797                    20777613.055
 109074040.886 8  84992850.640 8  20756076.914                    20756084.273
 11  8 14  1 30 30.0000000  0  8G17G04G02G30G25G10G12G05
 127252430.228 6  99157763.419 6  24215328.570                    24215336.488
 121271291.282 7  94497209.75444  23077140.164                    23077149.457
 109279060.463 8  85152643.26646  20795092.305                    20795097.277
 115237476.251 7  89795521.65645  21928966.250                    21928973.645
 118747654.520 7  92530688.278 7  22596924.922                    22596934.895
 112208285.880 7  87435106.69245  21352506.930                    21352514.324
 109174289.082 8  85070958.720 7  20775174.164                    20775181.117
 109021194.470 8  84951671.661 8  20746020.555                    20746027.504
 11  8 14  1 31  0.0000000  0  8G17G04G02G30G25G10G12G05
 127321527.910 6  99211605.735 6  24228477.359                    24228484.727
 121353853.355 6  94561543.81344  23092851.477                    23092860.109
 109300460.555 8  85169318.67646  20799164.477                    20799169.652
 115183506.837 7  89753467.60245  21918696.148                    21918703.891
 118675039.739 7  92474105.372 7  22583107.109                    22583117.207
 112261955.634 8  87476927.29745  21362719.664                    21362726.863
 109162086.856 8  85061450.515 7  20772852.227                    20772859.094
 108968865.021 8  84910895.512 8  20736062.586                    20736069.641
 11  8 14  1 31 30.0000000  0  8G17G04G02G30G25G10G12G05
 127390811.153 7  99265592.730 6  24241661.242                    24241669.492
 121436415.065 7  94625877.59444  23108562.688                    23108571.699
 109322047.106 7  85186139.37046  20803272.258                    20803277.434
 115130075.998 7  89711833.23345  21908528.383                    21908536.418
 118602838.650 7  92417844.837 7  22569367.531                    22569377.727
 112316167.245 7  87519170.11945  21373035.813                    21373043.441
 109150461.350 8  85052391.704 7  20770639.820                    20770646.766
 108917054.670 8  84870523.845 8  20726203.156                    20726210.375
 11  8 14  1 32  0.0000000  0  8G17G04G02G30G25G10G12G05
 127460279.631 6  99319724.032 6  24254880.773                    24254888.625
 121518975.221 7  94690210.14544  23124273.547                    23124281.723
 109343818.205 8  85203103.87346  20807415.203                    20807420.457
 115077185.053 7  89670619.54945  21898463.469                    21898472.227
 118531053.230 7  92361908.194 7  22555707.320                    22555717.375
 112370918.102 7  87561833.13545  21383454.016                    21383461.902
 109139413.051 8  85043782.661 7  20768537.172                    20768544.141
 108865764.292 8  84830557.356 8  20716443.008                    20716450.219
 11  8 14  1 32 30.0000000  0  9G29G17G04G02G30G25G10G12G05
 129583465.62515 100974204.74915  24658920.422
 127529933.840 7  99374000.035 6  24268135.297                    24268143.457
 121601532.780 7  94754540.68944  23139984.148                    23139992.180
 109365773.540 7  85220211.93946  20811593.219                    20811598.461
 115024836.049 7  89629828.17345  21888501.711                    21888510.461
 118459686.034 7  92306297.430 7  22542126.758                    22542136.664
 112426206.784 7  87604915.24845  21393975.500                    21393983.184
 109128942.716 8  85035623.979 7  20766545.039                    20766551.688
 108814995.826 8  84790997.552 8  20706782.281                    20706789.609
 11  8 14  1 33  0.0000000  0  9G29G17G04G02G30G25G10G12G05
 129503927.645 5 100912227.232 6  24643784.789                    24643794.785
 127599773.844 6  99428420.816 6  24281426.008                    24281433.219
 121684086.741 7  94818868.42844  23155692.930                    23155701.234
 109387911.999 7  85237462.70146  20815805.836                    20815810.910
 114973031.075 7  89589460.71245  21878643.664                    21878651.715
 118388739.684 7  92251014.609 7  22528625.656                    22528635.527
 112482031.056 7  87648414.68345  21404598.555                    21404606.258
 109119051.360 8  85027916.449 7  20764662.883                    20764669.371
 108764751.236 8  84751845.955 8  20697220.844                    20697227.590
 11  8 14  1 33 30.0000000  0  9G29G17G04G02G30G25G10G12G05
 129424314.197 6 100850190.889 6  24628635.250                    24628645.367
 127669799.628 6  99482986.358 6  24294750.930                    24294758.953
 121766636.096 7  94883192.59144  23171401.438                    23171409.523
 109410232.393 8  85254855.23746  20820053.250                    20820058.734
 114921771.894 7  89549518.55245  21868889.398                    21868897.375
 118318216.494 7  92196061.515 7  22515205.609                    22515215.801
 112538388.773 8  87692329.81045  21415323.422                    21415330.656
 109109739.197 8  85020660.234 7  20762890.445                    20762897.324
 108715031.802 8  84713103.571 7  20687759.711                    20687766.844
 11  8 14  1 34  0.0000000  0  9G29G17G04G02G30G25G10G12G05
 129344625.448 6 100788095.852 6  24613471.359                    24613481.297
 127740011.077 6  99537696.588 6  24308111.820                    24308119.723
 121849179.420 7  94947512.07144  23187109.203                    23187117.445
 109432733.091 8  85272388.25546  20824334.914                    20824339.828
 114871059.950 7  89510002.79645  21859239.117                    21859247.594
 118248118.479 7  92141439.728 7  22501866.188                    22501876.211
 112595277.403 7  87736658.62345  21426148.617                    21426155.727
 109101006.563 8  85013855.600 8  20761228.875                    20761235.840
 108665838.669 8  84674771.298 8  20678398.359                    20678405.625
 11  8 14  1 34 30.0000000  0  9G29G17G04G02G30G25G10G12G05
 129264862.183 6 100725942.761 6  24598292.906                    24598302.684
 127810408.213 6  99592551.475 6  24321507.367                    24321516.227
 121931716.273 7  95011826.47944  23202814.992                    23202823.867
 109455413.794 8  85290061.54846  20828650.773                    20828656.344
 114820897.445 7  89470915.18245  21849693.641                    21849701.180
 118178448.441 7  92087151.434 7  22488608.516                    22488618.219
 112652695.274 7  87781399.82045  21437075.250                    21437082.660
 109092854.671 8  85007503.486 7  20759677.500                    20759684.070
 108617174.049 8  84636850.843 8  20669137.805                    20669144.980
 11  8 14  1 35  0.0000000  0  9G29G17G04G02G30G25G10G12G05
 129185024.702 7 100663731.828 6  24583100.023                    24583109.633
 127880990.731 6  99647550.802 6  24334938.828                    24334947.309
 122014245.057 7  95076134.62744  23218519.508                    23218528.699
 109478272.836 8  85307873.80546  20833001.211                    20833006.098
 114771285.637 7  89432256.67445  21840252.977                    21840260.707
 118109208.271 7  92033198.111 7  22475432.516                    22475443.023
 112710639.716 7  87826551.34745  21448101.305                    21448109.016
 109085283.098 8  85001603.582 7  20758236.656                    20758243.551
 108569038.952 8  84599343.013 8  20659977.883                    20659985.309
 11  8 14  1 35 30.0000000  0  9G29G17G04G02G30G25G10G12G05
 129105113.635 7 100601463.536 6  24567893.453                    24567902.980
 127951758.735 6  99702694.672 6  24348406.234                    24348414.063
 122096764.770 7  95140435.68643  23234223.031                    23234231.633
 109501309.295 8  85325824.30046  20837384.852                    20837389.785
 114722226.416 8  89394028.75045  21830917.133                    21830925.082
 118040400.440 7  91979581.679 7  22462338.352                    22462348.996
 112769108.638 7  87872111.55145  21459227.680                    21459234.785
 109078292.324 8  84996156.232 7  20756906.383                    20756912.980
 108521435.093 8  84562249.130 8  20650919.055                    20650926.648
 11  8 14  1 36  0.0000000  0  9G29G17G04G02G30G25G10G12G05
 129025129.522 7 100539138.330 6  24552673.227                    24552682.934
 128022712.090 6  99757982.984 6  24361907.656                    24361916.438
 122179274.720 6  95204729.11544  23249924.352                    23249932.625
 109524521.927 8  85343912.08246  20841801.664                    20841806.848
 114673721.567 7  89356232.80045  21821687.094                    21821695.191
 117972027.341 7  91926303.995 7  22449328.008                    22449337.719
 112828099.999 7  87918078.85945  21470453.094                    21470460.500
 109071883.258 8  84991162.167 7  20755686.883                    20755693.320
 108474364.066 8  84525570.442 8  20641961.688                    20641968.695
 11  8 14  1 36 30.0000000  0  9G29G17G04G02G30G25G10G12G05
 128945073.094 7 100476756.766 6  24537438.602                    24537448.105
 128093850.688 6  99813415.676 5  24375445.023                    24375454.000
 122261773.833 6  95269014.10544  23265623.148                    23265631.141
 109547909.962 8  85362136.51946  20846252.516                    20846257.785
 114625772.723 7  89318870.10845  21812562.898                    21812570.512
 117904091.240 7  91873366.841 7  22436400.031                    22436409.855
 112887611.448 7  87964451.43545  21481778.172                    21481785.371
 109066056.144 8  84986621.567 7  20754578.078                    20754584.848
 108427827.182 8  84489307.977 8  20633105.703                    20633112.996
 11  8 14  1 37  0.0000000  0  9G29G17G04G02G30G25G10G12G05
 128864944.793 7 100414319.179 6  24522190.633                    24522200.891
 128165174.741 6  99868992.871 5  24389017.852                    24389025.957
 122344260.995 6  95333289.74244  23281319.742                    23281328.914
 109571472.463 8  85380496.90646  20850736.461                    20850741.625
 114578381.593 7  89281941.98245  21803544.211                    21803552.398
 117836594.516 7  91820772.051 7  22423555.672                    22423565.867
 112947640.678 8  88011227.46045  21493201.055                    21493208.520
 109060811.162 7  84982534.565 7  20753579.859                    20753586.344
 108381825.863 8  84453462.818 8  20624352.195                    20624359.453
 11  8 14  1 37 30.0000000  0  9G29G17G04G02G30G25G10G12G05
 128784745.207 7 100351826.075 6  24506929.219                    24506938.762
 128236684.090 6  99924714.430 5  24402625.461                    24402633.574
 122426735.430 6  95397555.48844  23297015.016                    23297023.035
 109595208.090 8  85398992.20146  20855253.375                    20855257.688
 114531549.773 7  89245449.67345  21794632.523                    21794640.078
 117769539.232 7  91768521.247 7  22410795.203                    22410805.574
 113008185.142 7  88058404.96945  21504722.180                    21504729.590
 109056148.715 7  84978901.493 7  20752692.563                    20752699.176
 108336361.453 7  84418036.042 8  20615700.750                    20615708.055
 11  8 14  1 38  0.0000000  0  9G29G17G04G02G30G25G10G12G05
 128704475.017 7 100289277.930 6  24491654.594                    24491664.027
 128308378.633 6  99980580.351 5  24416268.578                    24416276.492
 122509195.912 6  95461810.36544  23312705.680                    23312715.117
 109619115.753 7  85417621.54646  20859802.617                    20859807.707
 114485278.857 8  89209394.42445  21785827.695                    21785835.293
 117702927.810 7  91716616.311 7  22398119.328                    22398129.551
 113069242.788 7  88105982.36245  21516340.906                    21516348.379
 109052069.195 7  84975722.649 7  20751916.383                    20751923.227
 108291435.558 8  84383028.879 8  20607151.484                    20607158.793
 11  8 14  1 38 30.0000000  0  9G29G17G04G02G30G25G10G12G05
 128624134.819 7 100226675.229 6  24476365.531                    24476375.859
 128380258.252 6 100036590.438 5  24429946.359                    24429955.527
 122591641.645 7  95526053.75444  23328395.445                    23328404.172
 109643194.592 8  85436384.28346  20864384.594                    20864389.852
 114439570.518 8  89173777.54545  21777129.156                    21777137.145
 117636762.569 7  91665059.049 7  22385528.750                    22385539.133
 113130811.399 7  88153957.90245  21528057.156                    21528064.539
 109048573.040 8  84972998.369 7  20751251.289                    20751257.910
 108247049.494 8  84348442.365 8  20598705.133                    20598712.172
 11  8 14  1 39  0.0000000  0  9G29G17G04G02G30G25G10G12G05
 128543725.144 6 100164018.428 6  24461064.156                    24461074.012
 128452323.036 6 100092744.817 5  24443660.359                    24443668.734
 122674071.676 7  95590284.91844  23344081.492                    23344090.086
 109667443.588 7  85455279.60446  20868999.578                    20869004.328
 114394426.382 8  89138600.29445  21768538.734                    21768546.301
 117571045.651 7  91613851.129 7  22373022.961                    22373033.234
 113192888.336 7  88202329.55245  21539870.359                    21539877.785
 109045660.721 7  84970729.031 8  20750696.703                    20750703.629
 108203204.672 8  84314277.602 8  20590361.750                    20590368.738
 11  8 14  1 39 30.0000000  0  9G29G17G04G02G30G25G10G12G05
 128463246.504 6 100101307.884 6  24445749.375                    24445759.359
 128524572.727 6 100149043.317 5  24457407.953                    24457416.723
 122756485.013 7  95654503.06844  23359764.320                    23359772.840
 109691861.449 8  85474306.50546  20873645.414                    20873650.570
 114349847.775 8  89103863.72045  21760055.586                    21760063.672
 117505779.237 7  91562994.252 7  22360603.031                    22360613.637
 113255471.267 7  88251095.47745  21551779.133                    21551786.379
 109043331.795 7  84968914.287 7  20750253.906                    20750260.695
 108159901.826 8  84280535.156 8  20582121.328                    20582128.586
 11  8 14  1 40  0.0000000  0  9G29G17G04G02G30G25G10G12G05
 128382699.613 6 100038544.155 6  24430421.672                    24430431.676
 128597007.402 6 100205485.898 6  24471193.109                    24471200.582
 122838880.684 6  95718707.44544  23375443.484                    23375451.754
 109716447.402 8  85493464.39746  20878324.203                    20878329.434
 114305836.564 7  89069569.25745  21751680.516                    21751688.398
 117440965.754 7  91512490.293 7  22348269.688                    22348279.527
 113318558.133 7  88300254.07045  21563784.164                    21563791.570
 109041586.993 8  84967554.698 7  20749921.578                    20749928.434
 108117143.005 8  84247216.627 8  20573984.531                    20573992.023
 11  8 14  1 40 30.0000000  0  9G29G17G04G02G30G25G10G12G05
 128302085.288 6  99975727.879 6  24415080.656                    24415090.758
 128669626.848 6 100262072.515 6  24485011.953                    24485020.375
 122921258.029 6  95782897.56143  23391119.547                    23391127.414
 109741200.591 8  85512752.59646  20883034.344                    20883039.273
 114262394.065 8  89035717.93545  21743414.000                    21743421.676
 117376607.309 7  91462340.898 7  22336022.648                    22336032.211
 113382146.534 7  88349803.48845  21575884.711                    21575891.930
 109040426.436 8  84966650.367 7  20749700.422                    20749707.738
 108074929.209 8  84214322.793 8  20565951.773                    20565958.715
 11  8 14  1 41  0.0000000  0  9G29G17G04G02G30G25G10G12G05
 128221403.913 6  99912859.408 5  24399727.758                    24399737.621
 128742430.883 6 100318802.942 6  24498865.234                    24498874.652
 123003616.052 6  95847072.60644  23406791.750                    23406799.297
 109766119.774 8  85532170.14246  20887776.461                    20887781.340
 114219521.858 8  89002310.98845  21735255.594                    21735263.406
 117312706.169 7  91412547.832 7  22323863.008                    22323872.359
 113446234.193 7  88399741.93245  21588080.359                    21588087.738
 109039850.394 8  84966201.502 7  20749591.219                    20749598.027
 108033261.805 8  84181854.719 8  20558022.594                    20558029.660
 11  8 14  1 41 30.0000000  0  9G29G17G04G02G30G25G10G12G05
 128140657.048 6  99849939.854 5  24384362.805                    24384371.852
 128815419.996 6 100375677.578 6  24512755.461                    24512764.754
 123085954.480 6  95911232.37643  23422459.742                    23422468.563
 109791204.606 8  85551716.77346  20892549.977                    20892555.176
 114177222.068 8  88969350.07545  21727206.438                    21727214.145
 117249265.119 7  91363113.293 7  22311790.102                    22311800.109
 113510819.335 7  88450068.03045  21600370.219                    21600377.559
 109039859.381 8  84966208.513 7  20749592.813                    20749599.438
 107992142.631 8  84149813.831 8  20550197.914                    20550204.852
 11  8 14  1 42  0.0000000  0  8G29G04G02G30G25G10G12G05
 128059844.577 6  99786969.192 5  24368984.258                    24368993.707
 123168271.904 6  95975375.80143  23438124.633                    23438132.684
 109816453.492 8  85571391.24146  20897354.984                    20897359.453
 114135495.513 8  88936835.84245  21719266.063                    21719273.707
 117186285.707 7  91314038.447 7  22299805.406                    22299815.422
 113575898.842 7  88500779.34045  21612754.297                    21612762.137
 109040453.094 8  84966671.148 7  20749705.898                    20749712.410
 107951572.207 8  84118200.544 8  20542477.531                    20542484.395
 11  8 14  1 42 30.0000000  0  8G29G04G02G30G25G10G12G05
 127978966.828 6  99723947.673 5  24353593.844                    24353603.363
 123250567.011 6  96039501.81344  23453784.984                    23453793.480
 109841864.968 8  85591192.40446  20902190.313                    20902195.477
 114094343.172 8  88904769.06145  21711435.023                    21711443.289
 117123769.674 7  91265324.678 7  22287908.953                    22287919.793
 113641469.519 7  88551873.38645  21625232.242                    21625239.648
 109041631.041 8  84967589.025 7  20749929.906                    20749936.496
 107911551.720 8  84087015.785 8  20534862.047                    20534868.973
 11  8 14  1 43  0.0000000  0  8G29G04G02G30G25G10G12G05
 127898025.000 6  99660876.245 6  24338190.758                    24338200.566
 123332839.348 6  96103610.12044  23469441.211                    23469448.883
 109867438.743 8  85611120.03246  20907056.992                    20907061.766
 114053767.046 7  88873151.27345  21703713.344                    21703721.242
 117061719.719 7  91216974.066 7  22276101.781                    22276111.574
 113707529.768 7  88603348.90845  21637802.852                    21637810.563
 109043394.190 8  84968962.915 7  20750265.711                    20750272.527
 107872082.462 8  84056260.557 8  20527351.328                    20527358.477
 11  8 14  1 43 30.0000000  0  8G29G04G02G30G25G10G12G05
 127817019.490 6  99597755.170 6  24322775.680                    24322785.754
 123415087.821 6  96167699.81544  23485092.047                    23485099.688
 109893173.008 8  85631172.72846  20911954.000                    20911958.875
 114013767.975 7  88841983.14845  21696102.336                    21696109.813
 117000137.564 7  91168987.957 7  22264382.617                    22264392.551
 113774077.042 7  88655203.94245  21650466.383                    21650473.742
 109045741.804 8  84970792.231 7  20750712.398                    20750719.203
 107833164.879 8  84025935.201 8  20519945.117                    20519952.297
 11  8 14  1 44  0.0000000  0  8G29G04G02G30G25G10G12G05
 127735950.971 6  99534584.998 6  24307349.141                    24307358.500
 123497311.771 7  96231770.42144  23500738.352                    23500746.871
 109919067.225 8  85651350.06246  20916881.641                    20916886.664
 113974347.644 8  88811265.99345  21688600.578                    21688608.094
 116939025.472 7  91121368.129 7  22252753.469                    22252763.141
 113841108.855 7  88707436.53345  21663222.531                    21663229.809
 109048674.112 8  84973077.155 7  20751270.313                    20751276.617
 107794800.573 8  83996040.970 8  20512644.930                    20512651.938
 11  8 14  1 44 30.0000000  0  8G29G04G02G30G25G10G12G05
 127654820.059 6  99471366.215 6  24291910.086                    24291919.883
 123579510.055 7  96295820.99343  23516380.523                    23516388.941
 109945120.321 8  85671651.20946  20921839.008                    20921844.141
 113935507.041 8  88781000.58545  21681209.953                    21681217.168
 116878385.363 7  91074116.074 7  22241213.719                    22241223.641
 113908622.317 7  88760044.42845  21676069.961                    21676077.258
 109052191.076 8  84975817.651 7  20751939.188                    20751946.117
 107756990.509 8  83966578.612 8  20505449.664                    20505456.582
 11  8 14  1 45  0.0000000  0  8G29G04G02G30G25G10G12G05
 127573628.022 6  99408099.777 6  24276459.555                    24276469.660
 123661682.257 7  96359851.23743  23532016.883                    23532025.406
 109971331.792 8  85692075.75946  20926826.992                    20926832.066
 113897248.121 7  88751188.45945  21673929.680                    21673936.836
 116818219.839 7  91027233.801 7  22229764.539                    22229774.859
 113976615.505 7  88813026.15645  21689008.641                    21689015.496
 109056293.028 8  84979013.995 7  20752719.922                    20752726.520
 107719736.301 8  83937549.386 8  20498360.258                    20498367.258
 11  8 14  1 45 30.0000000  0  8G29G04G02G30G25G10G12G05
 127492375.097 6  99344785.883 6  24260997.406                    24261007.371
 123743827.294 7  96423860.33944  23547649.563                    23547657.109
 109997699.880 8  85712622.34646  20931844.711                    20931849.445
 113859571.584 7  88721830.14445  21666759.477                    21666767.000
 116758530.567 8  90980722.655 7  22218406.453                    22218416.516
 114045085.501 7  88866379.41045  21702038.141                    21702045.348
 109060979.820 8  84982666.051 7  20753611.609                    20753618.559
 107683038.198 8  83908953.504 8  20491377.078                    20491384.242
 11  8 14  1 46  0.0000000  0  8G29G04G02G30G25G10G12G05
 127411062.107 6  99281425.169 6  24245524.469                    24245534.246
 123825944.467 6  96487847.74644  23563276.117                    23563284.191
 110024224.119 8  85733290.61746  20936891.664                    20936897.004
 113822478.870 8  88692926.77245  21659700.930                    21659708.371
 116699319.716 8  90934584.294 7  22207139.289                    22207149.141
 114114029.875 7  88920102.30945  21715157.203                    21715165.367
 109066251.030 8  84986773.484 7  20754614.977                    20754621.707
 107646897.586 8  83880792.020 8  20484499.477                    20484506.668
 11  8 14  1 46 30.0000000  0  8G29G04G02G30G25G10G12G05
 127329689.914 6  99218018.335 6  24230039.891                    24230049.125
 123908033.034 6  96551812.85843  23578896.164                    23578905.332
 110050903.577 8  85754079.84146  20941969.000                    20941973.895
 113785971.345 7  88664479.39745  21652753.711                    21652761.742
 116640589.423 8  90888820.403 7  22195962.734                    22195973.156
 114183446.197 7  88974192.94945  21728367.023                    21728374.254
 109072106.849 8  84991336.464 7  20755729.219                    20755736.109
 107611315.760 8  83853065.951 8  20477728.523                    20477735.570
 11  8 14  1 47  0.0000000  0  8G29G04G02G30G25G10G12G05
 127248259.101 6  99154565.782 6  24214543.531                    24214553.797
 123990092.319 6  96615755.11143  23594511.266                    23594520.602
 110077737.268 8  85774989.23846  20947075.008                    20947079.926
 113750050.129 7  88636488.90345  21645918.352                    21645926.164
 116582341.704 8  90843432.553 7  22184879.258                    22184888.832
 114253331.930 7  89028649.36345  21741665.781                    21741672.711
 109078546.859 8  84996354.661 7  20756955.023                    20756961.535
 107576293.510 8  83825775.915 8  20471063.867                    20471070.977
 11  8 14  1 47 30.0000000  0  8G29G04G02G30G25G10G12G05
 127166770.486 6  99091068.200 6  24199037.406                    24199047.066
 124072120.996 6  96679673.56843  23610121.453                    23610130.004
 110104723.805 8  85796017.73146  20952210.313                    20952215.625
 113714716.094 8  88608955.94745  21639194.398                    21639201.910
 116524578.223 8  90798422.041 7  22173886.992                    22173896.500
 114323683.967 7  89083469.14645  21755053.070                    21755060.547
 109085570.755 8  85001827.832 7  20758291.305                    20758298.258
 107541831.608 8  83798922.517 8  20464506.188                    20464513.152
 11  8 14  1 48  0.0000000  0  8G29G04G02G30G25G10G12G05
 127085225.419 6  99027526.625 6  24183519.477                    24183529.633
 124154119.009 6  96743568.11943  23625724.438                    23625733.363
 110131863.135 8  85817165.27946  20957374.820                    20957379.781
 113679971.062 8  88581881.95445  21632582.656                    21632590.258
 116467301.722 8  90753791.005 7  22162987.492                    22162997.078
 114394500.774 7  89138651.08545  21768529.227                    21768536.414
 109093179.001 8  85007756.340 7  20759739.477                    20759745.594
 107507931.283 8  83772506.711 8  20458054.984                    20458062.066
 11  8 14  1 48 30.0000000  0  8G29G04G02G30G25G10G12G05
 127003624.199 7  98963941.286 6  24167991.563                    24168001.082
 124236085.235 6  96807437.88543  23641322.156                    23641331.066
 110159153.559 8  85838430.57246  20962567.969                    20962573.016
 113645815.542 7  88555267.32045  21626082.977                    21626090.926
 116410513.561 8  90709540.508 7  22152181.273                    22152191.234
 114465779.029 7  89194192.58445  21782092.914                    21782100.348
 109101370.871 8  85014139.615 7  20761298.227                    20761304.125
 107474593.070 8  83746528.913 8  20451711.016                    20451718.102
 11  8 14  1 49  0.0000000  0  8G29G04G02G30G25G10G12G05
 126921967.821 6  98900312.978 6  24152453.047                    24152462.355
 124318019.160 7  96871282.50643  23656914.516                    23656922.684
 110186594.724 8  85859813.32446  20967789.789                    20967794.398
 113612251.166 7  88529113.32245  21619695.656                    21619703.508
 116354216.136 8  90665672.426 7  22141467.883                    22141477.977
 114537516.351 7  89250091.78745  21795743.977                    21795751.672
 109110146.792 8  85020978.006 7  20762967.844                    20762974.398
 107441818.264 8  83720990.132 8  20445474.531                    20445481.121
 11  8 14  1 49 30.0000000  0  8G29G04G02G30G25G10G12G05
 126840256.314 6  98836641.699 6  24136903.250                    24136912.992
 124399919.443 7  96935100.90843  23672499.297                    23672507.777
 110214184.593 8  85881311.93946  20973040.109                    20973044.953
 113579278.015 7  88503420.00345  21613420.875                    21613428.617
 116298410.517 8  90622187.569 7  22130848.523                    22130858.703
 114609709.382 7  89306346.11145  21809481.750                    21809489.332
 109119505.421 8  85028270.451 7  20764748.930                    20764755.609
 107409607.033 8  83695890.496 8  20439344.695                    20439351.613
 11  8 14  1 50  0.0000000  0  8G29G04G02G30G25G10G12G05
 126758491.079 6  98772928.557 6  24121343.406                    24121353.078
 124481785.803 7  96998892.88243  23688079.039                    23688086.695
 110241923.002 8  85902926.30846  20978318.617                    20978323.328
 113546897.735 7  88478188.66645  21607259.078                    21607266.824
 116243099.155 8  90579087.872 7  22120322.930                    22120333.215
 114682356.355 7  89362954.13345  21823306.305                    21823313.836
 109129446.631 8  85036016.853 7  20766640.797                    20766647.453
 107377960.570 8  83671230.939 8  20433322.148                    20433329.293
 11  8 14  1 50 30.0000000  0  8G29G04G02G30G25G10G12G05
 126676673.025 6  98709174.267 6  24105774.656                    24105783.918
 124563617.531 7  97062657.88243  23703649.984                    23703659.348
 110269809.211 8  85924655.84146  20983624.992                    20983629.953
 113515111.694 7  88453420.36945  21601210.414                    21601218.445
 116188284.245 8  90536375.019 7  22109891.734                    22109901.805
 114755454.591 7  89419913.80345  21837216.297                    21837223.996
 109139970.620 8  85044217.369 7  20768643.477                    20768650.168
 107346879.861 8  83647012.240 8  20427407.703                    20427414.938
 11  8 14  1 51  0.0000000  0  8G29G04G02G30G25G10G12G05
 126594802.902 6  98645379.414 6  24090195.313                    24090204.465
 124645413.729 7  97126395.18443  23719215.930                    23719224.625
 110297841.844 8  85946499.46646  20988959.297                    20988964.328
 113483920.399 7  88429115.51045  21595274.516                    21595282.781
 116133967.235 8  90494050.146 7  22099555.945                    22099566.090
 114829001.431 7  89477223.02445  21851211.953                    21851219.371
 109151076.652 8  85052871.424 7  20770756.742                    20770763.801
 107316365.179 8  83623234.601 8  20421601.109                    20421608.402
 11  8 14  1 51 30.0000000  0  8G29G04G02G30G25G10G12G05
 126512881.488 6  98581544.597 6  24074605.992                    24074615.625
 124727173.898 7  97190104.41843  23734773.570                    23734782.219
 110326020.283 7  85968456.71146  20994321.461                    20994326.434
 113453325.015 7  88405274.99045  21589452.453                    21589460.594
 116080150.302 8  90452114.947 7  22089314.750                    22089324.680
 114902994.372 7  89534879.85945  21865292.336                    21865299.156
 109162764.693 8  85061978.988 7  20772980.977                    20772987.418
 107286417.805 8  83599899.007 8  20415902.273                    20415909.430
 11  8 14  1 52  0.0000000  0  8G29G04G02G30G25G10G12G05
 126430909.775 6  98517670.600 6  24059006.633                    24059016.527
 124808897.331 7  97253785.00443  23750325.734                    23750334.566
 110354343.773 7  85990526.99146  20999711.453                    20999716.574
 113423326.643 7  88381899.66945  21583744.219                    21583751.930
 116026835.355 8  90410570.898 7  22079169.430                    22079179.500
 114977430.357 7  89592881.91845  21879457.359                    21879464.223
 109175034.074 8  85071539.548 7  20775315.555                    20775322.699
 107257038.376 8  83577005.983 8  20410311.547                    20410318.762
 11  8 14  1 52 30.0000000  0  8G29G04G02G30G25G10G12G05
 126348888.245 6  98453757.773 6  24043398.727                    24043408.512
 124890583.075 7  97317436.22844  23765869.859                    23765878.441
 110382810.685 8  86012709.01246  21005128.375                    21005133.344
 113393925.552 7  88358989.75345  21578149.398                    21578157.344
 115974023.582 8  90369418.932 7  22069119.711                    22069129.355
 115052306.267 7  89651226.78045  21893705.789                    21893713.152
 109187883.990 8  85081552.466 7  20777760.648                    20777767.797
 107228227.097 8  83554555.665 8  20404828.719                    20404835.801
 11  8 14  1 53  0.0000000  0  8G29G04G02G30G25G10G12G05
 126266818.245 7  98389807.185 6  24027781.609                    24027791.004
 124972230.783 6  97381057.81943  23781406.586                    23781416.082
 110411421.027 8  86035002.80946  21010573.164                    21010577.914
 113365123.308 7  88336546.46345  21572668.805                    21572676.766
 115921717.566 8  90328661.067 7  22059166.016                    22059175.934
 115127619.964 7  89709912.75945  21908037.594                    21908044.645
 109201314.570 8  85092017.856 7  20780316.797                    20780323.352
 107199985.378 8  83532549.172 8  20399454.664                    20399461.578
 11  8 14  1 53 30.0000000  0  8G29G04G02G30G25G10G12G05
 126184701.158 7  98325819.898 6  24012155.180                    24012164.035
 125053840.124 6  97444649.54543  23796936.320                    23796945.430
 110440174.287 8  86057407.95346  21016044.391                    21016049.516
 113336921.166 7  88314570.78545  21567301.477                    21567309.605
 115869919.362 8  90288298.894 7  22049309.063                    22049318.711
 115203369.291 7  89768938.19845  21922452.164                    21922459.238
 109215326.052 8  85102935.902 7  20782983.078                    20782989.988
 107172313.867 7  83510986.994 8  20394189.063                    20394195.672
 11  8 14  1 54  0.0000000  0  8G29G04G02G30G25G10G12G05
 126102537.102 7  98261796.014 6  23996520.047                    23996528.945
 125135410.001 6  97508210.47643  23812458.484                    23812467.863
 110469068.832 8  86079923.19446  21021543.148                    21021547.734
 113309319.345 7  88293062.89045  21562049.398                    21562057.398
 115818630.167 8  90248333.344 7  22039548.883                    22039558.695
 115279550.992 7  89828300.56145  21936948.984                    21936956.145
 109229917.040 8  85114305.519 7  20785759.727                    20785766.219
 107145212.751 8  83489869.272 8  20389031.672                    20389038.426
 11  8 14  1 54 30.0000000  0  8G29G04G02G30G25G10G12G05
 126020327.046 6  98197736.284 6  23980876.164                    23980885.023
 125216939.696 6  97571740.08843  23827972.992                    23827982.035
 110498103.645 8  86102547.72546  21027068.039                    21027073.102
 113282318.566 7  88272023.33745  21556911.500                    21556919.488
 115767851.696 8  90208765.758 7  22029886.422                    22029896.102
 115356162.279 7  89887997.67945  21951527.281                    21951534.391
 109245086.627 8  85126125.983 7  20788646.086                    20788652.871
 107118682.568 8  83469196.429 8  20383983.172                    20383990.117
 11  8 14  1 55  0.0000000  0  8G29G04G02G30G25G10G12G05
 125938071.763 6  98133641.331 6  23965223.328                    23965232.238
 125298428.583 7  97635237.95443  23843480.180                    23843488.410
 110527277.880 8  86125280.90146  21032619.758                    21032624.512
 113255919.703 7  88251452.81345  21551887.742                    21551895.133
 115717585.745 8  90169597.532 7  22020320.695                    22020330.723
 115433200.562 7  89948027.48745  21966187.203                    21966194.965
 109260834.222 8  85138396.843 7  20791643.141                    20791649.297
 107092724.075 8  83448969.064 8  20379043.750                    20379050.387
 11  8 14  1 55 30.0000000  0  8G29G04G02G30G25G10G12G05
 125855772.560 6  98069512.152 6  23949561.883                    23949570.930
 125379876.260 6  97698703.67943  23858978.930                    23858987.086
 110556591.075 8  86148122.35046  21038198.008                    21038202.758
 113230123.728 7  88231352.08045  21546979.141                    21546986.465
 115667834.230 8  90130830.162 7  22010853.359                    22010863.535
 115510663.425 7  90008388.15745  21980927.836                    21980935.203
 109277159.808 8  85151118.091 7  20794749.383                    20794756.352
 107067337.703 8  83429187.514 8  20374212.250                    20374219.609
 11  8 14  1 56  0.0000000  0  8G29G04G02G30G25G10G12G05
 125773430.391 6  98005349.498 6  23933892.398                    23933901.387
 125461281.879 6  97762136.66043  23874469.992                    23874477.645
 110586041.900 8  86171071.05946  21043802.398                    21043807.043
 113204931.018 7  88211721.40445  21542184.828                    21542192.555
 115618598.593 8  90092464.790 7  22001483.508                    22001493.730
 115588547.811 7  90069077.28445  21995748.813                    21995755.891
 109294062.400 8  85164288.953 7  20797966.219                    20797972.582
 107042523.978 8  83409852.172 8  20369490.844                    20369497.535
 11  8 14  1 56 30.0000000  0  8G29G04G02G30G25G10G12G05
 125691045.895 6  97941153.879 6  23918215.773                    23918224.477
 125542644.798 6  97825536.31943  23889952.656                    23889961.406
 110615629.769 8  86194126.53446  21049432.461                    21049437.543
 113180342.366 8  88192561.42645  21537505.797                    21537513.152
 115569880.626 8  90054502.775 7  21992213.523                    21992222.996
 115666850.953 7  90130092.70445  22010649.641                    22010656.809
 109311541.726 8  85177909.210 7  20801292.289                    20801298.879
 107018283.458 8  83390963.494 8  20364878.023                    20364884.512
 11  8 14  1 57  0.0000000  0  8G29G04G02G30G25G10G12G05
 125608620.244 7  97876926.203 6  23902530.313                    23902539.121
 125623964.598 6  97888902.39343  23905427.578                    23905435.379
 110645353.842 8  86217288.15646  21055088.930                    21055093.965
 113156358.668 8  88173872.84545  21532942.141                    21532949.508
 115521682.181 8  90016945.581 7  21983041.188                    21983051.117
 115745569.878 7  90191432.12445  22025629.133                    22025636.816
 109329597.352 8  85191978.542 7  20804728.188                    20804734.688
 106994616.696 8  83372521.893 8  20360374.172                    20360381.344
 11  8 14  1 57 30.0000000  0  8G29G04G02G30G25G10G12G05
 125526154.370 7  97812667.175 6  23886837.625                    23886846.688
 125705240.703 6  97952234.44843  23920894.203                    23920902.246
 110675213.222 8  86240555.20546  21060770.719                    21060776.063
 113132980.565 8  88155656.16145  21528492.914                    21528501.031
 115474004.855 8  89979794.452 7  21973968.867                    21973978.516
 115824701.940 7  90253093.46645  22040687.586                    22040695.109
 109348228.056 8  85206495.983 7  20808273.227                    20808280.090
 106971524.097 8  83354527.694 8  20355979.711                    20355986.645
 11  8 14  1 58  0.0000000  0  8G29G04G02G30G25G10G12G05
 125443649.374 7  97748377.698 6  23871137.359                    23871146.539
 125786472.304 6  98015531.77043  23936351.352                    23936360.453
 110705207.005 8  86263926.99546  21066478.531                    21066483.430
 113110208.482 8  88137911.70545  21524159.930                    21524167.746
 115426850.108 8  89943050.526 7  21964995.617                    21965005.266
 115904244.407 7  90315074.58645  22055823.602                    22055831.254
 109367432.970 8  85221460.854 7  20811927.750                    20811934.645
 106949005.968 8  83336981.125 8  20351694.594                    20351701.617
 11  8 14  1 58 30.0000000  0  8G29G04G02G30G25G10G12G05
 125361106.257 7  97684058.524 6  23855429.656                    23855438.598
 125867659.284 6  98078794.39943  23951801.438                    23951809.887
 110735334.944 8  86287403.31946  21072211.141                    21072216.605
 113088043.360 8  88120640.19745  21519942.172                    21519949.922
 115380219.989 8  89906715.404 7  21956122.102                    21956131.824
 115984194.824 7  90377373.62145  22071037.875                    22071045.309
 109387211.668 8  85236872.835 7  20815691.688                    20815698.113
 106927063.100 8  83319882.822 8  20347519.281                    20347525.664
 11  8 14  1 59  0.0000000  0  8G29G04G02G30G25G10G12G05
 125278525.873 6  97619710.299 6  23839715.664                    23839724.152
 125948801.028 6  98142021.75343  23967241.461                    23967250.113
 110765595.978 8  86310983.35746  21077970.414                    21077974.941
 113066485.774 8  88103842.10445  21515839.633                    21515847.359
 115334115.998 8  89870790.250 7  21947348.680                    21947358.586
 116064550.222 7  90439988.20445  22086329.609                    22086336.559
 109407563.821 8  85252731.659 7  20819564.453                    20819571.289
 106905695.684 8  83303232.921 8  20343453.203                    20343459.828
 11  8 14  1 59 30.0000000  0  8G29G04G02G30G25G10G12G05
 125195908.777 6  97555333.483 6  23823993.500                    23824002.270
 126029896.539 6  98205213.06443  23982673.188                    23982682.055
 110795988.638 8  86334665.95846  21083753.500                    21083758.309
 113045535.678 8  88087517.37445  21511852.813                    21511860.766
 115288539.158 8  89835275.860 7  21938675.328                    21938685.484
 116145307.747 7  90502916.14545  22101696.789                    22101703.887
 109428487.473 8  85269035.811 7  20823546.109                    20823552.883
 106884903.470 8  83287031.222 8  20339496.352                    20339503.098
 11  8 14  2  0  0.0000000  0  8G29G04G02G30G25G10G12G05
 125113256.752 6  97490929.418 6  23808265.070                    23808274.273
 126110945.882 6  98268368.41143  23998097.086                    23998105.688
 110826513.194 8  86358451.33246  21089562.305                    21089567.316
 113025194.414 7  88071667.05845  21507982.328                    21507990.074
 115243491.789 8  89800174.041 7  21930103.266                    21930113.113
 116226465.062 7  90566155.61245  22117140.547                    22117147.883
 109449982.798 8  85285785.425 7  20827636.602                    20827643.301
 106864687.834 8  83271278.801 8  20335649.461                    20335656.551
 11  8 14  2  0 30.0000000  0  8G29G04G02G30G25G10G12G05
 125030570.759 6  97426498.898 6  23792530.422                    23792539.363
 126191948.251 6  98331487.14843  24013510.734                    24013519.707
 110857168.521 8  86382338.61446  21095395.695                    21095400.531
 113005462.114 7  88056291.25445  21504227.281                    21504234.770
 115198975.218 8  89765485.821 7  21921632.273                    21921641.809
 116308019.080 7  90629704.20445  22132659.711                    22132667.105
 109472048.904 8  85302979.799 7  20831835.438                    20831842.273
 106845048.521 8  83255975.462 8  20331912.023                    20331919.125
 11  8 14  2  1  0.0000000  0  8G29G04G02G30G25G10G12G05
 124947851.484 6  97362042.444 6  23776789.344                    23776798.320
 126272902.922 6  98394568.71143  24028916.305                    24028924.285
 110887953.328 8  86406326.78046  21101253.852                    21101258.605
 112986339.075 7  88041390.19145  21500588.203                    21500595.680
 115154990.698 8  89731212.194 7  21913262.352                    21913272.160
 116389966.873 7  90693559.64644  22148253.688                    22148261.137
 109494684.499 8  85320617.926 7  20836142.969                    20836149.637
 106825985.842 8  83241121.458 8  20328284.461                    20328291.344
 11  8 14  2  1 30.0000000  0  8G29G04G02G30G25G10G12G05
 124865099.899 7  97297560.803 6  23761042.719                    23761051.383
 126353809.913 6  98457613.11543  24044311.945                    24044320.461
 110918867.675 8  86430415.88646  21107136.672                    21107141.262
 112967826.132 7  88026964.52645  21497064.961                    21497072.832
 115111540.187 8  89697354.672 7  21904993.664                    21905003.480
 116472306.031 7  90757720.02445  22163922.383                    22163930.340
 109517889.180 8  85338699.496 7  20840558.695                    20840565.422
 106807500.342 8  83226717.198 8  20324766.789                    20324774.066
 11  8 14  2  2  0.0000000  0  8G29G04G02G30G25G10G12G05
 124782317.214 7  97233054.923 6  23745289.156                    23745298.652
 126434667.981 6  98520619.40443  24059698.719                    24059708.098
 110949909.720 8  86454604.50246  21113043.680                    21113048.555
 112949923.041 8  88013014.08545  21493657.883                    21493665.895
 115068624.542 8  89663913.932 7  21896827.406                    21896837.023
 116555032.905 7  90822182.53545  22179664.727                    22179672.188
 109541661.626 8  85357223.480 7  20845082.563                    20845088.984
 106789591.674 8  83212762.417 8  20321359.195                    20321365.902
 11  8 14  2  2 30.0000000  0  8G29G04G02G30G25G10G12G05
 124699504.452 7  97168525.593 6  23729530.539                    23729539.371
 126515476.844 6  98583587.36343  24075076.094                    24075085.480
 110981078.995 8  86478892.26646  21118975.023                    21118980.137
 112932630.371 8  87999539.27345  21490367.055                    21490374.828
 115026245.258 8  89630891.139 7  21888762.602                    21888772.582
 116638145.055 7  90886945.24545  22195480.664                    22195487.828
 109566000.552 8  85376188.883 7  20849713.813                    20849720.848
 106772259.998 8  83199257.236 8  20318060.930                    20318067.766
 11  8 14  2  3  0.0000000  0  8G29G04G02G30G25G10G12G05
 124616662.874 7  97103973.811 6  23713766.023                    23713775.375
 126596236.031 6  98646516.64843  24090445.117                    24090453.602
 111012374.839 8  86503278.66846  21124930.938                    21124935.414
 112915948.681 8  87986540.55245  21487193.141                    21487200.992
 114984404.088 8  89598287.647 7  21880800.711                    21880810.383
 116721639.880 7  90952006.15245  22211369.094                    22211376.188
 109590905.405 8  85395595.257 7  20854453.406                    20854459.801
 106755505.816 8  83186202.050 8  20314872.781                    20314879.082
 11  8 14  2  3 30.0000000  0  8G29G04G02G30G25G10G12G05
 124533793.581 7  97039400.405 6  23697996.617                    23698005.297
 126676945.394 6  98709407.10043  24105803.219                    24105810.535
 111043797.059 8  86527763.53246  21130910.203                    21130915.063
 112899878.383 8  87974018.23945  21484134.906                    21484142.566
 114943102.522 8  89566104.627 7  21872941.313                    21872950.648
 116805514.456 7  91017362.96844  22227330.008                    22227337.246
 109616375.318 8  85415441.947 7  20859300.094                    20859306.781
 106739329.278 8  83173596.977 8  20311794.500                    20311800.969
 11  8 14  2  4  0.0000000  0  8G29G04G02G30G25G10G12G05
 124450897.552 7  96974806.173 6  23682221.695                    23682230.402
 126757604.494 6  98772258.37643  24121151.734                    24121159.418
 111075344.754 8  86552346.17046  21136913.594                    21136918.207
 112884419.679 8  87961972.48645  21481193.938                    21481201.270
 114902341.927 8  89534343.145 7  21865184.578                    21865194.355
 116889765.875 7  91083013.43444  22243362.461                    22243369.941
 109642409.045 8  85435727.968 7  20864254.000                    20864260.820
 106723730.568 8  83161442.166 8  20308826.227                    20308832.820
 11  8 14  2  4 30.0000000  0  8G29G04G02G30G25G10G12G05
 124367975.921 7  96910191.976 6  23666442.453                    23666450.969
 126838212.641 7  98835069.91243  24136491.195                    24136498.949
 111107017.003 8  86577025.86646  21142940.531                    21142945.020
 112869573.053 8  87950403.69245  21478368.188                    21478375.395
 114862123.836 8  89503004.389 7  21857531.602                    21857541.367
 116974391.472 7  91148955.44344  22259466.172                    22259473.340
 109669006.054 8  85456452.918 7  20869315.391                    20869321.871
 106708709.892 8  83149737.772 8  20305967.719                    20305974.332
 11  8 14  2  5  0.0000000  0  8G29G04G02G30G25G10G12G05
 124285030.321 7  96845559.093 6  23650658.000                    23650666.996
 126918769.434 6  98897841.48843  24151821.117                    24151828.871
 111138813.293 8  86601802.21546  21148990.828                    21148995.754
 112855338.600 8  87939311.90345  21475659.773                    21475667.160
 114822449.492 8  89472089.328 7  21849981.391                    21849991.020
 117059388.558 7  91215186.95444  22275640.727                    22275647.910
 109696164.944 8  85477615.696 7  20874483.492                    20874490.078
 106694267.155 8  83138483.718 8  20303219.336                    20303225.836
 11  8 14  2  5 30.0000000  0  8G29G04G02G30G25G10G12G05
 124202061.013 7  96780907.721 6  23634870.117                    23634878.195
 126999274.194 6  98960572.46143  24167139.930                    24167149.223
 111170732.314 8  86626674.19946  21155064.719                    21155069.727
 112841716.296 8  87928697.13345  21473067.398                    21473074.781
 114783319.891 8  89441598.756 7  21842535.352                    21842544.898
 117144753.966 7  91281705.45845  22291885.078                    22291892.086
 109723884.174 8  85499215.099 7  20879758.313                    20879764.875
 106680402.050 8  83127679.774 8  20300580.719                    20300587.313
 11  8 14  2  6  0.0000000  0  8G29G04G02G30G25G10G12G05
 124119069.293 7  96716238.889 6  23619076.508                    23619085.609
 127079726.596 6  99023262.67043  24182449.656                    24182458.453
 111202773.495 8  86651641.38046  21161162.086                    21161166.668
 112828706.240 8  87918559.42745  21470591.398                    21470598.906
 114744736.327 8  89411533.665 7  21835193.266                    21835203.184
 117230484.800 7  91348508.70444  22308199.195                    22308206.422
 109752162.756 8  85521250.370 7  20885139.422                    20885145.891
 106667114.792 8  83117326.098 8  20298052.289                    20298058.902
 11  8 14  2  6 30.0000000  0  8G29G04G02G30G25G10G12G05
 124036056.583 7  96651553.689 6  23603280.211                    23603288.930
 127160126.218 6  99085911.74543  24197747.813                    24197758.152
 111234936.184 8  86676703.23346  21167282.000                    21167286.906
 112816308.751 8  87908899.05445  21468232.031                    21468240.500
 114706700.246 8  89381895.176 7  21827955.414                    21827964.770
 117316578.092 7  91415594.37744  22324582.516                    22324589.453
 109780999.621 8  85543720.654 7  20890626.969                    20890633.684
 106654405.492 8  83107422.778 8  20295633.695                    20295640.402
 11  8 14  2  7  0.0000000  0  8G29G04G02G30G25G10G12G05
 123953024.159 7  96586853.139 6  23587479.164                    23587488.441
 127240472.820 6  99148519.52843  24213038.242                    24213048.172
 111267219.938 7  86701859.42146  21173425.906                    21173430.477
 112804524.155 7  87899716.26845  21465989.523                    21465997.496
 114669213.085 8  89352684.420 7  21820821.711                    21820831.715
 117403031.225 7  91482960.44344  22341033.484                    22341040.785
 109810393.811 8  85566625.222 7  20896220.445                    20896227.027
 106642273.866 8  83097969.598 8  20293325.000                    20293331.754
 11  8 14  2  7 30.0000000  0  8G29G04G02G30G25G10G12G05
 123869972.881 7  96522137.910 6  23571675.430                    23571684.125
 127320765.824 6  99211085.52643  24228317.016                    24228326.609
 111299624.100 7  86727109.44046  21179591.828                    21179596.816
 112793352.389 7  87891011.00745  21463863.969                    21463871.414
 114632275.937 8  89323902.250 7  21813792.563                    21813802.434
 117489841.181 7  91550604.56044  22357553.055                    22357559.930
 109840344.357 8  85589963.313 7  20901919.875                    20901926.809
 106630720.158 8  83088966.740 8  20291126.570                    20291133.262
 11  8 14  2  8  0.0000000  0  8G29G04G02G30G25G10G12G05
 123786904.358 7  96457409.253 6  23555867.453                    23555876.570
 127401005.024 6  99273609.59843  24243587.523                    24243595.305
 111332147.975 8  86752452.74446  21185781.133                    21185786.148
 112782793.787 7  87882783.55645  21461854.656                    21461861.852
 114595890.267 8  89295549.809 7  21806868.367                    21806878.125
 117577005.423 7  91618524.73344  22374139.672                    22374147.094
 109870849.618 8  85613733.652 7  20907724.711                    20907731.531
 106619744.477 8  83080414.290 8  20289037.805                    20289044.422
 11  8 14  2  8 30.0000000  0  8G29G04G02G30G25G10G12G05
 123703819.166 7  96392667.585 6  23540057.305                    23540065.617
 127481189.712 6  99336091.12143  24258845.531                    24258853.816
 111364790.271 8  86777888.31446  21191992.859                    21191997.848
 112772847.784 8  87875033.45845  21459962.016                    21459969.535
 114560056.724 8  89267627.575 7  21800049.563                    21800059.422
 117664520.655 7  91686718.41344  22390793.484                    22390800.488
 109901908.124 8  85637935.089 7  20913635.070                    20913642.246
 106609346.019 8  83072311.630 8  20287059.234                    20287066.164
 11  8 14  2  9  0.0000000  0  8G29G04G02G30G25G10G12G05
 123620718.738 7  96327914.047 6  23524243.594                    23524252.281
 127561319.390 6  99398529.86042  24274093.906                    24274101.945
 111397550.517 8  86803415.79946  21198226.680                    21198231.281
 112763514.649 8  87867760.92245  21458185.828                    21458193.539
 114524776.691 8  89240136.672 7  21793336.172                    21793345.824
 117752383.969 7  91755183.31444  22407513.430                    22407520.324
 109933519.110 8  85662567.031 7  20919650.234                    20919657.082
 106599524.918 8  83064658.862 8  20285190.109                    20285197.004
 11  8 14  2  9 30.0000000  0  8G29G04G02G30G25G10G12G05
 123537604.359 7  96263149.659 6  23508427.375                    23508435.863
 127641394.106 6  99460925.75243  24289330.469                    24289339.305
 111430428.510 8  86829035.03746  21204483.000                    21204487.973
 112754794.419 7  87860965.96745  21456526.742                    21456534.383
 114490051.470 8  89213078.083 7  21786728.414                    21786738.227
 117840592.714 7  91823917.37644  22424298.602                    22424306.082
 109965681.081 8  85687628.312 7  20925770.555                    20925777.336
 106590281.298 8  83057456.065 8  20283430.867                    20283437.555
 11  8 14  2 10  0.0000000  0  9G29G26G04G02G30G25G10G12G05
 123454477.314 7  96198375.401 6  23492608.227                    23492617.770
 130451297.46416 101650434.37852  24824067.414                    24824075.223
 127721413.272 6  99523278.35843  24304558.547                    24304566.621
 111463423.341 8  86854745.31646  21210761.742                    21210766.336
 112746687.168 8  87854648.66245  21454983.477                    21454991.383
 114455882.162 8  89186452.673 7  21780226.133                    21780235.715
 117929144.005 7  91892918.37944  22441149.742                    22441157.133
 109998392.646 8  85713117.838 7  20931995.539                    20932002.180
 106581614.906 8  83050703.075 8  20281781.852                    20281788.430
 11  8 14  2 10 30.0000000  0  9G29G26G04G02G30G25G10G12G05
 123371339.620 7  96133592.860 6  23476788.125                    23476797.047
 130358448.848 6 101578084.84742  24806398.852                    24806407.906
 127801377.255 6  99585587.99543  24319775.023                    24319784.320
 111496535.003 8  86880546.63746  21217062.922                    21217067.863
 112739193.418 8  87848809.40845  21453557.602                    21453565.469
 114422270.590 8  89160261.868 7  21773830.164                    21773839.313
 118018035.780 7  91962184.67044  22458065.195                    22458071.754
 110031653.140 8  85739035.107 7  20938324.484                    20938331.395
 106573525.897 8  83044399.979 8  20280242.914                    20280249.535
 11  8 14  2 11  0.0000000  0  9G29G26G04G02G30G25G10G12G05
 123288191.815 7  96068802.453 6  23460965.555                    23460975.035
 130265470.226 6 101505634.04942  24788705.789                    24788714.121
 127881285.240 6  99647853.95243  24334981.117                    24334989.945
 111529762.388 8  86906438.12746  21223385.898                    21223390.453
 112732312.481 8  87843447.66845  21452248.063                    21452256.188
 114389217.259 8  89134506.055 7  21767539.930                    21767550.172
 118107264.608 7  92031713.59944  22475045.031                    22475052.074
 110065460.701 8  85765378.660 7  20944757.992                    20944764.277
 106566013.779 8  83038546.404 8  20278813.117                    20278819.855
 11  8 14  2 11 30.0000000  0  9G29G26G04G02G30G25G10G12G05
 123205035.048 6  96004005.053 6  23445141.172                    23445150.129
 130172364.378 5 101433084.16643  24770987.625                    24770996.672
 127961136.616 6  99710075.76943  24350176.680                    24350185.262
 111563104.650 8  86932419.13146  21229730.438                    21229735.363
 112726044.202 8  87838563.33145  21451055.086                    21451062.723
 114356723.056 8  89109185.929 7  21761356.508                    21761366.547
 118196827.114 7  92101502.54544  22492088.188                    22492095.746
 110099813.744 8  85792147.274 7  20951294.984                    20951302.059
 106559078.200 8  83033142.084 8  20277493.281                    20277500.023
 11  8 14  2 12  0.0000000  0  9G29G26G04G02G30G25G10G12G05
 123121870.456 6  95939201.557 6  23429315.602                    23429324.277
 130079134.071 5 101360437.25443  24753246.094                    24753256.047
 128040930.978 6  99772253.19343  24365361.031                    24365369.191
 111596561.018 8  86958489.05446  21236097.516                    21236102.027
 112720388.165 7  87834156.06945  21449979.328                    21449986.457
 114324788.938 8  89084302.236 7  21755279.781                    21755289.141
 118286720.294 7  92171549.14545  22509194.141                    22509201.566
 110134710.895 8  85819339.865 7  20957935.742                    20957942.566
 106552718.460 8  83028186.477 8  20276283.031                    20276289.473
 11  8 14  2 12 30.0000000  0  9G29G26G04G02G30G25G10G12G05
 123038699.190 6  95874392.869 6  23413488.141                    23413497.270
 129985782.146 5 101287695.61043  24735481.336                    24735491.074
 128120668.127 6  99834386.01143  24380533.875                    24380542.543
 111630131.039 7  86984647.53346  21242485.336                    21242489.977
 112715344.262 8  87830225.78445  21449019.180                    21449026.629
 114293415.901 8  89059855.736 7  21749309.508                    21749319.133
 118376941.526 7  92241851.39244  22526363.078                    22526370.027
 110170150.778 7  85846955.355 7  20964679.594                    20964686.801
 106546934.391 8  83023679.437 8  20275182.203                    20275189.117
 11  8 14  2 13  0.0000000  0  9G29G26G04G02G30G25G10G12G05
 122955522.813 6  95809580.202 6  23397660.656                    23397669.492
 129892311.567 6 101214861.46843  24717695.305                    24717704.297
 128200347.689 7  99896474.00743  24395696.844                    24395705.594
 111663813.769 8  87010893.83346  21248894.797                    21248899.434
 112710912.326 7  87826772.35345  21448175.984                    21448183.363
 114262605.026 8  89035847.301 7  21743446.688                    21743456.199
 118467487.920 7  92312406.99244  22543593.258                    22543600.457
 110206132.068 8  85874992.722 7  20971526.766                    20971533.922
 106541725.914 8  83019620.901 8  20274190.898                    20274197.699
 11  8 14  2 13 30.0000000  0  9G29G26G04G02G30G25G10G12G05
 122872342.623 7  95744764.563 6  23381832.227                    23381840.410
 129798725.079 6 101141937.02343  24699886.469                    24699895.633
 128279969.351 7  99958516.84543  24410848.602                    24410856.844
 111697608.918 7  87037227.73346  21255325.898                    21255330.465
 112707092.114 7  87823795.58545  21447449.117                    21447456.039
 114232357.286 8  89012277.664 7  21737690.625                    21737700.465
 118558356.349 7  92383213.53844  22560885.094                    22560892.410
 110242653.297 7  85903450.824 7  20978476.742                    20978483.508
 106537092.468 8  83016010.454 8  20273309.406                    20273316.086
 11  8 14  2 14  0.0000000  0  9G29G26G04G02G30G25G10G12G05
 122789159.666 7  95679946.754 6  23366002.445                    23366011.250
 129705025.839 6 101068924.70143  24682055.531                    24682064.977
 128359532.776 7 100020514.35943  24425988.977                    24425997.391
 111731516.034 8  87063648.87246  21261777.984                    21261782.793
 112703883.349 7  87821295.27145  21446838.352                    21446845.730
 114202673.474 7  88989147.453 7  21732041.523                    21732051.535
 118649544.231 7  92454269.00444  22578237.445                    22578245.582
 110279712.288 8  85932327.956 7  20985528.680                    20985535.594
 106533033.761 8  83012847.854 8  20272537.133                    20272543.773
 11  8 14  2 14 30.0000000  0  9G29G26G04G02G30G25G10G12G05
 122705975.466 7  95615127.977 6  23350172.906                    23350181.844
 129611216.755 6 100995826.80643  24664203.844                    24664213.453
 128439037.656 7 100082466.21943  24441117.820                    24441125.926
 111765534.251 8  87090156.59846  21268251.703                    21268256.242
 112701285.657 7  87819271.11545  21446343.961                    21446351.301
 114173554.665 8  88966457.509 7  21726500.453                    21726510.363
 118741048.344 7  92525570.88044  22595649.828                    22595657.863
 110317308.133 8  85961623.427 7  20992682.672                    20992689.371
 106529549.357 8  83010132.761 8  20271873.453                    20271880.895
 11  8 14  2 15  0.0000000  0  9G29G26G04G02G30G25G10G12G05
 122622791.367 6  95550309.288 6  23334343.250                    23334352.168
 129517300.554 6 100922645.44443  24646332.250                    24646341.609
 128518483.700 6 100144372.28343  24456235.648                    24456243.848
 111799662.986 8  87116750.43246  21274746.102                    21274750.840
 112699298.766 7  87817722.90245  21445965.563                    21445973.363
 114145001.641 8  88944208.434 7  21721067.031                    21721077.234
 118832865.863 7  92597116.97744  22613122.367                    22613130.332
 110355439.105 8  85991335.883 7  20999939.070                    20999945.855
 106526638.605 8  83007864.668 8  20271320.148                    20271327.020
 11  8 14  2 15 30.0000000  0  9G29G26G04G02G30G25G10G12G05
 122539608.615 6  95485491.645 6  23318514.352                    23318523.129
 129423280.313 6 100849382.95943  24628440.883                    24628450.027
 128597870.789 6 100206232.35143  24471343.109                    24471351.574
 111833901.592 8  87143429.88746  21281261.211                    21281265.945
 112697922.322 7  87816650.37145  21445703.672                    21445710.871
 114117015.324 8  88922400.940 7  21715741.195                    21715751.199
 118924994.087 7  92668905.17144  22630654.063                    22630661.621
 110394103.715 8  86021464.141 7  21007296.711                    21007303.453
 106524301.212 8  83006043.349 8  20270875.125                    20270882.121
 11  8 14  2 16  0.0000000  0  9G29G26G04G02G30G25G10G12G05
 122456428.644 6  95420676.181 6  23302685.680                    23302694.234
 129329159.022 6 100776041.80642  24610530.625                    24610539.789
 128677198.564 6 100268046.18143  24486438.000                    24486446.996
 111868249.821 8  87170194.75946  21287797.781                    21287802.352
 112697156.082 7  87816053.31146  21445557.992                    21445565.523
 114089596.698 7  88901035.810 7  21710524.109                    21710533.617
 119017430.244 7  92740933.33644  22648243.570                    22648251.230
 110433300.387 8  86052007.014 7  21014755.594                    21014762.477
 106522537.000 8  83004668.666 8  20270539.781                    20270546.320
 11  8 14  2 16 30.0000000  0  9G29G26G04G02G30G25G10G12G05
 122373252.732 7  95355863.891 6  23286858.039                    23286866.434
 129234939.651 6 100702624.18543  24592600.281                    24592610.297
 128756466.735 6 100329813.60742  24501522.320                    24501530.996
 111902706.777 7  87197044.35146  21294355.156                    21294359.340
 112696999.329 7  87815931.17845  21445527.961                    21445535.457
 114062746.335 8  88880113.476 7  21705414.445                    21705423.867
 119110170.935 7  92813198.78044  22665891.602                    22665899.496
 110473027.437 8  86082963.160 7  21022315.352                    21022322.551
 106521344.978 8  83003739.844 8  20270312.539                    20270319.496
 11  8 14  2 17  0.0000000  0  9G29G26G04G02G30G25G10G12G05
 122290082.235 6  95291055.821 6  23271031.383                    23271039.695
 129140625.145 6 100629132.44443  24574653.492                    24574662.293
 128835675.224 5 100391534.50542  24516594.117                    24516604.211
 111937272.120 7  87223978.40946  21300932.195                    21300936.977
 112697451.857 7  87816283.81145  21445613.961                    21445621.656
 114036465.228 8  88859634.719 7  21700413.367                    21700422.344
 119203213.571 7  92885699.51744  22683597.258                    22683604.980
 110513283.263 8  86114331.343 7  21029975.797                    21029982.395
 106520724.731 8  83003256.561 8  20270194.703                    20270201.492
 11  8 14  2 17 30.0000000  0  9G29G26G04G02G30G25G10G12G05
 122206918.641 7  95226253.137 6  23255205.172                    23255213.422
 129046218.450 6 100555568.83343  24556688.070                    24556698.047
 128914823.549 6 100453208.50242  24531655.906                    24531666.051
 111971945.405 8  87250996.57646  21307530.234                    21307535.203
 112698513.291 7  87817110.91045  21445816.359                    21445823.609
 114010754.173 8  88839600.158 7  21695520.453                    21695529.730
 119296555.309 6  92958433.29644  22701359.953                    22701367.539
 110554066.156 8  86146110.225 7  21037736.516                    21037743.148
 106520675.891 8  83003218.537 8  20270185.625                    20270192.121
 11  8 14  2 18  0.0000000  0  9G29G26G04G02G30G25G10G12G05
 122123763.384 7  95161456.960 6  23239381.281                    23239389.813
 128951722.682 6 100481935.82743  24538705.898                    24538715.938
 128993911.629 6 100514835.59043  24546706.539                    24546715.973
 112006726.041 8  87278098.39246  21314148.875                    21314153.496
 112700182.971 7  87818411.97145  21446133.977                    21446141.695
 113985613.858 8  88820010.324 7  21690736.633                    21690745.922
 119390193.332 6  93031397.97444  22719178.805                    22719186.199
 110595374.721 8  86178298.719 7  21045597.141                    21045603.949
 106521197.901 8  83003625.322 8  20270284.563                    20270291.484
 11  8 14  2 18 30.0000000  0  9G29G26G04G02G30G25G10G12G05
 122040617.747 7  95096668.298 6  23223558.750                    23223567.367
 128857140.692 6 100408235.67643  24520707.492                    24520717.074
 129072939.122 6 100576415.48743  24561745.070                    24561753.430
 112041613.315 7  87305283.30746  21320787.570                    21320792.391
 112702460.317 7  87820186.54146  21446567.492                    21446574.824
 113961044.969 8  88800865.766 7  21686061.688                    21686070.973
 119484124.620 7  93104591.17844  22737053.031                    22737060.203
 110637206.835 8  86210895.177 7  21053557.719                    21053564.590
 106522289.977 8  83004476.320 8  20270492.281                    20270499.016
 11  8 14  2 19  0.0000000  0  9G29G26G04G02G30G25G10G12G05
 121957483.352 6  95031888.389 6  23207738.781                    23207747.199
 128762475.543 6 100334470.70543  24502694.336                    24502702.469
 129151905.665 6 100637947.96742  24576772.109                    24576780.211
 112076606.584 7  87332550.80346  21327447.117                    21327451.996
 112705344.934 7  87822434.31346  21447116.180                    21447123.863
 113937048.201 8  88782167.001 7  21681494.945                    21681504.578
 119578346.316 6  93178010.65944  22754982.703                    22754990.055
 110679560.783 8  86243898.250 7  21061617.211                    21061624.055
 106523951.451 7  83005771.007 8  20270808.539                    20270815.500
 11  8 14  2 19 30.0000000  0  9G29G26G04G02G30G25G10G12G05
 121874361.309 7  94967118.101 6  23191921.828                    23191929.406
 128667730.350 6 100260643.34843  24484664.016                    24484672.926
 129230811.234 6 100699432.80842  24591787.195                    24591795.480
 112111705.465 7  87359900.59846  21334125.633                    21334130.391
 112708836.088 7  87825154.70445  21447780.438                    21447787.836
 113913624.231 8  88763914.582 7  21677037.492                    21677046.645
 119672855.566 7  93251654.21644  22772967.320                    22772975.109
 110722435.429 8  86277307.073 7  21069776.211                    21069782.855
 106526181.857 8  83007509.009 8  20271232.750                    20271239.750
 11  8 14  2 20  0.0000000  0  9G29G26G04G02G30G25G10G12G05
 121791253.170 6  94902358.649 6  23176106.055                    23176114.215
 128572908.231 6 100186756.02543  24466620.094                    24466628.711
 129309655.855 6 100760870.24142  24606790.633                    24606798.418
 112146909.469 7  87387332.31446  21340824.773                    21340829.539
 112712933.369 7  87828347.40245  21448560.234                    21448567.535
 113890773.818 8  88746109.091 7  21672688.938                    21672698.527
 119767649.273 7  93325519.41944  22791006.297                    22791013.027
 110765828.547 8  86311119.891 7  21078033.461                    21078040.480
 106528980.499 8  83009689.794 8  20271765.320                    20271772.027
 11  8 14  2 20 30.0000000  0  9G29G26G04G02G30G25G10G12G05
 121708160.257 6  94837611.050 6  23160293.609                    23160301.848
 128478011.958 6 100112810.95543  24448561.734                    24448570.801
 129388439.060 6 100822259.79042  24621782.625                    24621790.848
 112182218.208 7  87414845.62446  21347543.906                    21347548.344
 112717635.931 7  87832011.74945  21449455.297                    21449462.332
 113868497.497 8  88728750.941 7  21668450.078                    21668459.262
 119862724.945 7  93399604.35544  22809098.461                    22809105.789
 110809738.172 8  86345335.183 7  21086389.242                    21086395.895
 106532346.534 8  83012312.714 8  20272406.164                    20272412.723
 11  8 14  2 21  0.0000000  0  9G29G26G04G02G30G25G10G12G05
 121625084.330 6  94772876.662 6  23144485.094                    23144493.066
 128383044.772 7 100038810.66543  24430490.695                    24430499.031
 129467160.579 6 100883601.22942  24636762.797                    24636771.117
 112217631.219 7  87442440.19746  21354282.070                    21354286.840
 112722943.250 8  87836147.33545  21450465.242                    21450472.371
 113846795.875 8  88711840.609 7  21664320.477                    21664329.914
 119958079.497 7  93473906.57644  22827243.906                    22827251.223
 110854162.899 8  86379951.859 7  21094842.648                    21094849.504
 106536279.305 8  83015377.236 8  20273154.508                    20273161.262
 11  8 14  2 21 30.0000000  0  9G29G26G04G02G30G25G10G12G05
 121542026.475 7  94708156.373 6  23128679.258                    23128688.328
 128288009.822 6  99964757.53843  24412405.227                    24412414.246
 129545820.298 6 100944894.54843  24651730.750                    24651740.391
 112253147.662 7  87470115.36946  21361041.172                    21361046.133
 112728854.502 7  87840753.52245  21451590.320                    21451597.105
 113825669.429 8  88695378.470 7  21660300.047                    21660309.547
 120053709.825 6  93548423.70044  22845441.305                    22845448.848
 110899100.552 8  86414968.206 7  21103394.484                    21103401.293
 106540777.975 8  83018882.720 8  20274010.227                    20274017.051
 11  8 14  2 22  0.0000000  0  9G29G26G04G02G30G25G10G12G05
 121458988.395 7  94643451.473 6  23112877.648                    23112886.066
 128192910.176 6  99890654.00643  24394308.055                    24394317.359
 129624418.244 6 101006139.75742  24666687.352                    24666695.707
 112288767.441 7  87497871.05846  21367819.141                    21367823.883
 112735369.193 8  87845829.92245  21452829.297                    21452836.840
 113805118.983 8  88679365.156 7  21656389.469                    21656398.707
 120149613.175 7  93623153.56944  22863691.375                    22863698.777
 110944549.658 8  86450383.106 7  21112042.883                    21112049.574
 106545842.139 8  83022828.846 8  20274974.023                    20274981.129
 11  8 14  2 22 30.0000000  0  9G29G26G04G02G30G25G10G12G05
 121375971.924 7  94578763.392 6  23097080.352                    23097088.695
 128097749.231 6  99816502.73543  24376199.680                    24376209.648
 129702954.367 7 101067336.74443  24681633.156                    24681642.016
 112324490.393 8  87525707.14646  21374617.328                    21374622.203
 112742486.799 7  87851376.12245  21454184.188                    21454190.957
 113785145.240 8  88663801.236 7  21652588.359                    21652597.898
 120245786.987 7  93698094.17944  22881992.477                    22881999.902
 110990508.717 8  86486195.372 7  21120788.867                    21120795.496
 106551471.228 8  83027215.179 8  20276045.164                    20276052.188
 11  8 14  2 23  0.0000000  0  8G29G26G02G30G25G10G12G05
 121292978.259 7  94514093.064 6  23081287.219                    23081295.715
 128002529.841 6  99742305.95843  24358080.055                    24358089.207
 112360315.408 8  87553622.76446  21381434.664                    21381439.340
 112750206.133 7  87857391.20145  21455653.211                    21455660.285
 113765748.374 8  88648686.812 7  21648897.336                    21648906.789
 120342228.219 6  93773243.16044  22900344.430                    22900352.309
 111036975.291 8  86522403.089 7  21129631.031                    21129637.984
 106557663.978 8  83032040.728 8  20277223.711                    20277230.246
 11  8 14  2 23 30.0000000  0  8G29G26G02G30G25G10G12G05
 121210008.622 7  94449441.467 6  23065498.672                    23065506.832
 127907255.038 6  99668065.94443  24339949.227                    24339958.820
 112396242.179 8  87581617.67646  21388271.203                    21388275.645
 112758526.524 7  87863874.63245  21457236.398                    21457243.457
 113746928.869 8  88634022.283 7  21645316.125                    21645325.578
 120438933.891 6  93848598.20844  22918747.063                    22918754.629
 111083947.310 8  86559004.669 7  21138569.422                    21138576.422
 106564419.497 8  83037304.791 8  20278509.086                    20278515.840
 11  8 14  2 24  0.0000000  0  8G29G26G02G30G25G10G12G05
 121127064.696 7  94384809.868 6  23049715.414                    23049723.156
 127811927.936 6  99593785.24343  24321808.961                    24321818.902
 112432270.376 7  87609691.61846  21395126.789                    21395131.563
 112767446.977 7  87870825.65145  21458933.789                    21458940.938
 113728687.149 8  88619807.980 7  21641844.539                    21641854.453
 120535900.934 7  93924156.90544  22937199.734                    22937207.570
 111131422.934 8  86595998.667 7  21147603.617                    21147610.422
 106571736.947 7  83043006.729 8  20279901.617                    20279908.258
 11  8 14  2 24 30.0000000  0  8G29G26G02G30G25G10G12G05
 121044148.022 7  94320199.490 6  23033936.203                    23033944.418
 127716551.577 6  99519466.08143  24303659.883                    24303669.012
 112468399.565 8  87637844.25746  21402002.180                    21402006.934
 112776966.661 7  87878243.59845  21460745.555                    21460752.824
 113711023.613 8  88606044.214 7  21638483.586                    21638492.555
 120633126.651 6  93999917.17743  22955700.266                    22955707.875
 111179400.457 8  86633383.748 7  21156733.805                    21156740.324
 106579615.266 8  83049145.711 8  20281400.680                    20281407.234
 11  8 14  2 25  0.0000000  0  8G29G26G02G30G25G10G12G05
 120961260.364 7  94255611.718 6  23018163.727                    23018171.074
 127621129.278 6  99445111.09543  24285501.648                    24285510.238
 112504629.366 8  87666075.28646  21408896.234                    21408900.973
 112787084.848 7  87886127.90445  21462670.867                    21462678.230
 113693938.737 8  88592731.348 7  21635232.398                    21635241.641
 120730607.939 7  94075876.61844  22974251.344                    22974257.746
 111227877.729 8  86671158.250 7  21165958.438                    21165965.191
 106588053.930 7  83055721.316 8  20283006.727                    20283013.656
 11  8 14  2 25 30.0000000  0  8G29G26G02G30G25G10G12G05
 120878403.256 7  94191047.758 7  23002395.930                    23002404.324
 127525664.530 6  99370723.10943  24267335.297                    24267343.535
 112540959.261 8  87694384.32346  21415809.617                    21415813.988
 112797800.720 8  87894477.93145  21464710.055                    21464717.473
 113677433.048 8  88579869.799 7  21632091.508                    21632100.883
 120828342.370 7  94152033.31343  22992849.234                    22992855.996
 111276852.888 8  86709320.712 7  21175278.234                    21175285.086
 106597052.112 8  83062732.907 8  20284718.813                    20284725.875
 11  8 14  2 26  0.0000000  0  8G29G26G02G30G25G10G12G05
 120795578.301 7  94126508.853 6  22986635.070                    22986642.582
 127430160.308 7  99296304.31743  24249161.359                    24249169.887
 112577389.070 8  87722771.19246  21422741.938                    21422746.742
 112809113.417 7  87903293.02845  21466862.680                    21466869.566
 113661506.970 8  88567459.886 7  21629060.922                    21629069.992
 120926327.208 6  94228385.11344  23011494.820                    23011502.180
 111326324.285 8  86747869.856 7  21184692.117                    21184698.930
 106606608.620 7  83070179.563 8  20286537.281                    20286544.191
 11  8 14  2 26 30.0000000  0  8G29G26G02G30G25G10G12G05
 120712786.651 7  94061995.918 6  22970879.773                    22970888.012
 127334619.483 6  99221857.02643  24230980.609                    24230989.340
 112613917.919 8  87751235.26346  21429693.391                    21429697.742
 112821021.642 8  87912572.17145  21469128.508                    21469135.617
 113646160.450 8  88555501.581 7  21626140.266                    21626149.461
 121024559.303 6  94304929.60743  23030188.375                    23030195.090
 111376289.261 8  86786803.609 7  21194200.148                    21194206.980
 106616722.310 8  83078060.384 8  20288462.047                    20288468.441
 11  8 14  2 27  0.0000000  0  8G29G26G02G30G25G10G12G05
 120630030.087 7  93997510.327 6  22955132.477                    22955140.523
 127239045.449 6  99147383.78743  24212792.820                    24212801.176
 112650545.555 8  87779776.30446  21436663.211                    21436667.793
 112833524.404 7  87922314.58545  21471508.117                    21471514.883
 113631393.863 8  88543995.161 7  21623330.430                    21623339.566
 121123035.656 6  94381664.41244  23048927.336                    23048935.230
 111426745.952 8  86826120.515 7  21203802.195                    21203808.441
 106627392.716 7  83086375.006 8  20290492.734                    20290499.438
 11  8 14  2 27 30.0000000  0  8G29G26G02G30G25G10G12G05
 120547310.003 7  93933053.176 6  22939391.641                    22939399.168
 127143441.136 6  99072887.00243  24194601.117                    24194608.285
 112687271.664 8  87808394.07646  21443652.039                    21443656.563
 112846620.512 7  87932519.34945  21474000.133                    21474007.273
 113617207.315 8  88532940.727 7  21620630.727                    21620639.973
 121221753.186 6  94458587.13544  23067712.031                    23067720.473
 111477692.136 8  86865818.844 7  21213496.492                    21213503.313
 106638618.156 8  83095122.123 8  20292628.719                    20292635.422
 11  8 14  2 28  0.0000000  0  8G29G26G02G30G25G10G12G05
 120464627.875 7  93868625.599 6  22923657.156                    22923664.930
 127047809.703 6  98998369.08643  24176402.406                    24176410.941
 112724095.189 8  87837087.76046  21450659.211                    21450664.066
 112860308.716 8  87943185.48845  21476604.828                    21476611.910
 113603600.726 8  88522338.197 7  21618041.492                    21618051.047
 121320708.983 6  94535695.50443  23086543.188                    23086551.242
 111529125.602 8  86905896.880 7  21223284.273                    21223291.125
 106650397.212 8  83104300.628 8  20294869.852                    20294876.203
 11  8 14  2 28 30.0000000  0  8G29G26G02G30G25G10G12G05
 120381985.468 7  93804229.001 6  22907930.820                    22907938.422
 126952154.528 6  98923832.66843  24158199.734                    24158208.313
 112761016.259 8  87865857.45546  21457685.414                    21457689.625
 112874588.364 7  87954312.48745  21479321.922                    21479329.629
 113590574.809 8  88512188.143 7  21615562.922                    21615572.156
 121419900.476 6  94612987.56844  23105418.664                    23105426.863
 111581044.474 8  86946353.154 7  21233163.648                    21233170.770
 106662729.490 8  83113910.215 8  20297216.789                    20297223.336
 11  8 14  2 29  0.0000000  0  8G29G26G02G30G25G10G12G05
 120299384.524 7  93739864.729 6  22892211.672                    22892219.926
 126856478.768 6  98849280.21643  24139992.961                    24140002.012
 112798034.583 8  87894702.92846  21464729.453                    21464734.305
 112889458.249 7  87965899.41245  21482151.914                    21482159.145
 113578129.629 8  88502490.610 7  21613194.492                    21613203.340
 121519324.674 6  94690460.94244  23124338.547                    23124346.543
 111633446.519 8  86987185.917 7  21243135.641                    21243142.328
 106675613.804 8  83123949.965 8  20299668.727                    20299675.258
 11  8 14  2 29 30.0000000  0  8G29G26G02G30G25G10G12G05
 120216826.523 7  93675533.922 6  22876502.023                    22876509.902
 126760785.902 6  98774714.43243  24121783.156                    24121791.488
 112835149.781 8  87923623.88446  21471792.281                    21471797.066
 112904917.379 8  87977945.50945  21485093.055                    21485101.043
 113566265.514 8  88493245.846 7  21610937.125                    21610946.117
 121618978.950 6  94768113.60444  23143302.813                    23143310.469
 111686329.894 8  87028393.750 7  21253199.141                    21253206.129
 106689049.239 8  83134419.155 8  20302225.242                    20302231.645
 11  8 14  2 30  0.0000000  0  8G29G26G02G30G25G10G12G05
 120134313.128 7  93611237.864 6  22860800.000                    22860807.473
 126665078.899 6  98700137.66343  24103570.266                    24103579.355
 112872361.248 8  87952619.85446  21478873.422                    21478878.117
 112920964.263 8  87990449.58645  21488147.133                    21488154.648
 113554982.291 8  88484453.733 7  21608789.906                    21608799.074
 121718860.076 7  94845943.05344  23162309.070                    23162316.457
 111739691.992 8  87069974.606 7  21263353.555                    21263360.492
 106703034.163 8  83145316.514 8  20304886.289                    20304893.020
 11  8 14  2 30 30.0000000  0  8G29G26G02G30G25G10G12G05
 120051846.122 7  93546977.959 6  22845106.969                    22845114.625
 126569361.204 6  98625552.56243  24085356.461                    24085365.266
 112909669.009 8  87981690.86346  21485972.563                    21485977.547
 112937598.011 7  88003410.95645  21491312.391                    21491319.641
 113544280.247 8  88476114.475 7  21606753.117                    21606762.559
 121818965.402 7  94923947.22544  23181358.531                    23181366.289
 111793530.853 8  87111926.974 7  21273598.914                    21273605.527
 106717567.787 7  83156641.445 8  20307652.258                    20307658.762
 11  8 14  2 31  0.0000000  0  8G29G26G02G30G25G10G12G05
 119969426.739 7  93482755.177 6  22829422.852                    22829430.992
 126473636.164 6  98550961.71143  24067140.977                    24067148.941
 112947072.392 8  88010836.38046  21493090.016                    21493094.902
 112954817.356 8  88016828.64445  21494589.344                    21494596.352
 113534159.553 8  88468228.216 7  21604827.523                    21604836.602
 121919292.511 7  95002124.18144  23200449.961                    23200457.391
 111847844.628 8  87154249.397 7  21283934.305                    21283941.004
 106732649.004 8  83168393.064 8  20310521.977                    20310528.402
 11  8 14  2 31 30.0000000  0  8G29G26G02G30G25G10G12G05
 119887057.056 7  93418571.132 6  22813748.453                    22813756.633
 126377906.995 6  98476367.67843  24048923.719                    24048932.117
 112984571.093 8  88040056.16246  21500226.266                    21500230.617
 112972621.049 7  88030701.66345  21497977.109                    21497984.305
 113524620.242 8  88460794.987 7  21603012.195                    21603021.594
 122019837.833 7  95080471.20444  23219583.375                    23219590.867
 111902630.879 8  87196939.995 7  21294359.930                    21294366.465
 106748276.452 7  83180570.317 8  20313495.617                    20313502.215
 11  8 14  2 32  0.0000000  0  8G29G26G02G30G25G10G12G05
 119804738.579 7  93354426.986 6  22798083.734                    22798091.426
 126282177.015 6  98401772.97943  24030706.469                    24030715.039
 113022164.947 8  88069350.08446  21507380.164                    21507384.328
 112991007.763 8  88045028.99745  21501475.680                    21501482.648
 113515662.195 8  88453814.697 7  21601307.336                    21601316.715
 122120598.839 7  95158986.27343  23238757.664                    23238764.988
 111957887.106 8  87239996.793 7  21304874.555                    21304881.207
 106764448.870 8  83193172.223 8  20316573.273                    20316579.805
 11  8 14  2 32 30.0000000  0  8G29G26G02G30G25G10G12G05
 119722473.091 7  93290324.114 6  22782429.203                    22782436.633
 126186449.371 6  98327180.10843  24012490.078                    24012498.988
 113059853.474 8  88098717.77646  21514552.094                    21514556.363
 113009976.214 7  88059809.62045  21505085.180                    21505092.742
 113507285.474 8  88447287.388 7  21599713.656                    21599722.910
 122221572.655 7  95237667.16843  23257972.508                    23257980.188
 112013611.153 8  87283418.129 7  21315478.602                    21315485.055
 106781165.048 8  83206197.839 8  20319754.305                    20319760.582
 11  8 14  2 33  0.0000000  0  8G29G26G02G30G25G10G12G05
 119640262.148 7  93226263.753 7  22766784.703                    22766792.492
 126090727.587 6  98252591.79143  23994274.984                    23994283.246
 113097636.198 8  88128158.85546  21521741.891                    21521746.492
 113029525.111 7  88075042.54145  21508805.727                    21508812.965
 113499490.102 8  88441213.086 7  21598229.789                    21598239.168
 122322756.506 7  95316511.69844  23277226.930                    23277234.758
 112069800.975 8  87327202.412 7  21326171.320                    21326177.699
 106798423.967 8  83219646.375 8  20323038.539                    20323044.828
 11  8 14  2 33 30.0000000  0  8G29G26G02G30G25G10G12G05
 119558107.491 7  93162247.244 7  22751151.109                    22751159.031
 125995014.767 6  98178010.47843  23976060.484                    23976069.984
 113135513.213 8  88157673.42246  21528949.625                    21528954.105
 113049653.111 7  88090726.71045  21512635.461                    21512643.172
 113492275.932 8  88435591.674 7  21596857.250                    21596866.508
 122424147.838 7  95395517.91044  23296521.633                    23296529.273
 112126454.202 8  87371347.786 7  21336951.961                    21336958.781
 106816224.070 8  83233516.603 8  20326425.523                    20326432.082
 11  8 14  2 34  0.0000000  0  8G29G26G02G30G25G10G12G05
 119476010.785 7  93098275.899 7  22735528.398                    22735536.586
 125899314.415 6  98103438.86943  23957849.914                    23957858.000
 113173484.104 8  88187261.15346  21536175.102                    21536179.801
 113070358.871 8  88106861.09045  21516575.922                    21516582.988
 113485643.029 8  88430423.196 7  21595595.125                    21595604.352
 122525743.711 7  95474683.50244  23315854.516                    23315862.277
 112183568.536 8  87415852.462 7  21347820.508                    21347827.367
 106834564.096 8  83247807.560 8  20329915.977                    20329921.961
 11  8 14  2 34 30.0000000  0  8G29G26G02G30G25G10G12G05
 119393973.886 7  93034351.141 7  22719917.391                    22719925.215
 125803629.660 6  98028879.38243  23939641.844                    23939649.609
 113211548.509 8  88216921.74646  21543418.453                    21543423.188
 113091641.004 7  88123444.58945  21520625.484                    21520632.660
 113479591.238 8  88425707.535 7  21594443.281                    21594452.508
 122627541.120 7  95554006.15744  23335225.563                    23335233.234
 112241141.744 7  87460714.713 7  21358776.414                    21358782.633
 106853442.753 8  83262518.220 8  20333507.977                    20333514.410
 11  8 14  2 35  0.0000000  0  8G29G26G02G30G25G10G12G05
 119311998.624 7  92970474.418 6  22704317.961                    22704325.668
 125707963.956 7  97954334.73143  23921437.523                    23921444.688
 113249706.324 8  88246655.12046  21550679.367                    21550684.152
 113113498.090 7  88140476.09745  21524784.813                    21524792.203
 113474120.486 8  88421444.636 7  21593401.906                    21593411.277
 122729537.546 7  95633483.88844  23354634.391                    23354642.121
 112299171.368 7  87505932.594 7  21369818.867                    21369825.500
 106872858.897 8  83277647.706 8  20337202.828                    20337209.070
 11  8 14  2 35 30.0000000  0  8G29G26G02G30G25G10G12G05
 119230086.295 7  92906646.711 7  22688730.492                    22688738.281
 125612320.790 6  97879807.62543  23903236.813                    23903244.508
 113287956.776 8  88276460.67046  21557958.555                    21557963.152
 113135928.636 7  88157954.46045  21529053.609                    21529060.746
 113469230.457 8  88417634.256 7  21592471.461                    21592480.785
 122831729.895 7  95713114.29744  23374081.211                    23374089.141
 112357655.295 8  87551504.488 7  21380948.180                    21380954.758
 106892810.830 8  83293194.686 8  20340999.547                    20341006.000
 11  8 14  2 36  0.0000000  0  8G29G26G02G30G25G10G12G05
 119148238.906 7  92842869.604 7  22673155.109                    22673163.363
 125516703.199 6  97805300.48643  23885041.414                    23885049.125
 113326299.731 8  88306338.29446  21565254.672                    21565259.172
 113158930.906 7  88175878.32345  21533430.555                    21533438.320
 113464920.861 8  88414276.167 7  21591651.539                    21591660.852
 122934115.583 6  95792895.33043  23393564.648                    23393572.387
 112416590.773 7  87597428.240 7  21392163.156                    21392169.602
 106913297.226 8  83309158.136 8  20344897.984                    20344904.168
 11  8 14  2 36 30.0000000  0  8G29G26G02G30G25G10G12G05
 119066458.315 7  92779144.540 7  22657593.328                    22657600.801
 125421114.781 6  97730816.08943  23866851.469                    23866859.652
 113364735.319 8  88336288.11546  21572569.117                    21572573.230
 113182503.965 8  88194246.95745  21537916.453                    21537923.727
 113461191.889 8  88411370.511 7  21590941.641                    21590950.813
 123036691.955 6  95872824.96143  23413083.625                    23413092.027
 112475975.569 8  87643702.107 7  21403463.758                    21403470.172
 106934316.965 8  83325537.173 8  20348897.945                    20348904.531
 11  8 14  2 37  0.0000000  0  8G29G26G02G30G25G10G12G05
 118984745.925 7  92715472.605 7  22642043.273                    22642051.219
 125325558.890 6  97656357.05543  23848667.609                    23848676.156
 113403262.619 8  88366309.38246  21579900.109                    21579904.859
 113206645.766 7  88213058.75945  21542510.398                    21542518.148
 113458042.874 8  88408916.773 7  21590342.594                    21590352.074
 123139455.929 6  95952900.77142  23432638.477                    23432646.750
 112535807.339 7  87690324.272 7  21414849.313                    21414855.719
 106955868.237 7  83342330.396 8  20352998.891                    20353005.441
 11  8 14  2 37 30.0000000  0  8G29G26G02G30G25G10G12G05
 118903103.977 7  92651855.547 6  22626507.781                    22626515.328
 125230039.052 6  97581926.12443  23830490.680                    23830498.859
 113441882.223 8  88396402.58946  21587249.438                    21587254.008
 113231355.223 7  88232312.89045  21547212.063                    21547219.832
 113455473.936 8  88406915.033 7  21589853.648                    21589863.105
 123242404.932 6  96033120.76942  23452229.281                    23452237.129
 112596083.863 8  87737292.997 7  21426319.359                    21426326.316
 106977950.011 8  83359536.989 8  20357201.031                    20357207.207
 11  8 14  2 38  0.0000000  0  8G29G26G02G30G25G10G12G05
 118821533.840 7  92588294.450 7  22610985.008                    22610992.441
 125134558.477 6  97507525.77143  23812321.258                    23812329.184
 113480593.268 8  88426567.04046  21594615.688                    21594620.324
 113256630.505 7  88252007.93045  21552022.258                    21552029.590
 113453484.587 7  88405364.928 7  21589475.141                    21589484.801
 123345535.988 6  96113482.62943  23471854.828                    23471861.914
 112656802.588 8  87784606.292 7  21437873.703                    21437880.695
 107000560.516 8  83377155.578 8  20361503.773                    20361509.977
 11  8 14  2 38 30.0000000  0  8G29G26G02G30G25G10G12G05
 118740037.762 7  92524791.048 7  22595477.047                    22595484.480
 125039120.764 6  97433158.81344  23794160.406                    23794168.801
 113519395.714 8  88456802.71946  21601999.453                    21602004.664
 113282470.110 7  88272142.69945  21556939.406                    21556946.316
 113452074.600 8  88404266.268 7  21589206.977                    21589216.320
 123448846.692 7  96193984.48443  23491514.938                    23491521.672
 112717960.975 7  87832262.179 7  21449511.766                    21449518.668
 107023698.623 8  83395185.296 8  20365906.820                    20365913.027
 11  8 14  2 39  0.0000000  0  8G29G26G02G30G25G10G12G05
 118658617.217 7  92461346.505 6  22579983.328                    22579991.430
 124943729.134 7  97358827.75844  23776007.805                    23776015.891
 113558289.163 8  88487109.32846  21609401.031                    21609405.207
 113308872.227 7  88292715.78045  21561963.789                    21561971.063
 113451243.470 8  88403618.660 7  21589048.727                    21589057.809
 123552334.187 7  96274624.09344  23511208.156                    23511215.211
 112779556.578 7  87880258.760 7  21461233.453                    21461239.922
 107047362.793 8  83413624.933 8  20370409.969                    20370416.262
 11  8 14  2 39 30.0000000  0  8G29G26G02G30G25G10G12G05
 118577274.402 7  92397962.521 7  22564504.227                    22564511.691
 124848387.131 7  97284535.38244  23757865.055                    23757872.961
 113597273.927 8  88517487.07946  21616819.867                    21616824.523
 113335835.642 7  88313726.25245  21567094.383                    21567101.828
 113450991.156 8  88403422.083 7  21589000.453                    21589010.215
 123655995.547 7  96355399.17343  23530934.430                    23530941.090
 112841587.383 8  87928594.464 7  21473037.461                    21473044.223
 107071551.604 8  83432473.370 8  20375012.391                    20375019.133
 11  8 14  2 40  0.0000000  0  8G29G26G02G30G25G10G12G05
 118496010.521 7  92334640.065 7  22549040.328                    22549047.859
 124753098.007 7  97210284.19744  23739731.914                    23739739.668
 113636349.184 8  88547935.34946  21624255.094                    21624259.863
 113363358.191 7  88335172.40245  21572331.570                    21572339.008
 113451316.825 8  88403675.878 7  21589062.398                    21589072.035
 123759827.791 7  96436307.40844  23550692.688                    23550699.777
 112904050.463 8  87977266.999 7  21484923.219                    21484930.234
 107096262.878 8  83451728.928 8  20379715.188                    20379721.488
 11  8 14  2 40 30.0000000  0  8G29G26G02G30G25G10G12G05
 118414827.413 7  92271380.562 7  22533591.398                    22533599.012
 124657865.094 7  97136076.83344  23721609.953                    23721617.371
 113675514.731 8  88578453.96446  21631708.008                    21631712.309
 113391438.033 7  88357052.82145  21577675.008                    21577682.125
 113452219.927 8  88404379.618 7  21589234.313                    21589243.734
 123863828.028 7  96517346.55744  23570483.484                    23570490.637
 112966942.596 7  88026273.862 7  21496891.461                    21496898.195
 107121494.757 8  83471390.146 8  20384516.586                    20384522.613
 11  8 14  2 41  0.0000000  0  9G29G26G15G02G30G25G10G12G05
 118333727.765 7  92208186.093 7  22518158.688                    22518166.254
 124562692.381 7  97061916.33744  23703498.680                    23703506.691
 129409839.35116 100838888.67316  24625881.633                    24625890.969
 113714770.986 8  88609043.27145  21639178.367                    21639182.438
 113420074.331 7  88379366.82745  21583124.336                    21583131.164
 113453700.817 7  88405533.584 7  21589516.250                    21589525.410
 123967994.273 7  96598515.05443  23590305.500                    23590312.988
 113030262.654 7  88075614.170 7  21508941.313                    21508947.621
 107147247.307 8  83491457.092 8  20389417.164                    20389423.563
 11  8 14  2 41 30.0000000  0  9G29G26G15G02G30G25G10G12G05
 118252712.577 7  92145057.432 7  22502741.898                    22502749.227
 124467582.791 6  96987805.04143  23685399.633                    23685407.832
 129316256.913 6 100765967.482 6  24608073.398                    24608082.691
 113754117.005 8  88639702.52545  21646665.086                    21646669.805
 113449264.373 7  88402112.32645  21588679.586                    21588686.719
 113455758.165 8  88407136.727 7  21589907.656                    21589916.949
 124072323.178 7  96679810.27543  23610158.617                    23610165.691
 113094007.143 7  88125285.206 7  21521071.180                    21521077.707
 107173517.605 8  83511927.477 8  20394415.906                    20394422.645
 11  8 14  2 42  0.0000000  0  9G29G26G15G02G30G25G10G12G05
 118171783.908 7  92081996.198 7  22487341.484                    22487349.047
 124372539.774 6  96913745.66343  23667313.023                    23667321.684
 129222547.569 6 100692947.399 6  24590240.938                    24590251.055
 113793552.845 8  88670431.76045  21654170.023                    21654174.051
 113479006.847 7  88425288.28745  21594338.844                    21594346.367
 113458391.790 8  88409188.918 7  21590409.117                    21590418.414
 124176812.294 6  96761230.35943  23630041.836                    23630049.379
 113158174.024 8  88175285.370 7  21533281.867                    21533288.430
 107200304.246 8  83532800.200 8  20399513.172                    20399519.813
 11  8 14  2 42 30.0000000  0  9G29G26G15G02G30G25G10G12G05
 118090943.682 7  92019003.907 7  22471958.047                    22471965.617
 124277566.981 6  96839740.97943  23649240.570                    23649248.887
 129128713.425 6 100619830.082 6  24572384.969                    24572394.613
 113833078.584 8  88701231.05046  21661691.609                    21661695.797
 113509299.971 7  88448893.33245  21600103.656                    21600110.758
 113461601.294 8  88411689.840 7  21591019.805                    21591028.734
 124281459.116 6  96842773.31343  23649955.898                    23649962.914
 113222760.709 8  88225612.660 7  21545572.117                    21545578.941
 107227605.805 8  83554074.165 8  20404708.469                    20404715.238
 11  8 14  2 43  0.0000000  0  9G29G26G15G02G30G25G10G12G05
 118010193.914 7  91956082.099 7  22456591.523                    22456599.352
 124182667.966 6  96765793.73243  23631181.211                    23631189.238
 129034756.992 6 100546617.457 6  24554505.008                    24554515.051
 113872693.818 8  88732100.07246  21669230.031                    21669234.250
 113540141.875 7  88472925.99145  21605972.297                    21605979.387
 113465386.039 8  88414639.004 7  21591739.781                    21591749.398
 124386260.912 6  96924437.04043  23669898.836                    23669906.602
 113287764.168 7  88276264.712 7  21557941.891                    21557948.320
 107255420.723 8  83575748.146 8  20410001.711                    20410007.961
 11  8 14  2 43 30.0000000  0  9G29G26G15G02G30G25G10G12G05
 117929536.252 7  91893232.058 7  22441243.031                    22441250.770
 124087846.152 6  96691906.71743  23613137.664                    23613144.809
 128940680.759 6 100473311.473 6  24536603.156                    24536612.586
 113912398.314 7  88763038.65845  21676785.477                    21676790.137
 113571530.738 7  88497384.85445  21611945.383                    21611952.793
 113469745.387 8  88418035.908 7  21592569.180                    21592578.504
 124491214.702 6  97006219.20243  23689871.383                    23689878.570
 113353182.004 7  88327239.645 7  21570390.430                    21570397.215
 107283747.083 8  83597820.661 8  20415392.047                    20415398.457
 11  8 14  2 44  0.0000000  0  9G29G26G15G02G30G25G10G12G05
 117848972.944 7  91830455.536 7  22425912.438                    22425919.828
 123993105.091 6  96618082.57043  23595108.281                    23595116.223
 128846487.493 6 100399914.280 6  24518678.969                    24518687.852
 113952192.307 8  88794046.97646  21684357.883                    21684362.613
 113603464.914 7  88522268.63745  21618022.352                    21618029.895
 113474679.001 8  88421880.289 7  21593507.930                    21593517.375
 124596317.905 7  97088117.81143  23709871.406                    23709879.070
 113419012.458 8  88378536.111 7  21582917.773                    21582924.270
 107312583.536 8  83620290.638 8  20420879.438                    20420886.090
 11  8 14  2 44 30.0000000  0  9G29G26G15G02G30G25G10G12G05
 117768505.637 7  91767753.829 7  22410600.063                    22410607.270
 123898448.254 6  96544324.09343  23577096.547                    23577104.227
 128752179.647 6 100326427.797 6  24500732.836                    24500742.102
 113992075.264 7  88825124.63545  21691947.406                    21691952.348
 113635942.257 8  88547575.66845  21624202.367                    21624210.375
 113480185.955 8  88426171.433 7  21594556.250                    21594565.242
 124701567.898 7  97170130.82143  23729899.969                    23729907.734
 113485252.117 8  88430151.431 7  21595522.680                    21595529.320
 107341928.378 8  83643156.768 8  20426463.680                    20426469.949
 11  8 14  2 45  0.0000000  0  9G29G26G15G02G30G25G10G12G05
 117688136.300 7  91705128.443 7  22395306.164                    22395313.270
 123803878.985 7  96470633.82044  23559100.758                    23559107.969
 128657759.285 6 100252853.668 6  24482765.156                    24482774.223
 114032047.048 7  88856271.49445  21699553.906                    21699558.352
 113668960.760 7  88573304.38045  21630485.609                    21630493.230
 113486265.550 7  88430908.787 7  21595713.359                    21595722.457
 124806962.119 7  97252256.24543  23749955.805                    23749963.086
 113551898.327 7  88482083.540 7  21608204.719                    21608211.566
 107371779.518 8  83666417.413 8  20432143.688                    20432150.059
 11  8 14  2 45 30.0000000  0  9G29G26G15G02G30G25G10G12G05
 117607866.589 7  91642580.691 7  22380031.711                    22380038.469
 123709400.896 7  96397014.59844  23541121.813                    23541129.242
 128563229.420 6 100179194.213 6  24464776.055                    24464785.016
 114072107.493 8  88887487.43545  21707177.367                    21707181.695
 113702518.643 7  88599453.39245  21636871.375                    21636879.289
 113492917.136 8  88436091.839 7  21596978.547                    21596988.133
 124912497.600 7  97334491.68243  23770038.422                    23770045.715
 113618948.521 8  88534330.453 7  21620964.148                    21620970.680
 107402135.253 8  83690071.246 8  20437920.367                    20437926.762
 11  8 14  2 46  0.0000000  0  9G29G26G15G02G30G25G10G12G05
 117527698.783 7  91580112.344 7  22364775.664                    22364783.398
 123615017.641 7  96323469.28044  23523161.133                    23523169.246
 128468592.790 6 100105451.560 6  24446766.992                    24446775.785
 114112256.793 7  88918772.61745  21714817.633                    21714821.801
 113736614.169 7  88626021.33345  21643359.773                    21643367.219
 113500140.267 8  88441720.262 7  21598353.109                    21598362.715
 125018171.622 7  97416835.09543  23790147.500                    23790154.992
 113686400.451 7  88586890.398 7  21633799.672                    21633806.672
 107432994.343 7  83714117.304 8  20443792.789                    20443799.434
 11  8 14  2 46 30.0000000  0  9G29G26G15G02G30G25G10G12G05
 117447634.507 7  91517724.663 7  22349539.852                    22349547.371
 123520732.624 7  96250000.51744  23505219.141                    23505227.883
 128373851.442 6 100031627.262 5  24428738.703                    24428747.262
 114152494.584 7  88950126.74745  21722474.219                    21722478.688
 113771245.124 7  88653006.50445  21649949.891                    21649957.391
 113507934.005 8  88447793.302 7  21599836.484                    21599845.449
 125123981.689 7  97499284.49143  23810282.695                    23810290.168
 113754251.005 7  88639760.959 7  21646711.359                    21646717.797
 107464354.422 8  83738553.746 8  20449760.094                    20449766.230
 11  8 14  2 47  0.0000000  0  9G29G26G15G02G30G25G10G12G05
 117367675.992 7  91455419.375 7  22334324.477                    22334331.734
 123426549.517 7  96176611.16344  23487297.281                    23487305.676
 128279008.184 6  99957723.550 5  24410689.883                    24410698.766
 114192820.785 7  88981549.76945  21730147.906                    21730152.359
 113806409.608 7  88680407.40145  21656641.211                    21656648.957
 113516297.625 8  88454310.414 7  21601427.953                    21601437.082
 125229925.288 6  97581837.91143  23830442.484                    23830450.992
 113822497.722 7  88692940.214 7  21659698.375                    21659705.301
 107496214.206 7  83763379.571 8  20455823.289                    20455829.840
 11  8 14  2 47 30.0000000  0  9G29G26G15G02G30G25G10G12G05
 117287825.203 7  91393198.037 7  22319129.359                    22319136.574
 123332471.693 7  96103303.84644  23469395.273                    23469403.004
 128184065.572 6  99883742.496 6  24392622.742                    24392631.859
 114233235.338 7  89013041.65345  21737838.961                    21737843.309
 113842105.598 7  88708222.46445  21663433.930                    21663441.543
 113525230.368 8  88461270.997 7  21603127.633                    21603136.852
 125335999.834 6  97664493.41043  23850627.273                    23850635.801
 113891138.164 7  88746426.285 7  21672760.047                    21672766.953
 107528571.780 7  83788593.280 8  20461980.641                    20461986.684
 11  8 14  2 48  0.0000000  0  9G29G26G15G02G30G25G10G12G05
 117208084.068 7  91331062.147 7  22303954.680                    22303962.383
 123238502.757 7  96030081.36244  23451513.250                    23451520.836
 128089026.371 6  99809686.108 5  24374537.219                    24374546.066
 114273738.171 8  89044602.31245  21745546.320                    21745550.660
 113878331.187 7  88736450.20545  21670327.758                    21670335.238
 113534731.486 8  88468674.469 7  21604935.813                    21604944.906
 125442202.563 6  97747248.74843  23870837.773                    23870845.930
 113960169.471 7  88800216.915 7  21685896.258                    21685903.422
 107561425.348 8  83814193.475 8  20468232.117                    20468238.762
 11  8 14  2 48 30.0000000  0  9G29G26G15G02G30G25G10G12G05
 117128454.385 7  91269013.113 7  22288801.844                    22288809.070
 123144646.298 7  95956946.53744  23433652.461                    23433660.488
 127993893.140 6  99735556.460 5  24356434.094                    24356442.910
 114314329.133 8  89076231.63345  21753270.172                    21753274.625
 113915084.219 7  88765088.93845  21677321.500                    21677328.805
 113544800.048 8  88476520.111 7  21606851.523                    21606860.563
 125548530.869 6  97830101.93143  23891070.875                    23891079.355
 114029588.964 7  88854310.031 7  21699106.609                    21699113.539
 107594773.112 8  83840178.763 8  20474578.313                    20474584.246
 11  8 14  2 49  0.0000000  0  9G29G26G15G02G30G25G10G12G05
 117048938.086 7  91207052.416 7  22273670.148                    22273677.379
 123050905.696 7  95883902.00344  23415813.445                    23415822.043
 127898668.409 6  99661355.522 6  24338313.758                    24338322.578
 114355007.768 8  89107929.27545  21761011.016                    21761015.688
 113952362.484 7  88794136.94945  21684415.672                    21684422.684
 113555435.111 8  88484807.172 7  21608875.648                    21608884.598
 125654981.818 6  97913050.71243  23911328.508                    23911336.344
 114099393.621 8  88908703.275 7  21712389.922                    21712396.520
 107628612.826 8  83866547.391 8  20481017.734                    20481024.172
 11  8 14  2 49 30.0000000  0  9G29G26G15G02G30G25G10G12G05
 116969537.664 7  91145182.023 7  22258560.445                    22258568.129
 122957284.772 6  95810950.71044  23397998.164                    23398006.523
 127803354.712 7  99587085.236 6  24320176.203                    24320184.605
 114395774.477 8  89139695.54545  21768768.789                    21768773.230
 113990163.943 7  88823592.64045  21691608.852                    21691615.848
 113566635.830 8  88493535.010 7  21611007.094                    21611016.102
 125761553.165 7  97996093.34543  23931609.109                    23931615.988
 114169580.737 7  88963394.539 7  21725745.695                    21725752.535
 107662943.287 8  83893298.412 8  20487550.586                    20487557.023
 11  8 14  2 50  0.0000000  0  9G29G26G15G02G30G25G10G12G05
 116890254.713 7  91083403.174 7  22243473.625                    22243481.387
 122863786.801 6  95738095.22544  23380206.391                    23380213.793
 127707954.555 6  99512747.609 6  24302021.820                    24302030.387
 114436628.977 8  89171530.22445  21776543.039                    21776547.602
 114028486.426 7  88853454.32445  21698900.805                    21698908.438
 113578401.217 8  88502702.859 7  21613245.828                    21613254.785
 125868242.117 7  98079227.59143  23951911.047                    23951918.098
 114240147.941 7  89018381.974 7  21739174.336                    21739180.914
 107697762.035 8  83920429.916 8  20494176.359                    20494182.707
 11  8 14  2 50 30.0000000  0  9G29G26G15G02G30G25G10G12G05
 116811090.993 7  91021717.218 7  22228408.891                    22228416.574
 122770415.452 7  95665338.40743  23362438.305                    23362445.426
 127612470.924 7  99438344.912 6  24283851.461                    24283860.484
 114477571.261 7  89203433.30745  21784334.430                    21784338.578
 114067327.838 7  88883720.36245  21706291.617                    21706299.223
 113590730.374 8  88512310.002 7  21615591.625                    21615601.004
 125975046.060 6  98162451.42343  23972234.734                    23972242.828
 114311092.183 7  89073663.206 7  21752674.695                    21752681.496
 107733067.310 8  83947940.535 8  20500894.367                    20500901.199
 11  8 14  2 51  0.0000000  0  9G29G26G15G02G30G25G10G12G05
 116732048.643 7  90960125.851 7  22213368.469                    22213376.047
 122677174.463 7  95592683.12744  23344695.344                    23344702.090
 127516906.386 7  99363879.170 6  24265666.469                    24265675.004
 114518601.448 7  89235404.88845  21792141.742                    21792146.469
 114106685.977 7  88914389.05545  21713782.156                    21713789.852
 113603622.271 8  88522355.647 7  21618045.078                    21618054.164
 126081962.437 6  98245762.87843  23992580.672                    23992588.297
 114382410.678 7  89129236.071 7  21766245.867                    21766252.734
 107768857.302 8  83975828.859 8  20507705.227                    20507711.641
 11  8 14  2 51 30.0000000  0  9G29G26G15G02G30G25G10G12G05
 116653130.077 7  90898630.922 7  22198350.617                    22198357.488
 122584067.234 7  95520132.08044  23326977.656                    23326984.918
 127421263.395 7  99289352.265 6  24247466.867                    24247474.512
 114559719.238 7  89267444.73445  21799966.273                    21799970.922
 114146558.753 7  88945458.75545  21721369.727                    21721377.016
 113617076.076 8  88532839.144 7  21620605.383                    21620614.656
 126188988.834 6  98329160.06343  24012947.141                    24012954.520
 114454100.872 7  89185098.565 7  21779887.984                    21779894.816
 107805130.338 8  84004093.573 8  20514607.539                    20514613.887
 11  8 14  2 52  0.0000000  0  9G29G26G15G02G30G25G10G12G05
 116574337.028 7  90837233.804 7  22183356.477                    22183363.945
 122491097.668 7  95447688.31844  23309286.305                    23309292.914
 127325544.529 6  99214766.278 6  24229251.227                    24229259.863
 114600924.518 7  89299552.75445  21807807.438                    21807812.148
 114186943.995 7  88976927.78245  21729054.766                    21729061.938
 113631090.715 7  88543759.655 7  21623271.984                    21623281.469
 126296122.445 6  98412640.82443  24033334.063                    24033340.914
 114526160.092 7  89241248.604 7  21793600.906                    21793607.434
 107841884.053 8  84032732.843 8  20521601.906                    20521608.094
 11  8 14  2 52 30.0000000  0  9G29G26G15G02G30G25G10G12G05
 116495671.635 7  90775936.170 7  22168386.492                    22168394.152
 122398268.998 7  95375354.37344  23291621.469                    23291628.824
 127229752.927 6  99140123.574 6  24211022.375                    24211030.816
 114642217.424 7  89331729.05845  21815665.477                    21815669.688
 114227839.449 7  89008794.37645  21736836.641                    21736843.992
 113645665.137 8  88555116.368 7  21626045.531                    21626054.656
 126403360.851 6  98496203.22543  24053740.867                    24053747.391
 114598585.259 7  89297683.806 7  21807382.516                    21807389.582
 107879116.981 8  84061745.529 8  20528686.664                    20528692.973
 11  8 14  2 53  0.0000000  0  9G29G26G15G02G30G25G10G12G05
 116417135.628 7  90714739.349 7  22153441.586                    22153449.195
 122305584.750 7  95303132.94344  23273983.922                    23273991.695
 127133890.913 6  99065426.003 6  24192780.141                    24192788.801
 114683597.393 7  89363973.18045  21823539.516                    21823544.172
 114269242.622 7  89041056.59245  21744715.836                    21744722.934
 113660798.019 8  88566908.231 7  21628925.234                    21628934.598
 126510701.604 6  98579845.35843  24074167.234                    24074173.746
 114671373.418 7  89354401.851 7  21821233.617                    21821240.543
 107916826.584 8  84091129.649 8  20535863.047                    20535869.359
 11  8 14  2 53 30.0000000  0  9G29G26G15G02G30G25G10G12G05
 116338731.483 7  90653645.267 7  22138522.367                    22138529.473
 122213048.900 7  95231027.15044  23256374.617                    23256382.410
 127037961.095 6  98990675.644 6  24174525.195                    24174533.965
 114725064.905 8  89396285.53045  21831430.141                    21831435.344
 114311151.436 8  89073712.81745  21752690.781                    21752698.004
 113676488.536 8  88579134.625 7  21631910.758                    21631920.262
 126618141.872 6  98663565.03443  24094611.688                    24094619.098
 114744522.183 7  89411400.891 7  21835153.219                    21835160.961
 107955011.235 8  84120883.926 8  20543129.320                    20543135.375
 11  8 14  2 54  0.0000000  0  9G29G26G15G02G30G25G10G12G05
 116260461.104 7  90592655.422 7  22123627.977                    22123634.426
 122120665.107 7  95159039.85544  23238793.719                    23238802.563
 126941966.547 6  98915874.838 6  24156258.500                    24156266.188
 114766620.228 7  89428666.29345  21839338.531                    21839343.051
 114353563.889 7  89106761.49345  21760761.117                    21760768.547
 113692735.746 8  88591794.808 7  21635002.758                    21635011.613
 126725679.627 6  98747360.68743  24115075.172                    24115083.383
 114818029.067 7  89468678.986 7  21849141.477                    21849147.895
 107993669.240 8  84151007.060 8  20550485.469                    20550491.609
 11  8 14  2 54 30.0000000  0  9G29G26G15G02G30G25G10G12G05
 116182326.541 7  90531771.405 7  22108758.914                    22108766.020
 122028436.586 7  95087173.53544  23221244.602                    23221252.391
 126845909.579 6  98841025.413 6  24137979.430                    24137987.770
 114808262.932 7  89461115.15745  21847263.203                    21847268.004
 114396477.349 7  89140200.54945  21768927.383                    21768935.059
 113709538.136 8  88604887.596 7  21638200.398                    21638209.207
 126833311.822 6  98831229.90143  24135556.984                    24135565.086
 114891890.737 7  89526233.537 7  21863196.641                    21863203.680
 108032798.056 8  84181497.054 8  20557931.570                    20557937.984
 11  8 14  2 55  0.0000000  0  9G29G26G15G02G30G25G10G12G05
 116104329.646 7  90470994.655 7  22093916.852                    22093924.109
 121936367.101 6  95015431.15744  23203723.234                    23203731.254
 126749793.215 6  98766129.683 6  24119688.570                    24119696.926
 114849992.998 8  89493632.09345  21855203.695                    21855208.629
 114439889.429 7  89174028.14945  21777188.625                    21777196.297
 113726894.586 8  88618412.119 7  21641503.320                    21641512.563
 126941036.128 6  98915170.92443  24156056.242                    24156064.352
 114966104.228 7  89584062.232 7  21877319.180                    21877326.066
 108072395.847 8  84212352.482 8  20565466.563                    20565472.727
 11  8 14  2 55 30.0000000  0  9G29G26G15G02G30G25G10G12G05
 116026472.747 7  90410326.991 7  22079101.195                    22079108.484
 121844460.333 6  94943815.58944  23186234.422                    23186241.941
 126653620.125 6  98691189.755 6  24101387.734                    24101395.652
 114891810.567 7  89526217.22345  21863161.469                    21863166.070
 114483797.997 7  89208242.62945  21785544.367                    21785551.434
 113744804.102 8  88632367.599 7  21644911.273                    21644919.828
 127048850.048 6  98999181.79543  24176573.305                    24176581.039
 115040666.603 7  89642162.779 7  21891507.984                    21891514.625
 108112460.840 7  84243571.964 8  20573090.711                    20573097.262
 11  8 14  2 56  0.0000000  0  9G29G26G15G02G30G25G10G12G05
 115948757.813 7  90349769.948 7  22064312.102                    22064319.480
 121752719.886 7  94872329.59244  23168776.031                    23168784.715
 126557392.956 6  98616207.659 6  24083076.398                    24083083.582
 114933715.310 7  89558870.26545  21871135.266                    21871140.191
 114528200.543 7  89242842.01545  21793993.758                    21794000.844
 113763265.226 8  88646752.908 7  21648423.906                    21648433.438
 127156750.871 6  99083260.35743  24197105.836                    24197114.172
 115115575.139 7  89700533.068 7  21905762.648                    21905769.344
 108152990.598 7  84275153.606 8  20580803.500                    20580809.762
 11  8 14  2 56 30.0000000  0  9G29G26G15G02G30G25G10G12G05
 115871186.852 7  90289325.086 7  22049551.156                    22049558.152
 121661149.314 7  94800975.97644  23151351.523                    23151358.691
 126461114.273 6  98541185.431 6  24064754.695                    24064762.574
 114975707.386 7  89591591.36445  21879126.664                    21879130.461
 114573094.677 7  89277824.46645  21802536.617                    21802544.102
 113782276.725 8  88661567.085 7  21652041.695                    21652051.090
 127264736.191 6  99167404.72443  24217654.773                    24217662.434
 115190827.007 7  89759170.889 7  21920082.930                    21920089.215
 108193982.985 8  84307095.738 8  20588603.938                    20588610.152
 11  8 14  2 57  0.0000000  0  9G29G26G15G02G30G25G10G12G05
 115793762.223 7  90228994.243 7  22034817.453                    22034824.492
 121569752.326 7  94729757.60744  23133958.969                    23133966.996
 126364787.199 6  98466125.488 6  24046424.469                    24046432.406
 115017787.025 8  89624380.68045  21887133.836                    21887138.352
 114618478.242 7  89313188.29245  21811172.539                    21811179.750
 113801837.516 8  88676809.266 7  21655764.055                    21655773.422
 127372803.674 6  99251613.17942  24238219.133                    24238227.008
 115266419.540 7  89818074.170 7  21934467.773                    21934474.102
 108235436.428 8  84339397.129 8  20596492.273                    20596498.531
 11  8 14  2 57 30.0000000  0  9G29G26G15G02G30G25G10G12G05
 115716485.978 7  90168779.032 7  22020112.578                    22020119.492
 121478532.886 7  94658677.59744  23116600.320                    23116608.293
 126268414.474 6  98391029.987 6  24028084.922                    24028093.211
 115059954.519 8  89657238.46645  21895157.969                    21895162.926
 114664348.964 7  89348931.72745  21819901.445                    21819909.074
 113821946.482 8  88692478.608 7  21659590.484                    21659599.781
 127480950.953 5  99335883.76742  24258797.836                    24258806.457
 115342350.390 7  89877241.076 7  21948916.648                    21948923.355
 108277349.025 8  84372056.308 8  20604467.977                    20604474.105
 11  8 14  2 58  0.0000000  0  9G29G26G15G02G30G25G10G12G05
 115639360.115 7  90108680.996 7  22005435.750                    22005442.898
 121387494.422 7  94587738.56744  23099276.633                    23099284.070
 126171998.651 6  98315900.882 6  24009737.086                    24009745.836
 115102209.438 8  89690164.36345  21903199.023                    21903203.703
 114710704.028 7  89385052.56545  21828722.656                    21828730.035
 113842602.019 8  88708573.846 7  21663521.320                    21663530.504
 127589175.349 5  99420214.43942  24279393.266                    24279401.469
 115418615.908 7  89936668.755 7  21963429.234                    21963435.988
 108319718.198 8  84405071.259 8  20612530.539                    20612536.785
 11  8 14  2 58 30.0000000  0  9G29G26G15G02G30G25G10G12G05
 115562387.322 7  90048702.227 7  21990788.336                    21990795.242
 121296640.815 7  94516943.60044  23081987.148                    23081995.012
 126075542.427 7  98240740.297 6  23991382.336                    23991390.242
 115144552.145 8  89723158.67745  21911257.063                    21911261.605
 114757541.371 7  89421549.20645  21837635.492                    21837642.793
 113863803.115 8  88725094.198 7  21667555.563                    21667565.078
 127697474.909 6  99504603.67243  24300002.125                    24300010.211
 115495213.326 7  89996355.073 7  21978005.383                    21978012.023
 108362542.644 8  84438440.961 8  20620679.766                    20620685.957
 11  8 14  2 59  0.0000000  0  9G29G26G15G02G30G25G10G12G05
 115485568.904 7  89988843.746 7  21976170.375                    21976177.422
 121205974.923 7  94446294.88944  23064734.516                    23064741.836
 125979048.896 6  98165550.644 6  23973019.891                    23973028.004
 115186982.200 7  89756221.05145  21919330.773                    21919334.988
 114804858.011 7  89458419.33045  21846639.609                    21846647.105
 113885547.867 8  88742038.170 7  21671693.336                    21671702.793
 127805846.356 6  99589048.96843  24320624.445                    24320632.145
 115572139.525 8  90056297.567 7  21992644.031                    21992650.723
 108405819.119 8  84472162.910 8  20628914.961                    20628921.336
 11  8 14  2 59 30.0000000  0  9G29G26G15G02G30G25G10G12G05
 115408906.911 7  89929107.164 7  21961582.016                    21961589.109
 121115500.562 7  94375795.42644  23047517.516                    23047524.934
 125882520.058 6  98090333.455 6  23954651.297                    23954659.188
 115229499.280 7  89789351.24745  21927421.688                    21927426.031
 114852651.271 8  89495660.85145  21855734.586                    21855742.051
 113907834.647 8  88759404.495 7  21675934.781                    21675943.273
 127914287.175 6  99673548.20443  24341260.578                    24341267.793
 115649391.454 7  90116493.892 7  22007344.617                    22007351.133
 108449545.082 7  84506235.101 8  20637235.813                    20637241.984
 11  8 14  3  0  0.0000000  0  9G29G26G15G02G30G25G10G12G05
 115332403.822 7  89869494.391 7  21947023.953                    21947031.117
 121025221.532 7  94305448.17644  23030337.711                    23030345.496
 125785959.317 6  98015091.461 6  23936276.445                    23936284.594
 115272104.168 7  89822549.86345  21935528.891                    21935533.367
 114900919.132 7  89533272.19045  21864919.234                    21864926.512
 113930662.545 8  88777192.488 7  21680278.672                    21680287.855
 128022795.605 6  99758100.25943  24361908.977                    24361917.000
 115726966.528 7  90176942.017 7  22022106.398                    22022112.938
 108493719.413 7  84540656.666 8  20645641.805                    20645647.871
 11  8 14  3  0 30.0000000  0  9G29G26G15G02G30G25G10G12G05
 115256062.182 7  89810007.434 7  21932496.555                    21932503.777
 120935142.208 7  94235256.54244  23013196.898                    23013203.914
 125689369.908 6  97939827.125 6  23917896.227                    23917904.133
 115314797.049 8  89855817.05145  21943652.898                    21943657.598
 114949659.439 7  89571251.65945  21874194.484                    21874201.906
 113954030.478 8  88795401.283 7  21684725.367                    21684734.594
 128131369.067 6  99842702.94043  24382569.625                    24382577.016
 115804862.362 7  90237640.080 7  22036929.438                    22036936.113
 108538340.509 8  84575426.365 8  20654132.734                    20654138.828
 11  8 14  3  1  0.0000000  0  9G29G26G15G02G30G25G10G12G05
 115179883.468 7  89750647.432 7  21918000.492                    21918007.449
 120845265.317 7  94165222.66344  22996093.164                    22996100.828
 125592753.731 6  97864541.906 6  23899510.742                    23899518.184
 115357577.343 8  89889152.34145  21951793.820                    21951798.598
 114998868.878 7  89609596.69645  21883558.813                    21883565.617
 113977936.324 8  88814029.220 7  21689274.625                    21689283.949
 128240004.956 6  99927354.26643  24403242.344                    24403249.793
 115883075.303 7  90298585.252 7  22051813.016                    22051819.516
 108583405.071 8  84610541.619 8  20662708.258                    20662714.477
 11  8 14  3  1 30.0000000  0 10G29G26G21G15G02G30G25G10G12G05
 115103870.659 7  89691416.705 7  21903535.625                    21903542.777
 120755595.137 7  94095349.82744  22979029.461                    22979037.523
 132292697.20816 103085271.57452  25174469.969                    25174477.523
 125496114.575 6  97789238.779 6  23881120.523                    23881128.582
 115400445.806 8  89922556.33145  21959951.352                    21959956.281
 115048545.515 7  89648305.77845  21893011.813                    21893019.086
 114002379.137 8  88833075.586 7  21693925.953                    21693934.727
 128348700.965 6 100012052.41143  24423926.844                    24423934.012
 115961602.783 7  90359775.512 7  22066756.234                    22066762.852
 108628912.019 8  84646001.598 7  20671368.070                    20671374.465
 11  8 14  3  2  0.0000000  0 10G29G26G21G15G02G30G25G10G12G05
 115028025.532 7  89632316.633 7  21889102.633                    21889109.398
 120666135.331 7  94025640.95544  22962006.328                    22962013.258
 132235646.284 6 103040816.42643  25163613.984                    25163621.805
 125399454.676 6  97713919.513 6  23862726.414                    23862734.383
 115443402.204 7  89956028.85145  21968125.867                    21968130.578
 115098686.746 7  89687376.88245  21902553.711                    21902560.504
 114027357.282 8  88852539.077 7  21698679.008                    21698688.109
 128457454.893 6 100096795.76543  24444622.539                    24444628.570
 116040441.962 7  90421208.647 7  22081758.797                    22081765.383
 108674858.658 8  84681804.191 8  20680111.609                    20680117.656
 11  8 14  3  2 30.0000000  0 10G29G26G21G15G02G30G25G10G12G05
 114952350.082 7  89573348.781 7  21874701.938                    21874709.023
 120576889.271 7  93956098.61044  22945022.977                    22945030.152
 132178607.310 6 102996370.62943  25152759.164                    25152767.883
 125302776.996 6  97638586.375 6  23844329.531                    23844337.293
 115486446.568 8  89989569.90945  21976316.375                    21976321.176
 115149289.650 7  89726807.73445  21912182.492                    21912190.137
 114052869.098 8  88872418.424 7  21703533.766                    21703543.074
 128566264.195 6 100181582.23443  24465328.453                    24465334.133
 116119589.612 7  90482882.154 7  22096820.086                    22096826.617
 108721242.519 8  84717947.463 8  20688937.930                    20688944.598
 11  8 14  3  3  0.0000000  0 10G29G26G21G15G02G30G25G10G12G05
 114876846.628 7  89514514.962 7  21860334.055                    21860340.961
 120487860.682 7  93886725.74544  22928082.023                    22928089.180
 132121579.636 6 102951933.61243  25141907.078                    25141914.910
 125206084.201 6  97563241.452 6  23825928.922                    23825936.848
 115529578.927 7  90023179.53545  21984524.953                    21984529.293
 115200351.682 7  89766596.32945  21921899.586                    21921906.977
 114078912.916 8  88892712.319 7  21708489.906                    21708498.945
 128675126.349 6 100266409.79642  24486043.297                    24486050.289
 116199042.461 7  90544793.482 7  22111939.773                    22111946.066
 108768061.473 8  84754429.779 8  20697847.195                    20697853.809
 11  8 14  3  3 30.0000000  0 10G29G26G21G15G02G30G25G10G12G05
 114801517.328 8  89455816.836 7  21845999.203                    21846006.680
 120399053.340 7  93817525.28444  22911181.781                    22911189.234
 132064562.981 6 102907505.15843  25131057.203                    25131065.484
 125109379.137 6  97487886.960 6  23807526.492                    23807534.488
 115572799.876 7  90056858.20445  21992748.867                    21992753.559
 115251870.453 7  89806740.84845  21931703.555                    21931710.301
 114105487.370 8  88913419.702 7  21713546.625                    21713555.789
 128784039.094 5 100351276.85042  24506768.406                    24506776.852
 116278798.040 7  90606940.693 7  22127116.703                    22127123.094
 108815313.590 8  84791249.630 8  20706838.969                    20706845.102
 11  8 14  3  4  0.0000000  0 10G29G26G21G15G02G30G25G10G12G05
 114726364.206 7  89397255.998 7  21831698.344                    21831705.320
 120310470.879 7  93748500.03144  22894325.367                    22894332.781
 132007556.709 6 102863084.83343  25120209.352                    25120218.047
 125012664.843 7  97412525.289 6  23789122.758                    23789130.109
 115616109.119 7  90090605.65245  22000990.609                    22000995.340
 115303843.271 7  89847239.15245  21941593.484                    21941600.414
 114132590.875 8  88934539.336 7  21718704.641                    21718713.395
 128893000.209 5 100436181.59642  24527503.102                    24527511.672
 116358853.324 7  90669321.441 7  22142350.594                    22142357.207
 108862996.617 8  84828405.246 8  20715912.789                    20715919.164
 11  8 14  3  4 30.0000000  0 10G29G26G21G15G02G30G25G10G12G05
 114651389.404 7  89338834.102 7  21817431.078                    21817438.016
 120222116.744 7  93679652.69744  22877511.938                    22877519.633
 131950559.855 6 102818671.84543  25109362.797                    25109371.324
 124915944.010 7  97337158.482 6  23770717.516                    23770724.738
 115659506.565 7  90124421.84545  22009248.742                    22009253.508
 115356267.025 7  89888088.84045  21951569.297                    21951576.500
 114160221.415 8  88956069.635 7  21723962.234                    21723970.984
 129002007.313 6 100521122.15942  24548246.219                    24548254.848
 116439205.249 7  90731933.338 7  22157640.906                    22157648.027
 108911107.763 8  84865894.466 7  20725068.031                    20725074.246
 11  8 14  3  5  0.0000000  0 10G29G26G21G15G02G30G25G10G12G05
 114576595.631 7  89280553.279 7  21803198.055                    21803205.152
 120133994.874 7  93610986.35844  22860743.156                    22860750.660
 131893572.155 6 102774265.96443  25098517.914                    25098526.617
 124819219.792 7  97261789.062 6  23752311.461                    23752318.832
 115702992.505 7  90158306.98945  22017524.133                    22017528.363
 115409139.612 7  89929288.26545  21961630.695                    21961637.781
 114188377.784 8  88978009.675 7  21729319.984                    21729328.980
 129111058.093 6 100606096.85742  24568998.688                    24569007.172
 116519850.731 7  90794773.980 7  22172987.602                    22172993.820
 108959645.553 8  84903716.130 7  20734304.734                    20734310.848
 11  8 14  3  5 30.0000000  0 10G29G26G21G15G02G30G25G10G12G05
 114501984.805 7  89222415.010 7  21789000.320                    21789006.660
 120046109.036 7  93542503.93444  22844018.852                    22844026.117
 131836593.377 6 102729867.04443  25087675.531                    25087683.934
 124722494.845 7  97186419.059 6  23733905.563                    23733912.648
 115746567.164 7  90192261.25245  22025815.875                    22025820.516
 115462458.294 7  89970835.29445  21971776.531                    21971783.859
 114217058.296 8  89000358.140 7  21734777.961                    21734786.840
 129220150.334 6 100691103.84642  24589757.445                    24589765.820
 116600786.930 7  90857841.153 7  22188389.047                    22188395.633
 109008607.414 8  84941868.240 8  20743621.508                    20743627.805
 11  8 14  3  6  0.0000000  0  9G29G26G21G15G02G30G25G12G05
 114427559.919 7  89164421.633 7  21774837.734                    21774844.680
 119958463.526 7  93474208.77044  22827340.305                    22827348.137
 131779622.995 6 102685474.68143  25076835.250                    25076842.270
 124625773.127 7  97111051.588 6  23715499.719                    23715507.012
 115790231.442 7  90226285.34445  22034125.086                    22034130.098
 115516221.039 7  90012728.34145  21982007.164                    21982014.629
 114246261.867 8  89023114.176 7  21740334.922                    21740344.059
 116682011.513 7  90921133.037 7  22203845.547                    22203852.211
 109057992.188 8  84980349.887 7  20753019.297                    20753025.230
 11  8 14  3  6 30.0000000  0  9G29G26G21G15G02G30G25G12G05
 114353322.716 7  89106574.502 7  21760710.391                    21760717.379
 119871061.439 7  93406103.29244  22810708.328                    22810715.992
 131722660.030 6 102641088.07843  25065994.797                    25066003.102
 124529056.382 6  97035687.993 6  23697093.805                    23697102.117
 115833984.562 7  90260378.68445  22042450.961                    22042455.777
 115570424.384 7  90054964.71245  21992321.844                    21992329.434
 114275986.100 8  89046275.925 7  21745991.688                    21746000.715
 116763521.100 7  90984647.010 7  22219356.313                    22219362.430
 109107796.604 8  85019158.542 8  20762496.797                    20762502.746
 11  8 14  3  7  0.0000000  0  9G29G26G21G15G02G30G25G12G05
 114279274.970 7  89048875.010 7  21746619.664                    21746626.531
 119783905.937 7  93338189.95444  22794123.070                    22794130.551
 131665703.913 6 102596706.79143  25055156.422                    25055164.242
 124432347.108 6  96960330.204 6  23678691.406                    23678698.793
 115877826.453 7  90294541.18445  22050793.750                    22050798.605
 115625065.426 7  90097542.15245  22002719.930                    22002727.484
 114306229.047 8  89069841.865 7  21751746.328                    21751755.262
 116845312.127 7  91048380.272 7  22234920.484                    22234927.031
 109158017.971 8  85058292.089 8  20772053.523                    20772059.891
 11  8 14  3  7 30.0000000  0  9G29G26G21G15G02G30G25G12G05
 114205418.785 8  88991324.785 7  21732565.734                    21732572.527
 119697001.017 7  93270471.87944  22777585.594                    22777592.652
 131608753.946 6 102552330.32343  25044318.078                    25044326.707
 124335648.771 6  96884980.939 6  23660290.086                    23660297.488
 115921757.427 7  90328773.10945  22059153.352                    22059158.016
 115680141.461 7  90140458.55145  22013200.391                    22013208.109
 114336988.959 8  89093810.624 7  21757600.023                    21757609.262
 116927381.835 7  91112330.692 7  22250538.328                    22250544.500
 109208654.244 8  85097748.940 7  20781689.453                    20781695.250
 11  8 14  3  8  0.0000000  0  9G29G26G21G15G02G30G25G12G05
 114131756.587 7  88933925.712 7  21718548.109                    21718554.934
 119610350.166 7  93202951.76744  22761096.320                    22761103.750
 131551809.394 6 102507958.04043  25033482.758                    25033490.484
 124238964.145 6  96809642.371 6  23641891.563                    23641898.754
 115965777.811 7  90363074.70345  22067530.414                    22067535.121
 115735649.753 7  90183711.77545  22023763.445                    22023770.617
 114368264.090 8  89118180.858 7  21763551.422                    21763560.383
 117009726.737 7  91176495.573 7  22266207.734                    22266214.133
 109259703.231 8  85137527.383 7  20791403.719                    20791409.969
 11  8 14  3  8 30.0000000  0  9G29G26G21G15G02G30G25G12G05
 114058290.554 7  88876679.501 7  21704567.656                    21704574.336
 119523957.404 7  93135632.77244  22744656.164                    22744663.664
 131494870.009 6 102463589.78943  25022647.164                    25022655.281
 124142296.218 6  96734316.817 6  23623495.969                    23623503.328
 116009887.511 7  90397445.87345  22075924.578                    22075928.805
 115791587.617 7  90227299.72445  22034408.047                    22034415.551
 114400052.770 8  89142951.254 7  21769600.664                    21769609.543
 117092344.460 7  91240873.027 7  22281929.133                    22281935.523
 109311162.593 8  85177625.596 7  20801196.039                    20801202.254
 11  8 14  3  9  0.0000000  0  9G29G26G21G15G02G30G25G12G05
 113985023.322 8  88819588.201 7  21690625.617                    21690632.258
 119437826.189 7  93068517.59144  22728266.148                    22728273.422
 131437935.281 6 102419225.15143  25011813.117                    25011820.484
 124045648.053 6  96659006.642 6  23605104.641                    23605111.832
 116054086.893 8  90431886.93145  22084335.578                    22084339.613
 115847952.340 7  90271220.29145  22045133.688                    22045141.047
 114432353.163 8  89168120.405 7  21775746.781                    21775756.027
 117175231.865 7  91305460.623 7  22297701.758                    22297708.613
 109363030.281 8  85218041.992 7  20811066.352                    20811072.047
 11  8 14  3  9 30.0000000  0  9G29G26G21G15G02G30G25G12G05
 113911956.820 8  88762653.305 7  21676721.586                    21676728.254
 119351960.233 7  93001609.09644  22711926.117                    22711933.441
 131381004.521 6 102374863.64743  25000978.570                    25000987.367
 123949022.325 7  96583713.970 6  23586717.172                    23586725.254
 116098375.948 7  90466397.85345  22092763.234                    22092767.762
 115904741.035 7  90315471.23645  22055940.289                    22055947.738
 114465163.334 8  89193686.774 7  21781990.617                    21781999.867
 117258385.616 7  91370255.754 7  22313525.813                    22313532.313
 109415303.722 8  85258774.552 7  20821013.484                    20821019.910
 11  8 14  3 10  0.0000000  0  9G29G26G21G15G02G30G25G12G05
 113839093.484 8  88705876.734 7  21662856.047                    21662862.930
 119266363.500 7  92934910.37844  22695638.188                    22695644.711
 131324077.118 6 102330504.71942  24990145.531                    24990154.789
 123852422.144 7  96508441.231 6  23568335.242                    23568342.840
 116142754.994 7  90500978.91945  22101208.422                    22101212.750
 115961951.043 7  90360050.46445  22066826.773                    22066834.121
 114498481.602 8  89219649.076 7  21788330.688                    21788340.227
 117341802.945 7  91435256.263 7  22329399.758                    22329405.859
 109467980.760 8  85299821.617 7  20831037.445                    20831043.730
 11  8 14  3 10 30.0000000  0  9G29G26G21G15G02G30G25G12G05
 113766435.256 8  88649259.980 7  21649029.398                    21649036.012
 119181039.234 7  92868423.97845  22679401.047                    22679408.188
 131267152.763 6 102286148.16242  24979314.172                    24979321.875
 123755850.449 7  96433190.657 6  23549958.336                    23549965.348
 116187223.963 7  90535630.06645  22109670.047                    22109675.586
 116019579.422 7  90404955.70845  22077793.750                    22077801.047
 114532305.964 8  89246005.725 7  21794767.453                    21794776.977
 117425480.764 7  91500459.755 7  22345322.602                    22345329.227
 109521059.047 8  85341181.326 7  20841137.648                    20841143.863
 11  8 14  3 11  0.0000000  0  9G29G26G21G15G02G30G25G12G05
 113693984.827 8  88592805.136 7  21635242.117                    21635249.184
 119095991.402 7  92802152.98045  22663217.414                    22663224.125
 131210230.879 6 102241793.57942  24968481.508                    24968489.828
 123659309.698 7  96357964.198 6  23531587.109                    23531594.496
 116231783.362 7  90570351.69245  22118149.828                    22118154.727
 116077623.473 7  90450184.84445  22088838.875                    22088846.023
 114566634.640 8  89272755.348 7  21801299.898                    21801309.352
 117509416.215 7  91565863.992 7  22361295.422                    22361302.047
 109574536.173 8  85382851.827 7  20851314.289                    20851320.336
 11  8 14  3 11 30.0000000  0  9G29G26G21G15G02G30G25G12G05
 113621744.705 8  88536514.162 7  21621495.570                    21621502.152
 119011223.728 7  92736100.28545  22647086.328                    22647093.500
 131153310.901 5 102197440.45242  24957649.836                    24957657.980
 123562803.422 7  96282764.599 6  23513222.078                    23513229.957
 116276433.231 7  90605143.78245  22126646.477                    22126650.652
 116136080.425 7  90495735.72145  22099962.742                    22099969.785
 114601465.748 8  89299896.485 7  21807927.922                    21807937.574
 117593606.187 7  91631466.572 7  22377316.516                    22377322.277
 109628409.944 8  85424831.403 7  20861566.188                    20861572.301
 11  8 14  3 12  0.0000000  0  9G29G26G21G15G02G30G25G12G05
 113549716.720 8  88480388.499 7  21607788.930                    21607796.035
 118926739.856 7  92670268.73144  22631010.063                    22631017.203
 131096392.254 5 102153088.36642  24946818.656                    24946827.031
 123466334.671 7  96207594.246 6  23494864.719                    23494871.820
 116321173.957 7  90640006.66545  22135160.438                    22135164.230
 116194947.378 7  90541606.09145  22111164.680                    22111171.969
 114636797.309 8  89327427.584 7  21814651.234                    21814660.457
 117678047.729 7  91697265.178 7  22393384.953                    22393391.258
 109682677.893 8  85467118.128 8  20871892.914                    20871899.148
 11  8 14  3 12 30.0000000  0  9G29G26G21G15G02G30G25G12G05
 113477902.923 8  88424429.731 7  21594123.055                    21594130.430
 118842543.329 7  92604661.09544  22614987.320                    22614994.105
 131039474.245 5 102108736.78442  24935987.063                    24935996.133
 123369906.100 7  96132455.189 6  23476514.672                    23476521.859
 116366005.586 7  90674940.38145  22143691.781                    22143695.813
 116254221.367 7  90587793.62345  22122444.258                    22122451.398
 114672627.238 8  89355347.021 7  21821469.453                    21821478.938
 117762737.721 7  91763257.378 7  22409500.828                    22409507.102
 109737337.792 8  85509710.272 7  20882294.531                    20882300.641
 11  8 14  3 13  0.0000000  0  9G29G26G21G15G02G30G25G12G05
 113406306.057 8  88368640.006 7  21580499.086                    21580505.563
 118758638.034 7  92539280.37044  22599020.820                    22599027.836
 130982556.570 6 102064385.42842  24925156.359                    24925164.840
 123273520.909 7  96057349.944 6  23458173.352                    23458180.176
 116410928.289 7  90709945.06745  22152240.063                    22152244.125
 116313899.598 7  90634296.15045  22133800.969                    22133807.730
 114708953.678 8  89383653.347 7  21828382.492                    21828391.855
 117847673.114 7  91829440.800 7  22425663.320                    22425670.094
 109792387.318 8  85552606.012 7  20892769.844                    20892776.051
 11  8 14  3 13 30.0000000  0  9G29G26G21G15G02G30G25G12G05
 113334928.266 8  88313020.971 7  21566916.453                    21566922.738
 118675027.719 7  92474129.51344  22583109.953                    22583117.195
 130925638.439 5 102020033.77642  24914325.195                    24914332.500
 123177182.033 6  95982280.775 6  23439840.250                    23439847.488
 116455942.454 7  90745021.03245  22160805.688                    22160809.934
 116373979.234 7  90681111.46445  22145233.414                    22145240.672
 114745774.668 8  89412345.033 7  21835388.930                    21835398.238
 117932850.897 7  91895813.093 7  22441872.531                    22441878.977
 109847824.028 8  85595803.461 7  20903319.164                    20903325.156
 11  8 14  3 14  0.0000000  0  9G29G26G21G15G02G30G25G12G05
 113263771.736 8  88257574.353 7  21553375.563                    21553382.457
 118591715.576 7  92409210.98944  22567256.648                    22567263.473
 130868719.326 6 101975681.28142  24903493.313                    24903501.121
 123080892.299 7  95907249.901 6  23421517.180                    23421524.500
 116501048.102 7  90780168.27345  22169388.977                    22169393.398
 116434457.224 7  90728237.18145  22156741.773                    22156748.898
 114783087.959 8  89441420.336 7  21842489.430                    21842498.656
 118018267.918 7  91962371.809 7  22458127.180                    22458133.488
 109903645.470 8  85639300.699 7  20913941.602                    20913947.707
 11  8 14  3 14 30.0000000  0  9G29G26G21G15G02G30G25G12G05
 113192838.835 8  88202301.990 7  21539877.523                    21539884.180
 118508705.479 7  92344527.81945  22551460.250                    22551467.094
 130811798.824 6 101931327.75342  24892662.164                    24892669.520
 122984654.475 7  95832259.489 6  23403204.055                    23403210.293
 116546245.208 7  90815386.79845  22177989.539                    22177994.613
 116495330.623 7  90775671.00045  22168325.641                    22168333.359
 114820891.529 8  89470877.666 7  21849683.383                    21849692.664
 118103920.995 7  92029114.462 7  22474425.570                    22474432.469
 109959849.206 8  85683095.825 7  20924636.906                    20924643.059
 11  8 14  3 15  0.0000000  0  9G29G26G21G15G02G30G25G12G05
 113122132.108 8  88147205.864 7  21526422.469                    21526428.953
 118426001.203 7  92280082.97044  22535722.172                    22535729.105
 130754876.294 6 101886972.61842  24881829.414                    24881837.602
 122888472.081 7  95757312.261 6  23384900.625                    23384908.055
 116591534.363 8  90850677.04745  22186608.000                    22186613.004
 116556596.681 7  90823410.79045  22179984.531                    22179991.566
 114859183.467 8  89500715.548 7  21856970.133                    21856979.449
 118189807.361 7  92096038.914 7  22490769.086                    22490775.934
 110016433.025 8  85727187.125 8  20935404.383                    20935410.422
 11  8 14  3 15 30.0000000  0  9G29G26G21G15G02G30G25G12G05
 113051653.352 8  88092287.376 7  21513011.117                    21513017.594
 118343606.136 7  92215879.04444  22520042.641                    22520049.129
 130697951.177 6 101842615.45743  24870997.914                    24871005.293
 122792347.678 6  95682410.208 6  23366609.156                    23366615.473
 116636915.772 7  90886039.17845  22195243.984                    22195248.699
 116618252.323 7  90871454.15845  22191717.070                    22191724.207
 114897961.537 8  89530932.227 7  21864349.219                    21864358.543
 118275923.691 7  92163142.525 7  22507156.820                    22507163.598
 110073394.301 8  85771572.548 7  20946243.820                    20946250.008
 11  8 14  3 16  0.0000000  0  9G29G26G21G15G02G30G25G12G05
 112981405.162 8  88037548.552 7  21499642.828                    21499649.676
 118261524.466 7  92151919.32544  22504423.141                    22504429.906
 130641023.048 6 101798255.99642  24860164.000                    24860172.309
 122696284.270 6  95607555.692 6  23348328.508                    23348335.578
 116682389.522 8  90921473.27045  22203897.602                    22203902.391
 116680294.683 7  90919798.85245  22203523.414                    22203530.516
 114937223.762 8  89561526.173 7  21871820.539                    21871830.035
 118362267.336 7  92230423.312 7  22523587.406                    22523594.270
 110130730.856 7  85816250.386 7  20957154.492                    20957160.590
 11  8 14  3 16 30.0000000  0  9G29G26G21G15G02G30G25G12G05
 112911389.921 8  87982991.249 7  21486319.609                    21486326.012
 118179759.408 7  92088206.30544  22488864.148                    22488870.348
 130584091.186 6 101753893.58743  24849331.141                    24849338.223
 122600285.093 7  95532751.229 6  23330060.172                    23330067.254
 116727955.821 8  90956979.46945  22212568.547                    22212572.648
 116742720.717 7  90968442.51945  22215402.477                    22215409.500
 114976967.910 8  89592495.641 7  21879383.758                    21879392.934
 118448834.544 7  92297878.267 7  22540060.398                    22540067.383
 110188440.266 7  85861218.776 7  20968136.539                    20968142.227
 11  8 14  3 17  0.0000000  0  9G29G26G21G15G02G30G25G12G05
 112841609.654 8  87928617.039 7  21473041.031                    21473047.520
 118098314.652 7  92024742.88545  22473365.273                    22473372.359
 130527155.163 6 101709527.93343  24838495.945                    24838503.672
 122504353.275 7  95457999.243 6  23311804.891                    23311812.074
 116773614.946 8  90992558.00745  22221257.188                    22221261.578
 116805527.523 7  91017382.89645  22227354.086                    22227361.469
 115017191.797 8  89623838.937 7  21887038.008                    21887047.117
 118535622.414 7  92365505.176 7  22556575.781                    22556582.746
 110246519.960 8  85906475.692 7  20979188.258                    20979195.063
 11  8 14  3 17 30.0000000  0  9G29G26G21G15G02G30G25G12G05
 112772066.958 8  87874427.966 7  21459807.078                    21459813.914
 118017193.981 7  91961532.00545  22457928.297                    22457935.551
 130470214.307 6 101665158.52543  24827660.898                    24827668.094
 122408491.612 7  95383301.932 6  23293562.805                    23293570.047
 116819367.148 8  91028209.05945  22229963.203                    22229967.621
 116868712.123 7  91066617.65445  22239377.711                    22239384.949
 115057893.403 8  89655554.484 7  21894783.492                    21894792.113
 118622628.177 7  92433301.873 7  22573132.664                    22573139.000
 110304967.764 8  85952019.444 7  20990310.547                    20990316.785
 11  8 14  3 18  0.0000000  0  9G29G26G21G15G02G30G25G12G05
 112702764.303 8  87820425.925 7  21446619.406                    21446625.996
 117936401.085 7  91898576.52744  22442553.633                    22442561.043
 130413268.547 6 101620785.32243  24816823.875                    24816831.348
 122312703.274 7  95308661.742 6  23275335.273                    23275342.520
 116865212.713 8  91063932.86945  22238687.680                    22238691.559
 116932271.813 7  91116144.69045  22251472.789                    22251479.766
 115099070.713 8  89687640.703 7  21902619.039                    21902628.180
 118709849.093 7  92501266.227 7  22589730.227                    22589737.211
 110363781.526 8  85997848.359 7  21001502.617                    21001508.672
 11  8 14  3 18 30.0000000  0  9G29G26G21G15G02G30G25G12G05
 112633703.916 8  87766612.662 7  21433477.961                    21433484.094
 117855939.417 7  91835879.16045  22427242.617                    22427249.938
 130356317.114 6 101576407.67643  24805986.477                    24805993.691
 122216991.041 7  95234080.857 6  23257121.109                    23257128.820
 116911151.750 7  91099729.52945  22247429.414                    22247433.879
 116996203.268 7  91165961.40745  22263638.477                    22263645.535
 115140721.259 8  89720095.672 7  21910544.953                    21910554.195
 118797281.517 7  92569395.369 7  22606368.023                    22606374.711
 110422958.254 8  86043960.101 7  21012763.883                    21012770.016
 11  8 14  3 19  0.0000000  0  9G29G26G21G15G02G30G25G12G05
 112564887.854 8  87712989.784 7  21420382.258                    21420389.039
 117775812.769 7  91773442.84345  22411994.891                    22412002.211
 130299359.332 6 101532025.09643  24795147.367                    24795154.953
 122121357.973 7  95159561.669 6  23238923.297                    23238930.570
 116957184.727 7  91135599.37545  22256188.398                    22256193.625
 117060503.613 7  91216065.57645  22275874.617                    22275881.398
 115182842.897 8  89752917.728 7  21918560.695                    21918569.613
 118884922.545 7  92637687.085 7  22623045.852                    22623052.109
 110482495.781 8  86090352.985 7  21024093.281                    21024099.172
 11  8 14  3 19 30.0000000  0  9G29G26G21G15G02G30G25G12G05
 112496318.504 8  87659559.149 7  21407333.781                    21407340.641
 117696024.658 7  91711270.32145  22396812.289                    22396818.438
 130242394.655 6 101487637.14843  24784308.125                    24784314.875
 122025807.329 7  95085106.688 6  23220740.523                    23220747.551
 117003311.747 7  91171542.50145  22264966.711                    22264971.387
 117125169.626 7  91266454.67945  22288180.047                    22288186.895
 115225433.314 8  89786105.074 7  21926664.922                    21926674.285
 118972768.997 7  92706138.859 7  22639762.008                    22639768.527
 110542391.672 8  86137025.116 7  21035490.969                    21035497.074
 11  8 14  3 20  0.0000000  0  9G29G26G21G15G02G30G25G12G05
 112427998.683 8  87606322.959 7  21394332.844                    21394339.598
 117616579.252 7  91649364.84044  22381693.820                    22381700.371
 130185422.806 6 101443243.62843  24773466.984                    24773473.637
 121930342.360 7  95010718.469 6  23202573.859                    23202581.234
 117049533.507 7  91207559.45145  22273762.734                    22273767.609
 117190198.803 7  91317126.77545  22300554.672                    22300562.117
 115268490.695 8  89819656.280 7  21934858.586                    21934867.684
 119060818.242 7  92774748.668 7  22656517.180                    22656523.879
 110602643.957 8  86183974.953 7  21046956.398                    21046962.551
 11  8 14  3 20 30.0000000  0  9G29G26G21G15G02G30G25G12G05
 112359929.649 8  87553282.177 7  21381379.555                    21381386.582
 117537479.128 7  91587728.40645  22366641.352                    22366648.875
 130128442.982 6 101398843.86443  24762622.750                    24762630.797
 121834965.225 7  94936398.703 6  23184424.164                    23184431.508
 117095849.548 8  91243649.86545  22282576.367                    22282581.109
 117255587.170 7  91368078.75845  22312997.844                    22313004.984
 115312011.853 8  89853568.879 7  21943140.445                    21943149.703
 119149066.210 7  92843513.316 6  22673310.438                    22673316.855
 110663249.064 8  86231199.710 7  21058489.305                    21058495.445
 11  8 14  3 21  0.0000000  0  9G29G26G21G15G02G30G25G12G05
 112292115.023 8  87500439.633 7  21368475.172                    21368481.980
 117458728.682 7  91526364.47145  22351655.984                    22351662.836
 130071455.013 6 101354437.77543  24751778.359                    24751785.969
 121739680.272 7  94862150.759 6  23166291.586                    23166298.484
 117142260.775 7  91279814.45445  22291408.031                    22291412.512
 117321332.804 7  91419309.12145  22325508.953                    22325515.777
 115355995.555 8  89887841.904 7  21951510.461                    21951519.105
 119237510.963 7  92912431.291 7  22690141.336                    22690147.520
 110724205.728 8  86278698.411 7  21070089.000                    21070094.926
 11  8 14  3 21 30.0000000  0  9G29G26G21G15G02G30G25G12G05
 112224556.466 8  87447796.631 7  21355619.219                    21355626.277
 117380331.323 7  91465275.65445  22336737.227                    22336744.176
 130014458.108 6 101310024.70443  24740932.375                    24740939.691
 121644489.514 7  94787976.208 6  23148177.828                    23148185.117
 117188767.227 7  91316053.23045  22300258.227                    22300262.816
 117387431.999 7  91470814.99445  22338086.891                    22338094.070
 115400438.918 8  89922473.098 7  21959967.523                    21959976.277
 119326148.754 7  92981499.691 7  22707008.297                    22707014.793
 110785510.862 8  86326468.647 7  21081755.211                    21081761.191
